[[{"header":{"parameterUnit":"m.s-1","parameterCategory":1,"la1":30.6,"la2":29.2853,"lo1":-89.7004,"lo2":-87.6739,"dy":0.0162,"dx":0.0183,"nx":112,"ny":82,"refTime":"2023-07-04T06:00:00:Z","depth":0,"parameterNumber":2,"parameterNumberName":"U-component_of_WINDS"},"data":[0.0,0.0,0.0,0.0,0.0,0.0,0.0,0.0,0.0,0.0,0.0,0.0,0.0,0.0,0.0,0.0,0.0,0.0,0.0,0.0,0.0,0.0,0.0,0.0,0.0,0.0,0.0,0.0,0.0,0.0,0.0,0.0,0.0,0.0,0.0,0.0,0.0,0.0,0.0,0.0,0.0,0.0,0.0,0.0,0.0,0.0,0.0,0.0,0.0,0.0,0.0,0.0,0.0,0.0,0.0,0.0,0.0,0.0,0.0,0.0,0.0,0.0,0.0,0.0,0.0,0.0,0.0,0.0,0.0,0.0,0.0,0.0,0.0,0.0,0.0,0.0,0.0,0.0,0.0,0.0,0.0,0.0,0.0,0.0,0.0,0.0,0.0,0.0,0.0,0.0,-3.9949,-4.1051,-4.3004,-4.4039,-4.353,-4.4113,-4.243,-3.7594,0.0,0.0,0.0,0.0,0.0,0.0,0.0,0.0,0.0,0.0,0.0,0.0,0.0,0.0,0.0,0.0,0.0,0.0,0.0,0.0,0.0,0.0,0.0,0.0,0.0,0.0,0.0,0.0,0.0,0.0,0.0,0.0,0.0,0.0,0.0,0.0,0.0,0.0,0.0,0.0,0.0,0.0,0.0,0.0,0.0,0.0,0.0,0.0,0.0,0.0,0.0,0.0,0.0,0.0,0.0,0.0,0.0,0.0,0.0,0.0,0.0,0.0,0.0,0.0,0.0,0.0,0.0,0.0,0.0,0.0,0.0,0.0,0.0,0.0,0.0,0.0,0.0,0.0,0.0,0.0,0.0,0.0,0.0,0.0,0.0,0.0,0.0,0.0,0.0,0.0,0.0,0.0,0.0,0.0,0.0,0.0,0.0,0.0,0.0,0.0,0.0,0.0,0.0,0.0,-4.0119,-4.2567,-4.3475,-4.4018,-4.4386,-4.4215,-4.216,-3.7594,0.0,0.0,0.0,0.0,0.0,0.0,0.0,0.0,0.0,0.0,0.0,0.0,0.0,0.0,0.0,0.0,0.0,0.0,0.0,0.0,0.0,0.0,0.0,0.0,0.0,0.0,0.0,0.0,0.0,0.0,0.0,0.0,0.0,0.0,0.0,0.0,0.0,0.0,0.0,0.0,0.0,0.0,0.0,0.0,0.0,0.0,0.0,0.0,0.0,0.0,0.0,0.0,0.0,0.0,0.0,0.0,0.0,0.0,0.0,0.0,0.0,0.0,0.0,0.0,0.0,0.0,0.0,0.0,0.0,0.0,0.0,0.0,0.0,0.0,0.0,0.0,0.0,0.0,0.0,0.0,0.0,0.0,0.0,0.0,0.0,0.0,0.0,0.0,0.0,0.0,0.0,0.0,0.0,0.0,0.0,0.0,0.0,0.0,0.0,0.0,0.0,0.0,0.0,-3.8632,-3.9953,-4.2298,-4.2885,-4.3308,-4.3851,-4.3942,-4.2267,-3.8217,-3.7555,0.0,0.0,0.0,0.0,0.0,0.0,0.0,0.0,0.0,0.0,0.0,0.0,0.0,0.0,0.0,0.0,0.0,0.0,0.0,0.0,0.0,0.0,0.0,0.0,0.0,0.0,0.0,0.0,0.0,0.0,0.0,0.0,0.0,0.0,0.0,0.0,0.0,0.0,0.0,0.0,0.0,0.0,0.0,0.0,0.0,0.0,0.0,0.0,0.0,0.0,0.0,0.0,0.0,0.0,0.0,0.0,0.0,0.0,0.0,0.0,0.0,0.0,0.0,0.0,0.0,0.0,0.0,0.0,0.0,0.0,0.0,0.0,0.0,0.0,0.0,0.0,0.0,0.0,0.0,0.0,0.0,0.0,0.0,0.0,0.0,0.0,0.0,0.0,0.0,0.0,0.0,0.0,0.0,0.0,0.0,0.0,0.0,0.0,0.0,0.0,0.0,0.0,-3.9219,-4.0241,-4.1933,-4.2451,-4.2909,-4.3439,-4.3565,-4.2136,-3.8732,-3.7731,0.0,0.0,0.0,0.0,0.0,0.0,0.0,0.0,0.0,0.0,0.0,0.0,0.0,0.0,0.0,0.0,0.0,0.0,0.0,0.0,0.0,0.0,0.0,0.0,0.0,0.0,0.0,0.0,0.0,0.0,0.0,0.0,0.0,0.0,0.0,0.0,0.0,0.0,0.0,0.0,0.0,0.0,0.0,0.0,0.0,0.0,0.0,0.0,0.0,0.0,0.0,0.0,0.0,0.0,0.0,0.0,0.0,0.0,0.0,0.0,0.0,0.0,0.0,0.0,0.0,0.0,0.0,0.0,0.0,0.0,0.0,0.0,0.0,0.0,0.0,0.0,0.0,0.0,0.0,0.0,0.0,0.0,0.0,0.0,0.0,0.0,0.0,0.0,0.0,0.0,0.0,0.0,0.0,0.0,0.0,0.0,0.0,0.0,0.0,0.0,0.0,0.0,-3.9835,-4.1618,-4.2373,-4.2928,-4.3431,-4.3908,-4.3005,-4.1302,-3.8658,-3.7729,0.0,0.0,0.0,0.0,0.0,0.0,0.0,0.0,0.0,0.0,0.0,0.0,0.0,0.0,0.0,0.0,0.0,0.0,0.0,0.0,0.0,0.0,0.0,0.0,0.0,0.0,0.0,0.0,0.0,0.0,0.0,0.0,0.0,0.0,0.0,0.0,0.0,0.0,0.0,0.0,0.0,0.0,0.0,0.0,0.0,0.0,0.0,0.0,0.0,0.0,0.0,0.0,0.0,0.0,0.0,0.0,0.0,0.0,0.0,0.0,0.0,0.0,0.0,0.0,0.0,0.0,0.0,0.0,0.0,0.0,0.0,0.0,0.0,0.0,0.0,0.0,0.0,0.0,0.0,0.0,0.0,0.0,0.0,0.0,0.0,0.0,0.0,0.0,0.0,0.0,0.0,0.0,0.0,0.0,0.0,0.0,0.0,0.0,0.0,0.0,0.0,0.0,-3.9071,-4.0768,-4.2782,-4.2991,-4.3258,-4.3942,-4.3112,-4.1612,-3.9331,0.0,0.0,0.0,0.0,0.0,0.0,0.0,0.0,0.0,0.0,0.0,0.0,0.0,0.0,0.0,0.0,0.0,0.0,0.0,0.0,0.0,0.0,0.0,0.0,0.0,0.0,0.0,0.0,0.0,0.0,0.0,0.0,0.0,0.0,0.0,0.0,0.0,0.0,0.0,0.0,0.0,0.0,0.0,0.0,0.0,0.0,0.0,0.0,0.0,0.0,0.0,0.0,0.0,0.0,0.0,0.0,0.0,0.0,0.0,0.0,0.0,0.0,0.0,0.0,0.0,0.0,0.0,0.0,0.0,0.0,0.0,0.0,0.0,0.0,0.0,0.0,0.0,0.0,0.0,0.0,0.0,0.0,0.0,0.0,0.0,0.0,0.0,0.0,0.0,0.0,0.0,0.0,0.0,0.0,0.0,0.0,0.0,0.0,0.0,0.0,0.0,0.0,-3.7442,-3.9193,-4.1016,-4.2956,-4.301,-4.3106,-4.3531,-4.2613,-4.1185,-3.9105,0.0,0.0,0.0,0.0,0.0,0.0,0.0,0.0,0.0,0.0,0.0,0.0,0.0,0.0,0.0,0.0,0.0,0.0,0.0,0.0,0.0,0.0,0.0,0.0,0.0,0.0,0.0,0.0,0.0,0.0,0.0,0.0,0.0,0.0,0.0,0.0,0.0,0.0,0.0,0.0,0.0,0.0,0.0,0.0,0.0,0.0,0.0,0.0,0.0,0.0,0.0,0.0,0.0,0.0,0.0,0.0,0.0,0.0,0.0,0.0,0.0,0.0,0.0,0.0,0.0,0.0,0.0,0.0,0.0,0.0,0.0,0.0,0.0,0.0,0.0,0.0,0.0,0.0,0.0,0.0,0.0,0.0,0.0,0.0,0.0,0.0,0.0,0.0,0.0,0.0,0.0,0.0,0.0,0.0,0.0,0.0,0.0,0.0,0.0,0.0,0.0,0.0,-3.7209,-4.0529,-4.2805,-4.2802,-4.3033,-4.3084,-4.2732,-4.1408,-3.9757,0.0,0.0,0.0,0.0,0.0,0.0,0.0,0.0,0.0,0.0,0.0,0.0,0.0,0.0,0.0,0.0,0.0,0.0,0.0,0.0,0.0,0.0,0.0,0.0,0.0,0.0,0.0,0.0,0.0,0.0,0.0,0.0,0.0,0.0,0.0,0.0,0.0,0.0,0.0,0.0,0.0,0.0,0.0,0.0,0.0,0.0,0.0,0.0,0.0,0.0,0.0,0.0,0.0,0.0,0.0,0.0,0.0,0.0,0.0,0.0,0.0,0.0,0.0,0.0,0.0,0.0,0.0,0.0,0.0,0.0,0.0,0.0,0.0,0.0,0.0,0.0,0.0,0.0,0.0,0.0,0.0,0.0,0.0,0.0,0.0,0.0,0.0,0.0,0.0,0.0,0.0,0.0,0.0,0.0,0.0,0.0,0.0,0.0,0.0,0.0,0.0,0.0,0.0,-3.8319,-4.0466,-4.2066,-4.2668,-4.2795,-4.2621,-4.2103,-4.0848,-3.9356,-3.7714,0.0,0.0,0.0,0.0,0.0,0.0,0.0,0.0,0.0,0.0,0.0,0.0,0.0,0.0,0.0,0.0,0.0,0.0,0.0,0.0,0.0,0.0,0.0,0.0,0.0,0.0,0.0,0.0,0.0,0.0,0.0,0.0,0.0,0.0,0.0,0.0,0.0,0.0,0.0,0.0,0.0,0.0,0.0,0.0,0.0,0.0,0.0,0.0,0.0,0.0,0.0,0.0,0.0,0.0,0.0,0.0,0.0,0.0,0.0,0.0,0.0,0.0,0.0,0.0,0.0,0.0,0.0,0.0,0.0,0.0,0.0,0.0,0.0,0.0,0.0,0.0,0.0,0.0,0.0,0.0,0.0,0.0,0.0,0.0,0.0,0.0,0.0,0.0,0.0,0.0,0.0,0.0,0.0,0.0,0.0,0.0,0.0,0.0,0.0,0.0,0.0,0.0,-3.8262,-4.0292,-4.1823,-4.2526,-4.2292,-4.2032,-4.1815,-4.0652,-3.9261,-3.7802,0.0,0.0,0.0,0.0,0.0,0.0,0.0,0.0,0.0,0.0,0.0,0.0,0.0,0.0,0.0,0.0,0.0,0.0,0.0,0.0,0.0,0.0,0.0,0.0,0.0,0.0,0.0,0.0,0.0,0.0,0.0,0.0,0.0,0.0,0.0,0.0,0.0,0.0,0.0,0.0,0.0,0.0,0.0,0.0,0.0,0.0,0.0,0.0,0.0,0.0,0.0,0.0,0.0,0.0,0.0,0.0,0.0,0.0,0.0,0.0,0.0,0.0,0.0,0.0,0.0,0.0,0.0,0.0,0.0,0.0,0.0,0.0,0.0,0.0,0.0,0.0,0.0,0.0,0.0,0.0,0.0,0.0,0.0,0.0,0.0,0.0,0.0,0.0,0.0,0.0,0.0,0.0,0.0,0.0,0.0,0.0,0.0,0.0,0.0,0.0,0.0,0.0,-3.761,-4.0059,-4.1874,-4.2218,-4.1622,-4.1328,-4.1625,-4.0573,-3.9336,-3.7975,0.0,0.0,0.0,0.0,0.0,0.0,0.0,0.0,0.0,0.0,0.0,0.0,0.0,0.0,0.0,0.0,0.0,0.0,0.0,0.0,0.0,0.0,0.0,0.0,0.0,0.0,0.0,0.0,0.0,0.0,0.0,0.0,0.0,0.0,0.0,0.0,0.0,0.0,0.0,0.0,0.0,0.0,0.0,0.0,0.0,0.0,0.0,0.0,0.0,0.0,0.0,0.0,0.0,0.0,0.0,0.0,0.0,0.0,0.0,0.0,-4.1011,-4.0353,0.0,0.0,0.0,0.0,0.0,0.0,0.0,0.0,0.0,0.0,0.0,0.0,0.0,0.0,0.0,0.0,0.0,0.0,0.0,0.0,0.0,0.0,0.0,0.0,0.0,0.0,0.0,0.0,0.0,0.0,0.0,0.0,0.0,0.0,0.0,0.0,0.0,0.0,0.0,0.0,-3.8322,-3.9998,-4.1105,-4.122,-4.1213,-4.0978,-4.0525,-3.92,-3.822,-3.7923,-3.5197,0.0,0.0,0.0,0.0,0.0,0.0,0.0,0.0,0.0,0.0,0.0,0.0,0.0,0.0,0.0,0.0,0.0,0.0,0.0,0.0,0.0,0.0,0.0,0.0,0.0,0.0,0.0,0.0,0.0,0.0,0.0,0.0,0.0,0.0,0.0,0.0,0.0,0.0,0.0,0.0,0.0,0.0,0.0,0.0,0.0,0.0,0.0,0.0,0.0,0.0,0.0,0.0,0.0,0.0,0.0,0.0,0.0,0.0,0.0,-4.2509,-4.1788,0.0,0.0,0.0,0.0,0.0,0.0,0.0,0.0,0.0,0.0,0.0,0.0,0.0,0.0,0.0,0.0,0.0,0.0,0.0,0.0,0.0,0.0,0.0,0.0,0.0,0.0,0.0,0.0,0.0,0.0,0.0,0.0,0.0,0.0,0.0,0.0,0.0,0.0,0.0,0.0,-3.8156,-3.96,-4.0521,-4.0543,-4.0617,-3.9911,-3.8087,-3.7236,-3.6797,-3.6771,-3.3973,0.0,0.0,0.0,0.0,0.0,0.0,0.0,0.0,0.0,0.0,0.0,0.0,0.0,0.0,0.0,0.0,0.0,0.0,0.0,0.0,0.0,0.0,0.0,0.0,0.0,0.0,0.0,0.0,0.0,0.0,0.0,0.0,0.0,0.0,0.0,0.0,0.0,0.0,0.0,0.0,0.0,0.0,0.0,0.0,0.0,0.0,0.0,0.0,0.0,0.0,0.0,0.0,0.0,-4.5597,-4.5991,-4.5817,-4.5392,-4.5094,-4.4948,-4.4264,-4.3407,-4.2472,-4.2337,0.0,0.0,0.0,0.0,0.0,0.0,0.0,0.0,0.0,0.0,0.0,0.0,0.0,0.0,0.0,0.0,0.0,0.0,0.0,0.0,0.0,0.0,-3.7168,-3.9518,-3.845,-3.7451,-3.9512,0.0,0.0,0.0,0.0,0.0,0.0,0.0,0.0,0.0,0.0,0.0,-3.7705,-3.8935,-3.9698,-3.9862,-3.9757,-3.8824,-3.6596,-3.5907,-3.5585,-3.5605,-3.2459,-2.8677,0.0,0.0,0.0,0.0,0.0,0.0,0.0,0.0,0.0,0.0,0.0,0.0,0.0,0.0,0.0,0.0,0.0,0.0,0.0,0.0,0.0,0.0,0.0,0.0,0.0,0.0,0.0,0.0,0.0,0.0,0.0,0.0,-4.4281,-4.3722,0.0,0.0,0.0,0.0,0.0,0.0,0.0,0.0,0.0,0.0,0.0,0.0,0.0,-4.7077,-4.7589,-4.8084,-4.8254,-4.8084,-4.8375,-4.8192,-4.7581,-4.7479,-4.7124,-4.6532,-4.7031,0.0,-4.3217,-4.2557,0.0,0.0,0.0,0.0,0.0,0.0,0.0,0.0,0.0,0.0,0.0,0.0,0.0,0.0,0.0,0.0,0.0,0.0,0.0,0.0,0.0,0.0,-4.0303,-4.0146,-4.1201,-4.1747,-3.9869,-3.7499,-3.5822,-3.6362,-3.5975,-3.5553,0.0,0.0,0.0,0.0,0.0,0.0,-3.7785,-3.7991,-3.827,-3.8737,-3.8383,-3.8504,-3.9412,-3.7098,-3.5609,-3.559,-3.0863,-2.7768,-2.7082,-2.774,0.0,0.0,0.0,0.0,0.0,0.0,0.0,0.0,0.0,0.0,0.0,0.0,0.0,0.0,0.0,0.0,0.0,0.0,0.0,0.0,0.0,0.0,0.0,0.0,0.0,0.0,0.0,0.0,0.0,-4.4146,-4.5035,-4.3051,-4.387,-4.3516,0.0,0.0,0.0,0.0,0.0,0.0,0.0,0.0,0.0,-4.86,-4.9003,-4.9396,-4.9883,-4.9991,-4.9662,-4.8855,-4.895,-4.8832,-4.8528,-4.8528,-4.8342,-4.8054,-4.8392,-4.731,-4.5246,-4.4519,-4.3521,-4.2371,0.0,0.0,0.0,0.0,-4.1322,-4.1321,-4.1389,-4.1414,-4.1133,-3.9386,0.0,0.0,0.0,0.0,0.0,0.0,0.0,-3.8146,-3.8541,-3.8681,-3.8488,-3.7692,-3.9344,-4.0615,-3.8711,-3.7385,-3.6471,-3.6118,-3.6377,-3.6523,-3.6213,-3.609,0.0,0.0,0.0,-3.7157,-3.7148,-3.7498,-3.7535,-3.694,-3.7409,-3.7744,-3.7512,-3.3561,-3.1095,-3.1076,-2.8904,-2.7622,-2.7622,-2.7599,-2.7265,0.0,0.0,0.0,0.0,0.0,0.0,0.0,0.0,0.0,0.0,0.0,0.0,0.0,0.0,0.0,0.0,0.0,0.0,0.0,0.0,0.0,0.0,0.0,0.0,0.0,0.0,0.0,0.0,-4.5188,-4.599,-4.3002,-4.4831,-4.4901,0.0,0.0,0.0,0.0,0.0,0.0,-4.7977,-4.8977,-5.0141,-5.1371,-5.161,-5.1617,-5.1343,-5.1189,-5.0567,-4.9562,-4.9209,-4.9103,-4.9272,-4.9086,-4.89,-4.8731,-4.8731,-4.7885,-4.6481,-4.5923,-4.4807,-4.3352,-4.2591,-4.2286,-4.2286,-4.2286,-4.2286,-4.2371,-4.2694,-4.2841,-4.249,-4.0199,-3.9294,-3.8531,-3.5457,0.0,0.0,0.0,0.0,-3.7266,-3.8392,-3.774,-3.6596,-3.5685,-3.7129,-3.8394,-3.7193,-3.7073,-3.6873,-3.5726,-3.6261,-3.6797,-3.6396,-3.603,0.0,-3.7318,-3.7012,-3.6679,-3.6599,-3.6995,-3.6706,-3.5334,-3.6391,-3.6441,-3.4651,-3.0858,-2.8286,-2.7632,-2.7629,-2.7585,-2.7588,-2.762,-2.7141,-2.6147,0.0,0.0,0.0,0.0,0.0,0.0,0.0,0.0,0.0,0.0,0.0,0.0,0.0,0.0,0.0,0.0,0.0,0.0,0.0,0.0,0.0,0.0,0.0,0.0,0.0,0.0,0.0,0.0,0.0,-4.5333,-4.7771,0.0,0.0,0.0,0.0,-4.6015,-4.7464,-4.8974,-5.0523,-5.2094,-5.3004,-5.3096,-5.383,-5.3507,-5.2065,-5.1393,-5.1103,-5.1101,-4.9674,-4.9373,-5.0016,-4.9323,-4.8629,-4.797,-4.797,-4.7141,-4.5754,-4.572,-4.4807,-4.3352,-4.2591,-4.2286,-4.2286,-4.2286,-4.2286,-4.2179,-4.1521,-4.1295,-4.128,-4.0916,-4.0135,-3.8865,-3.6254,-3.547,0.0,0.0,-3.6932,-3.7807,-3.6184,-3.6253,-3.6571,-3.5703,-3.6256,-3.666,-3.5815,-3.6256,-3.6565,-3.5659,-3.5547,-3.5579,-3.5569,0.0,-3.6569,-3.6661,-3.6645,-3.663,-3.66,-3.6006,-3.5269,-3.4379,-3.5087,-3.4529,-3.1901,-3.1471,-3.0234,-2.7788,-2.7574,-2.7592,-2.7625,-2.761,-2.7563,-2.7476,-2.5941,0.0,0.0,0.0,0.0,0.0,0.0,0.0,0.0,0.0,0.0,0.0,0.0,0.0,0.0,0.0,0.0,0.0,0.0,0.0,0.0,0.0,0.0,0.0,0.0,0.0,0.0,0.0,0.0,-4.5453,-4.7841,0.0,-4.5143,-4.5782,-4.7009,-4.8533,-4.9661,-5.0838,-5.2258,-5.2868,-5.3235,-5.3253,-5.3525,-5.3248,-5.2302,-5.157,-5.0991,-5.0486,-4.9463,-4.89,-4.868,-4.8426,-4.7902,-4.7192,-4.7192,-4.6633,-4.5703,-4.5703,-4.5094,-4.4147,-4.3859,-4.3758,-4.3758,-4.3758,-4.3758,-4.3758,-4.3463,-4.3071,-4.2311,-4.0302,-3.8372,-3.6747,-3.5799,-3.5499,-3.5473,-3.5523,-3.5979,-3.6751,-3.774,-3.6984,-3.5881,-3.557,-3.5725,-3.5881,-3.557,-3.5725,-3.5836,-3.5568,-3.5842,-3.6013,-3.5579,-3.5733,-3.5894,-3.5894,-3.5501,-3.5379,-3.5834,-3.4916,-3.4262,-3.4397,-3.4286,-3.3668,-3.2437,-3.1081,-2.9971,-2.93,-2.8216,-2.7773,-2.8233,-2.7814,-2.7166,-2.6336,-2.5723,-2.5393,0.0,0.0,0.0,0.0,0.0,0.0,0.0,0.0,0.0,0.0,0.0,0.0,0.0,0.0,0.0,0.0,0.0,0.0,0.0,0.0,0.0,0.0,0.0,0.0,0.0,-4.6991,-4.7966,-4.5031,-4.717,-4.7967,-4.5469,-4.6191,-4.7694,-4.9855,-5.0759,-5.1738,-5.2873,-5.3149,-5.3193,-5.2974,-5.3171,-5.2761,-5.1598,-5.1081,-5.0334,-4.9357,-4.8612,-4.8003,-4.753,-4.753,-4.7141,-4.643,-4.643,-4.6007,-4.5331,-4.5331,-4.5026,-4.4587,-4.4587,-4.4587,-4.4587,-4.4587,-4.4418,-4.4147,-4.3893,-4.312,-4.1927,-3.9933,-3.7916,-3.6186,-3.5664,-3.5504,-3.5469,-3.5517,-3.5504,-3.5891,-3.7625,-3.6785,-3.5477,-3.5477,-3.5499,-3.5504,-3.5504,-3.5504,-3.5504,-3.5504,-3.5863,-3.6013,-3.5579,-3.5504,-3.5504,-3.5504,-3.4921,-3.4637,-3.51,-3.4188,-3.3574,-3.3784,-3.3623,-3.3185,-3.2406,-3.1031,-3.0283,-3.0332,-2.9041,-2.8353,-2.8592,-2.7934,-2.7156,-2.6288,-2.5586,-2.5198,-2.5209,0.0,0.0,0.0,0.0,0.0,0.0,0.0,0.0,0.0,0.0,0.0,0.0,0.0,0.0,0.0,0.0,0.0,0.0,0.0,0.0,0.0,0.0,0.0,-4.4653,-4.6169,-4.6531,-4.437,-4.5962,-4.6829,-4.5585,-4.6766,-4.8298,-5.0004,-5.0867,-5.1616,-5.231,-5.3057,-5.3069,-5.2307,-5.2888,-5.2175,-4.9998,-4.9961,-4.9236,-4.7868,-4.7141,-4.6786,-4.6752,-4.6752,-4.6363,-4.5669,-4.5669,-4.5246,-4.4536,-4.4536,-4.4536,-4.4502,-4.4553,-4.4587,-4.4587,-4.4553,-4.4045,-4.3267,-4.2523,-4.1318,-4.011,-3.9982,-3.895,-3.7437,-3.5918,-3.5489,-3.5474,-3.5474,-3.5561,-3.5615,-3.5615,-3.56,-3.5585,-3.5523,-3.5561,-3.5504,-3.5504,-3.5504,-3.5504,-3.5504,-3.5504,-3.5504,-3.5504,-3.5504,-3.5489,-3.5474,-3.4891,0.0,-3.4442,-3.3858,-3.32,-3.2587,-3.308,-3.2928,-3.1614,-3.1452,-3.1168,-3.0511,-2.9854,-2.9212,-2.8599,-2.7897,-2.7494,-2.7464,-2.5479,-2.4481,-2.4364,0.0,0.0,0.0,0.0,0.0,0.0,0.0,0.0,0.0,0.0,0.0,0.0,0.0,0.0,0.0,0.0,0.0,0.0,0.0,0.0,0.0,-4.3658,-4.5451,-4.6618,-4.7208,-4.7259,-4.6445,-4.6723,-4.7123,-4.7484,-4.7845,-4.8875,-5.075,-5.107,-5.1336,-5.154,-5.1737,-5.1693,-5.144,-5.1069,-5.0392,-4.9201,-4.8724,-4.7995,-4.7107,-4.6887,-4.6515,-4.6007,-4.6007,-4.5602,-4.4891,-4.4891,-4.4451,-4.3741,-4.3741,-4.3403,-4.3031,-4.4147,-4.4587,-4.4502,-4.3944,-4.325,-4.2489,-4.1762,-4.0866,-3.9907,-3.9185,-3.7714,-3.6061,-3.5608,-3.5477,-3.5474,-3.5474,-3.7076,-3.8836,-3.8836,-3.8291,-3.7539,-3.6753,-3.6446,-3.6165,-3.5619,-3.5504,-3.5504,-3.5504,-3.5504,-3.5504,-3.5504,-3.5504,-3.534,-3.4831,-3.4188,-3.3769,-3.3769,-3.2781,-3.2183,-3.2482,-3.2242,-3.1912,-3.1554,-3.0411,-2.9871,-3.0352,-2.8311,-2.7258,-2.7583,-2.6565,-2.5576,-2.4736,-2.4535,-2.4243,0.0,0.0,0.0,0.0,0.0,0.0,0.0,0.0,0.0,0.0,0.0,0.0,0.0,0.0,0.0,0.0,0.0,0.0,0.0,0.0,0.0,0.0,-4.3666,-4.5541,-4.6445,-4.6863,-4.6839,-4.6275,-4.5726,-4.5727,-4.6776,-4.7203,-4.8048,-4.9575,-5.0079,-5.0272,-5.0283,-5.0309,-5.042,-5.0626,-4.9928,-4.9323,-4.8872,-4.7928,-4.705,-4.6329,-4.5686,-4.5162,-4.4739,-4.4418,-4.4028,-4.3623,-4.3623,-4.3369,-4.2946,-4.2946,-4.2692,-4.2388,0.0,0.0,0.0,0.0,-4.2219,-4.1728,-4.1001,-4.0144,-3.9397,-3.929,-3.7546,-3.5475,-3.5492,-3.5493,-3.5763,-3.7068,-3.8727,-4.0097,-4.0097,-3.917,-3.8062,-3.7203,-3.6538,-3.5991,-3.5619,-3.528,-3.507,-3.507,-3.507,0.0,-3.507,-3.531,-3.5265,-3.4577,-3.3918,-3.3257,-3.2623,-3.1648,-3.1176,-3.1544,-3.1529,-3.1367,-3.1058,-2.9746,0.0,0.0,0.0,-2.6927,-2.6775,-2.5909,0.0,0.0,0.0,-2.4204,-2.3879,-2.4543,0.0,0.0,-2.5268,-2.6375,0.0,0.0,0.0,0.0,0.0,0.0,0.0,0.0,0.0,0.0,0.0,0.0,0.0,0.0,0.0,0.0,-4.3417,-4.4804,-4.4934,-4.541,-4.5556,-4.4747,-4.3805,-4.3587,-4.4613,-4.5507,-4.6512,-4.7506,-4.845,-4.9001,-4.9001,-4.9001,0.0,0.0,0.0,-4.8782,-4.8751,-4.7348,-4.6261,-4.5568,-4.4113,-4.342,-4.3386,-4.2642,-4.2286,-4.2286,-4.2286,-4.2236,-4.2168,-4.2168,-4.2117,-4.2049,-4.2236,-4.2236,-4.21,-4.1441,-4.1153,-4.0984,-4.0307,0.0,0.0,-3.9806,-3.8267,-3.6032,-3.6038,-3.6022,-3.6568,-3.9349,-4.0077,-4.008,-4.0076,-3.8988,-3.771,-3.715,-3.6276,-3.5619,-3.5504,-3.5026,-3.4562,-3.4487,-3.4472,-3.4472,-3.4345,-3.4897,-3.5091,-3.4345,-3.3657,-3.2679,-3.1147,-3.0463,-3.0133,-3.0133,-3.0984,0.0,-3.0219,-2.9275,-2.8771,-2.8876,-2.8056,-2.7121,-2.6004,-2.5433,-2.5078,-2.5079,-2.4416,-2.4045,-2.3979,-2.3815,-2.3514,-2.3163,-2.4965,-2.5949,0.0,0.0,0.0,0.0,0.0,0.0,0.0,0.0,0.0,0.0,0.0,0.0,0.0,0.0,0.0,-4.0496,-4.1896,-4.2832,-4.32,-4.3388,-4.3613,-4.3956,-4.3183,-4.2985,-4.3886,-4.4851,-4.5995,-4.7473,-4.845,-4.9001,-4.9001,-4.9001,-4.9316,-4.9976,-4.8744,-4.8059,-4.7989,-4.661,-4.5535,-4.479,-4.3859,0.0,-4.3386,-4.2642,-4.2286,-4.2286,-4.2286,-4.1965,-4.1407,-4.1407,-4.1052,-4.0629,-4.183,-4.1931,-4.1407,-4.1255,-4.0815,-4.0273,-4.0121,-3.9986,-3.9833,-4.0017,-3.9714,-3.9188,-3.9219,-3.9226,0.0,-3.9963,-4.0091,-4.0103,-4.0101,-3.9308,-3.8228,-3.7207,-3.6677,-3.6212,-3.5619,-3.54,-3.5145,-3.4577,-3.4472,-3.4267,-3.3463,-3.3906,-3.3935,-3.2838,-3.1889,-3.0858,-2.9561,-2.9324,-2.9254,-2.9254,-3.0594,-3.0891,-2.9387,-2.7887,-2.7275,-2.7907,-2.6324,-2.5103,-2.4425,-2.3837,-2.3313,-2.2924,-2.275,-2.2464,-2.202,-2.1977,-2.2372,-2.3103,-2.4406,-2.481,0.0,0.0,0.0,0.0,0.0,0.0,0.0,0.0,0.0,0.0,0.0,-3.5635,-3.6186,0.0,-3.7883,-3.893,-4.0388,-4.1315,-4.1102,-4.1702,-4.2251,-4.2587,-4.2229,-4.2077,-4.2558,-4.3859,-4.5114,-4.6299,-4.7691,-4.846,-4.846,-4.846,-4.8601,-4.8907,-4.7534,-4.6971,-4.7245,-4.5828,-4.4942,-4.457,-4.3403,-4.2861,-4.2811,-4.1694,-4.1187,-4.1187,-4.1187,-4.0984,-4.0646,-4.0646,-4.0409,-4.0155,-4.0899,-4.0967,-4.0646,-4.0646,-4.0409,-4.007,-4.007,-4.007,-4.0121,-4.0101,-4.0081,-4.0077,-4.0106,-4.0109,-4.0096,-4.008,-4.0124,-4.0096,-4.008,-3.856,-3.7017,-3.6984,-3.6522,-3.5943,-3.5554,-3.5235,-3.4786,-3.4113,-3.3978,-3.3609,-3.2327,-3.225,-3.2182,-3.1561,-3.1065,-3.0237,-2.8576,-2.8363,-2.839,-2.8522,-2.8833,-2.8901,-2.8563,-2.7274,-2.6518,-2.6657,-2.5521,-2.4569,-2.4017,-2.3175,-2.2585,-2.2322,-2.2046,-2.1757,-2.1493,-2.1493,-2.192,-2.2736,-2.3025,-2.3602,0.0,0.0,0.0,0.0,0.0,0.0,0.0,-3.7214,-3.5967,-3.6597,-3.6007,-3.5599,-3.6321,-3.6975,-3.7335,-3.7403,-3.8769,-3.9703,-3.9062,-3.9891,-4.0546,-4.0801,-4.104,-4.119,-4.119,-4.2817,-4.4237,-4.5138,-4.6872,-4.7919,-4.7919,-4.7919,-4.7826,-4.7596,-4.6385,-4.5993,-4.6477,-4.5073,-4.435,-4.4333,-4.2811,-4.2083,-4.2033,-4.0696,-4.007,-4.007,-3.9952,-3.985,-3.985,-3.985,-3.9952,-4.007,-4.007,-4.007,-4.007,-4.007,-4.007,-4.007,-4.007,-4.007,-4.007,-4.007,-4.007,-4.0121,-4.0104,-3.9671,-3.9343,-3.9922,-4.0078,-3.9941,-3.9335,-3.7356,-3.5707,-3.6507,-3.6006,-3.5275,-3.5249,-3.4679,-3.401,-3.3155,-3.296,-3.2474,-3.0934,-3.0568,-3.0487,-3.0377,-3.0228,-2.9511,-2.7681,-2.7484,-2.7471,-2.7577,-2.6857,-2.6578,-2.7315,-2.6624,-2.5937,-2.5473,-2.4958,-2.4456,-2.4017,-2.2912,-2.2309,-2.2309,-2.1656,-2.133,-2.133,-2.1217,-2.1443,-2.1983,-2.1543,-2.246,-4.3634,-4.1779,-4.0184,-3.9651,-3.9381,-3.9517,0.0,-3.9337,-3.8253,-3.8328,-3.7319,-3.6244,-3.5695,-3.5688,-3.5959,-3.6556,-3.6857,-3.7121,-3.7554,-3.7417,-3.7638,-3.8635,-3.9783,-4.0502,-4.0502,-4.2153,-4.376,-4.5106,-4.6872,-4.7919,-4.7919,-4.7919,-4.7623,-4.6903,-4.6133,-4.576,-4.5784,-4.4321,-4.3538,-4.3538,-4.2033,-4.1322,-4.1305,-4.046,-4.007,-4.007,-3.9315,-3.9016,-3.9016,-3.9016,-3.9437,-4.007,-4.007,-4.007,-4.007,-4.007,-4.007,-4.007,-4.007,-4.007,-4.007,-4.007,-4.007,-4.0121,-4.0104,-3.8204,-3.6621,-3.9316,-4.0116,-3.9486,-3.6761,-3.5753,-3.5522,-3.5642,-3.5105,-3.4535,-3.4263,-3.37,-3.2867,-3.1391,-3.1065,-3.0591,-2.904,-2.9249,-2.9419,-2.897,-2.8231,-2.7411,-2.6734,-2.6658,-2.6468,-2.5949,-2.5649,-2.5265,-2.4716,-2.4856,-2.4971,-2.4908,-2.4393,-2.4067,-2.4004,-2.2912,-2.2309,-2.2309,-2.1292,-2.0806,-2.0806,-2.0238,-2.0288,-2.0907,-2.0844,-2.1681,-4.3003,-4.1849,-4.1009,-4.1345,-4.0524,-3.9904,-4.0854,-3.9242,-3.7616,-3.8042,-3.6977,-3.5894,-3.5554,-3.5504,-3.5594,-3.5863,-3.5777,-3.5864,-3.6438,-3.6241,-3.6471,-3.793,-3.9387,-4.054,-4.1179,-4.2407,-4.3811,-4.5294,-4.6185,-4.6633,-4.6633,-4.6633,-4.6278,-4.5534,-4.5213,-4.484,-4.4384,-4.3741,-4.32,-4.276,-4.1711,-4.1204,-4.1187,-3.9945,-3.9156,-3.8723,-3.843,-3.8246,-3.8246,-3.8246,-3.8707,-3.9368,-3.9368,-3.9662,-4.007,-4.007,-4.007,-4.007,-4.007,-4.007,-4.0121,-4.01,-4.0103,-4.0121,-4.0128,-3.7943,-3.5748,-3.7086,-3.7451,-3.7107,-3.5809,-3.4896,-3.4358,-3.4322,-3.3706,-3.3083,-3.3006,-3.2388,-3.1555,-3.053,-3.0339,-2.9816,-2.8305,-2.8223,-2.8179,-2.755,-2.7614,-2.7444,-2.6647,-2.6533,-2.612,-2.5207,-2.4884,-2.4598,-2.4208,-2.4603,-2.4476,-2.3615,-2.3384,-2.2781,-2.1634,-2.126,-2.0961,-2.0714,-2.0337,-2.0162,-2.0162,-1.9924,-2.01,-2.0652,-1.9875,-2.0251,-4.1824,-4.1323,-4.1172,-4.2132,-4.1105,-3.9997,-4.0441,-3.8745,-3.7068,-3.7404,-3.643,-3.5504,-3.5504,-3.5504,-3.5484,-3.5385,-3.4971,-3.4922,-3.538,-3.5269,-3.5835,-3.7649,-3.9458,-4.1168,-4.269,-4.3296,-4.4196,-4.5676,-4.5747,-4.5788,-4.5991,-4.5821,-4.5348,-4.4604,-4.4367,-4.3995,-4.342,-4.3014,-4.254,-4.1982,-4.1255,-4.0779,-4.052,-3.9226,-3.8189,-3.7456,-3.7456,-3.7456,-3.7456,-3.7456,-3.8019,-3.8908,-3.8908,-3.9251,-3.9783,-3.9783,-3.9935,-4.0069,-3.9766,-3.9884,-4.0121,-4.0117,-3.9545,-3.9008,-3.9863,-3.8532,-3.662,-3.5729,-3.5474,-3.5506,-3.5475,-3.4226,-3.2915,-3.2971,-3.2401,-3.1925,-3.184,-3.0992,-3.0091,-2.9496,-2.9348,-2.8933,-2.7585,-2.7369,-2.7173,-2.6602,-2.7013,-2.7174,-2.659,-2.6307,-2.5774,-2.4682,-2.4149,-2.3801,-2.3597,-2.3836,-2.3457,-2.2204,-2.2116,-2.1452,-1.9935,-1.9909,-1.9703,-1.9312,-1.9124,-1.9056,-1.9202,-1.9056,-1.9328,-1.9799,-1.8851,-1.8928,-4.0183,-3.9999,-4.003,-4.0753,-4.0531,-3.9868,-3.9156,-3.8374,-3.7541,-3.6783,-3.6054,-3.5504,-3.5504,-3.5504,-3.5355,-3.4961,-3.439,-3.4127,-3.4353,-3.4369,-3.5342,-3.7797,-4.0063,-4.2521,-4.5156,-4.4739,-4.4983,-4.6434,-4.6049,-4.6007,-4.6718,-4.6092,-4.5348,-4.4604,-4.3842,-4.3436,-4.342,-4.1982,-4.1271,-4.1221,-4.0476,-3.9696,-3.8941,-3.8149,-3.7397,-3.6676,-3.6676,-3.6676,-3.6676,-3.6676,-3.7526,-3.8908,-3.8908,-3.8952,-3.9022,-3.9022,-3.9476,-3.9963,-3.8988,-3.9257,-4.0082,-4.0099,-3.8103,-3.622,-3.9189,-4.0043,-3.9347,-3.636,-3.5476,-3.5519,-3.5474,-3.3523,-3.1533,-3.1594,-3.1424,-3.116,-3.0926,-2.9659,-2.8415,-2.7793,-2.7678,-2.7448,-2.6677,-2.6516,-2.6493,-2.653,-2.6048,-2.5846,-2.6427,-2.5873,-2.509,-2.4117,-2.3466,-2.28,-2.2049,-2.1987,-2.16,-2.0741,-2.0677,-2.0441,-1.9924,-1.943,-1.8946,-1.852,-1.7594,-1.728,-1.7688,-1.7269,-1.7292,-1.771,-1.7633,-1.7969,-3.8743,-3.8807,-3.9168,-3.9933,-3.9723,-3.9218,-3.8943,-3.8316,-3.7573,-3.6798,-3.4919,-3.3755,-3.4663,-3.4046,-3.3623,-3.4185,-3.3875,-3.3702,-3.3882,-3.3684,-3.4352,-3.6584,-3.9773,-4.2509,-4.4461,-4.5483,-4.6428,-4.7418,-4.6338,-4.5821,-4.6058,-4.5365,-4.484,-4.4587,-4.3826,-4.3183,-4.2675,-4.1694,-4.095,-4.046,-4.0206,-3.9437,-3.8133,-3.7921,-3.7115,-3.5894,-3.5894,-3.5894,-3.5894,-3.5894,-3.6753,-3.8101,-3.7616,-3.8068,-3.8937,-3.8447,-3.8173,-3.8082,-3.7708,-3.8248,-3.9208,-3.9885,-3.9378,-3.8757,-3.9764,-3.7437,-3.459,-3.5471,-3.5603,-3.5097,-3.3276,-3.2167,-3.1485,-3.1486,-3.0884,-3.0143,-2.9725,-2.8346,-2.7118,-2.6905,-2.6897,-2.6822,-2.6522,-2.542,-2.4503,-2.4515,-2.4761,-2.5119,-2.5714,-2.4234,-2.3221,-2.3392,-2.198,-2.1087,-2.1415,-2.0915,-2.0223,-1.9339,-1.9576,-1.9147,-1.7821,-1.8059,-1.7755,-1.6763,-1.6913,-1.6942,-1.6785,-1.6678,-1.6796,-1.7216,-1.671,-1.6697,-3.7945,-3.8151,-3.847,-3.9247,-3.8794,-3.8137,-3.8097,-3.7568,-3.6707,-3.5613,-3.4211,-3.3279,-3.3613,-3.3353,-3.3237,-3.3377,-3.3225,-3.3173,-3.3424,-3.3219,-3.4088,-3.6986,-4.0199,-4.2937,-4.4865,-4.6612,-4.7784,-4.8274,-4.6938,-4.6092,-4.6092,-4.5382,-4.4739,-4.4181,-4.342,-4.2658,-4.1914,-4.117,-4.0561,-4.007,-3.9782,-3.8995,-3.7806,-3.7515,-3.6707,-3.5504,-3.5504,-3.5504,-3.5504,-3.5504,-3.623,-3.739,-3.6869,-3.7331,-3.8142,-3.7686,-3.714,-3.6615,-3.6882,-3.7455,-3.8195,-3.9042,-3.9681,-4.0086,-4.0081,-3.7521,-3.4514,-3.4312,-3.567,-3.6463,-3.3649,-3.2228,-3.1338,-3.0734,-3.0172,-2.9603,-2.8871,-2.751,-2.6502,-2.6489,-2.6491,-2.6056,-2.4606,-2.3287,-2.2489,-2.2489,-2.2821,-2.3239,-2.363,-2.2399,-2.1688,-2.2194,-2.0991,-2.0166,-2.0232,-1.9883,-1.9222,-1.8253,-1.8598,-1.8193,-1.6768,-1.7149,-1.6797,-1.555,-1.5785,-1.5913,-1.5836,-1.5663,-1.5848,-1.6417,-1.5922,-1.5864,-3.7721,-3.7816,-3.788,-3.8471,-3.7692,-3.6726,-3.6582,-3.6027,-3.511,-3.3557,-3.3814,-3.3877,-3.2469,-3.3431,-3.3965,-3.2721,-3.2674,-3.2887,-3.317,-3.3222,-3.4657,-3.8703,-4.1234,-4.3643,-4.6127,-4.7998,-4.9001,-4.9001,-4.7665,-4.6836,-4.6786,-4.6109,-4.4993,-4.347,-4.2675,-4.1948,-4.1221,-4.046,-4.007,-4.007,-3.9262,-3.8525,-3.7764,-3.6964,-3.6228,-3.5504,-3.5504,-3.5504,-3.5504,-3.5504,-3.5984,-3.6741,-3.6662,-3.6705,-3.6823,-3.6755,-3.6265,-3.5723,-3.6468,-3.6903,-3.7233,-3.7648,-3.8828,-4.0055,-3.9918,-3.9783,-3.8567,-3.3183,-3.5565,-3.8983,-3.6072,-3.3376,-3.1115,-2.9511,-2.951,-2.9595,-2.8423,-2.7278,-2.6521,-2.6507,-2.6331,-2.4954,-2.0923,-2.0245,-2.0362,-2.0469,-2.0459,-2.0486,-2.061,-2.0589,-2.0547,-2.0604,-2.0504,-1.9909,-1.867,-1.894,-1.8695,-1.7439,-1.7764,-1.7627,-1.6768,-1.6665,-1.6103,-1.4775,-1.4346,-1.4316,-1.4687,-1.4297,-1.4476,-1.5342,-1.5371,-1.5391,-3.5882,-3.6356,-3.6637,-3.5149,-3.5419,-3.5657,-3.4482,-3.4607,-3.4645,-3.3647,-3.2367,-3.1672,-3.2315,-3.2691,-3.297,-3.2963,-3.4204,-3.4995,-3.435,-3.5409,-3.6619,-3.7507,-4.1367,-4.4141,-4.475,-4.7331,-4.9001,-4.9001,-4.8156,-4.7394,-4.6819,-4.6109,-4.4993,-4.347,-4.2675,-4.1948,-4.1221,-4.046,-4.007,-4.007,-3.9262,-3.8525,-3.7764,-3.6964,-3.6228,-3.5504,-3.5504,-3.5504,-3.5504,-3.5504,-3.6276,-3.738,-3.6286,-3.6591,-3.7483,-3.6332,-3.5791,-3.5639,-3.5842,-3.6678,-3.7517,-3.6523,-3.7976,-3.9703,-3.7448,-3.5344,-3.381,-3.4416,-3.4202,-3.3525,-3.2728,-3.2,-3.1395,-3.0966,-3.096,-3.0651,-2.9089,-2.7601,-2.647,-2.6485,-2.415,-2.0722,-1.6477,-1.5779,-1.6499,-1.8646,-1.8605,-1.8901,-2.0419,-2.0012,-1.9895,-2.0551,-1.9189,-1.8178,-1.8144,-1.7978,-1.7605,-1.6924,-1.7598,-1.7627,-1.6768,-1.6665,-1.5967,-1.4336,-1.4136,-1.3877,-1.3369,-1.3564,-1.3945,-1.4463,-1.4795,-1.5107,-3.5273,-3.5383,-3.5322,-3.3442,-3.363,-3.3928,-3.2772,-3.3157,-3.3349,-3.186,-3.1419,-3.1456,-3.1856,-3.2716,-3.3463,-3.3899,-3.4985,-3.5884,-3.6194,-3.6234,-3.6966,-3.8979,-4.1535,-4.3663,-4.5095,-4.7212,-4.8663,-4.8984,-4.8629,-4.7919,-4.6853,-4.6413,-4.5179,-4.2997,-4.2523,-4.1779,-4.073,-4.029,-3.9901,-3.9558,-3.9139,-3.8342,-3.7279,-3.6798,-3.6228,-3.5504,-3.5504,-3.5504,-3.5489,-3.5175,-3.5554,-3.6253,-3.5458,-3.5701,-3.6363,-3.5836,-3.5622,-3.5622,-3.5622,-3.6158,-3.6775,-3.5886,-3.673,-3.7829,-3.6135,-3.4526,-3.3356,-3.3743,-3.2725,-3.1511,-3.1515,-3.1501,-3.1471,-3.1474,-3.1489,-3.083,-2.8449,-2.7189,-2.596,-2.4246,-2.0542,-1.6985,-1.4482,-1.4605,-1.5599,-1.7224,-1.7856,-1.8497,-1.9224,-1.9164,-1.9083,-1.9449,-1.8203,-1.7471,-1.7714,-1.7308,-1.6867,-1.6392,-1.7004,-1.7031,-1.6147,-1.6336,-1.5801,-1.4443,-1.4424,-1.4092,-1.3437,-1.3857,-1.4189,-1.4434,-1.4863,-1.5186,-3.5151,-3.4658,-3.3962,-3.2488,-3.2264,-3.216,-3.1303,-3.1754,-3.1767,-2.9699,-3.0991,-3.2285,-3.158,-3.3276,-3.4889,-3.5299,-3.5754,-3.6598,-3.8226,-3.703,-3.7459,-4.1281,-4.2099,-4.3377,-4.6126,-4.7395,-4.8325,-4.8951,-4.8776,-4.8118,-4.687,-4.6786,-4.5415,-4.2388,-4.21,-4.1373,-4.0087,-4.0003,-3.961,-3.8908,-3.8674,-3.7873,-3.6615,-3.6492,-3.6117,-3.5504,-3.5504,-3.5504,-3.5444,-3.4756,-3.4577,-3.4616,-3.451,-3.4565,-3.482,-3.5287,-3.5515,-3.5622,-3.5622,-3.5605,-3.5588,-3.5605,-3.5572,-3.5528,-3.5163,-3.5,-3.4565,-3.2604,-3.1794,-3.1471,-3.1513,-3.1197,-3.0845,-3.0844,-3.087,-3.0038,-2.7105,-2.6056,-2.4725,-2.1267,-1.7189,-1.4323,-1.4198,-1.5235,-1.6055,-1.6188,-1.7535,-1.8355,-1.7809,-1.8288,-1.8545,-1.8057,-1.7686,-1.7451,-1.7393,-1.709,-1.6615,-1.5945,-1.6337,-1.6249,-1.5321,-1.5713,-1.5595,-1.4805,-1.4785,-1.457,-1.4077,-1.457,-1.4785,-1.4795,-1.5215,-1.541,-3.4257,-3.3584,-3.239,-3.0516,-3.1262,-3.197,-3.0046,-3.0642,-3.1353,-3.0283,-3.1394,-3.2561,-3.2422,-3.4554,-3.6409,-3.6597,-3.8674,-4.0127,-3.9886,-4.1548,-4.2319,-4.1219,-4.4338,-4.6323,-4.5758,-4.7608,-4.8866,-4.8984,-4.7738,-4.6941,-4.6836,-4.6786,-4.5415,-4.2388,-4.1102,-4.0341,-4.007,-3.9437,-3.9032,-3.8908,-3.7584,-3.6843,-3.6615,-3.5943,-3.5619,-3.5504,-3.5504,-3.5504,-3.5444,-3.4756,-3.485,-3.5282,-3.4141,-3.4436,-3.5465,-3.4967,-3.5098,-3.5622,-3.5622,-3.561,-3.5623,-3.5616,-3.5572,-3.5168,-3.2923,-3.2175,-3.2567,-3.4318,-3.3185,-3.1467,-3.1474,-2.9429,-2.7404,-2.7394,-2.7403,-2.7186,-2.6602,-2.397,-2.1425,-2.0726,-1.7848,-1.5397,-1.4965,-1.5162,-1.5569,-1.6007,-1.6103,-1.6509,-1.7574,-1.8543,-1.8877,-1.8086,-1.7949,-1.7764,-1.7412,-1.7627,-1.7235,-1.5981,-1.6108,-1.5926,-1.5339,-1.5204,-1.499,-1.4805,-1.4785,-1.457,-1.4077,-1.457,-1.4785,-1.4795,-1.5215,-1.541,-3.425,-3.2864,-3.1166,-3.0211,-3.0367,-3.0492,-2.9507,-3.011,-3.0675,-3.0015,-3.1294,-3.2772,-3.3383,-3.5485,-3.7394,-3.8149,-3.9486,-4.0677,-4.1294,-4.2193,-4.2834,-4.3077,-4.5101,-4.6546,-4.6703,-4.7743,-4.8225,-4.7801,-4.7338,-4.6794,-4.6152,-4.4257,-4.2725,-4.1672,-4.0204,-3.9489,-3.9489,-3.9086,-3.8509,-3.77,-3.6948,-3.6384,-3.6006,-3.5668,-3.5504,-3.5504,-3.5504,-3.5504,-3.5429,-3.4397,-3.418,-3.4379,-3.3424,-3.3457,-3.4114,-3.4464,-3.4783,-3.5094,-3.5015,-3.5284,-3.5476,-3.4723,-3.4971,-3.5103,-3.2307,-3.1494,-3.175,-3.3043,-3.1219,-2.8927,-2.8926,-2.7696,-2.6473,-2.6488,-2.4897,-2.3397,-2.3408,-2.2653,-2.0936,-1.7809,-1.6255,-1.5219,-1.4608,-1.472,-1.4891,-1.5071,-1.5391,-1.5769,-1.6296,-1.7601,-1.837,-1.8027,-1.7812,-1.7686,-1.7705,-1.7064,-1.6264,-1.5575,-1.5437,-1.5109,-1.4607,-1.4941,-1.5164,-1.5117,-1.5107,-1.4902,-1.4473,-1.4902,-1.5,-1.4805,-1.5449,-1.6039,-3.4724,-3.2952,-3.094,-3.0704,-3.0151,-2.9595,-2.954,-2.9886,-3.023,-2.9871,-3.1425,-3.3187,-3.4314,-3.6173,-3.7937,-3.9227,-3.9946,-4.0783,-4.2342,-4.262,-4.3284,-4.5128,-4.6029,-4.6891,-4.8044,-4.7939,-4.7591,-4.6935,-4.6749,-4.6192,-4.5273,-4.1967,-4.0307,-4.072,-3.9555,-3.8799,-3.869,-3.8509,-3.7815,-3.6615,-3.6446,-3.6054,-3.5504,-3.5504,-3.5504,-3.5504,-3.5504,-3.5504,-3.5415,-3.4203,-3.3709,-3.3636,-3.2852,-3.2653,-3.2921,-3.3673,-3.4056,-3.4151,-3.3968,-3.4437,-3.4914,-3.3452,-3.3761,-3.4307,-3.2133,-3.0968,-3.043,-3.0397,-2.8515,-2.6518,-2.6493,-2.6483,-2.6268,-2.5421,-2.287,-2.0619,-2.0615,-2.0941,-1.977,-1.4986,-1.4583,-1.4829,-1.4307,-1.4421,-1.4516,-1.4222,-1.4909,-1.5343,-1.5109,-1.6398,-1.7432,-1.7729,-1.7629,-1.7656,-1.7978,-1.6485,-1.5566,-1.5475,-1.495,-1.4435,-1.4205,-1.4812,-1.5235,-1.541,-1.541,-1.5244,-1.4922,-1.5254,-1.5244,-1.4932,-1.593,-1.6757,-3.5558,-3.432,-3.272,-3.173,-3.1271,-3.0863,-3.0351,-3.0242,-3.0466,-3.1025,-3.2416,-3.3889,-3.5098,-3.6505,-3.7964,-3.9457,-4.0865,-4.2041,-4.2685,-4.537,-4.7018,-4.6191,-4.8216,-4.948,-4.8968,-4.8125,-4.765,-4.7754,-4.5142,-4.3732,-4.4212,-4.2106,-4.0603,-4.0007,-3.9259,-3.858,-3.7921,-3.7203,-3.6722,-3.66,-3.5958,-3.5569,-3.5504,-3.5504,-3.5504,-3.5504,-3.5504,-3.5504,-3.5444,-3.4696,-3.4382,-3.4247,-3.2991,-3.2889,-3.3315,-3.2266,-3.225,-3.269,-3.2079,-3.2621,-3.3409,-3.2173,-3.1839,-3.1829,-3.1557,-2.9395,-2.6955,-2.6972,-2.6732,-2.6496,-2.6515,-2.6518,-2.5621,-2.2019,-2.0857,-2.0605,-2.0628,-1.7588,-1.4789,-1.4166,-1.4412,-1.4699,-1.4636,-1.4811,-1.4823,-1.4522,-1.4562,-1.4689,-1.5065,-1.5693,-1.6388,-1.7027,-1.7631,-1.7969,-1.8008,-1.7073,-1.6486,-1.6489,-1.4992,-1.4442,-1.5118,-1.4628,-1.4628,-1.541,-1.541,-1.5391,-1.5352,-1.5391,-1.5391,-1.5371,-1.6698,-1.7328,-3.7065,-3.5793,-3.4155,-3.3547,-3.1728,-3.0324,-3.1352,-3.0925,-3.0639,-3.1825,-3.324,-3.451,-3.5608,-3.7026,-3.8374,-3.9361,-4.0033,-4.0578,-4.0951,-4.2567,-4.4009,-4.4693,-4.6136,-4.7373,-4.7861,-4.6822,-4.5807,-4.4911,-4.2338,-4.114,-4.1832,-4.0303,-3.9121,-3.8544,-3.8267,-3.7777,-3.7084,-3.6737,-3.6384,-3.5943,-3.5604,-3.5504,-3.5504,-3.5504,-3.5504,-3.5504,-3.5504,-3.5504,-3.5444,-3.4756,-3.4247,-3.3784,-3.2871,-3.2434,-3.227,-3.2222,-3.2133,-3.1958,-3.1629,-3.1534,-3.139,-3.0545,-2.9161,-2.7971,-2.8864,-2.6955,-2.4747,-2.6101,-2.4785,-2.2977,-2.2977,-2.2927,-2.2529,-2.0936,-2.0624,-1.9919,-1.7279,-1.5319,-1.4223,-1.4562,-1.4771,-1.4903,-1.4836,-1.5127,-1.4876,-1.368,-1.4067,-1.4269,-1.3484,-1.4468,-1.5502,-1.6338,-1.7398,-1.8008,-1.8008,-1.7139,-1.6636,-1.6636,-1.5698,-1.5235,-1.533,-1.5297,-1.5377,-1.542,-1.541,-1.541,-1.541,-1.5864,-1.5806,-1.543,-1.7461,-1.817,-3.8726,-3.7802,-3.6578,-3.5959,-3.3271,-3.1222,-3.3038,-3.1962,-3.1128,-3.3118,-3.426,-3.5238,-3.6327,-3.758,-3.8556,-3.8796,-3.9012,-3.9295,-3.9654,-4.0688,-4.1962,-4.365,-4.4645,-4.5683,-4.6829,-4.5661,-4.4278,-4.2854,-4.0949,-3.9914,-4.0187,-3.9028,-3.8129,-3.7529,-3.7419,-3.6971,-3.6275,-3.6275,-3.6006,-3.5504,-3.5504,-3.5504,-3.5504,-3.5504,-3.5504,-3.5504,-3.5504,-3.5504,-3.5474,-3.4981,-3.4502,-3.4008,-3.314,-3.2527,-3.2092,-3.2028,-3.1658,-3.1259,-3.1013,-3.0479,-2.9715,-2.8727,-2.6953,-2.5356,-2.6079,-2.5032,-2.3767,-2.4562,-2.2778,-2.0571,-2.0567,-2.0562,-2.0284,-1.8993,-1.8672,-1.787,-1.4789,-1.4336,-1.4689,-1.5171,-1.5159,-1.4929,-1.4372,-1.4566,-1.4189,-1.2523,-1.3221,-1.3548,-1.2555,-1.3959,-1.525,-1.5924,-1.7197,-1.8008,-1.8008,-1.726,-1.6842,-1.7001,-1.6442,-1.6039,-1.5919,-1.6038,-1.5918,-1.5615,-1.5478,-1.5526,-1.5748,-1.6036,-1.6107,-1.5968,-1.7905,-1.8796,-4.0463,-4.0533,-4.0402,-3.9025,-3.6389,-3.445,-3.5438,-3.3338,-3.2055,-3.5069,-3.5663,-3.6037,-3.7231,-3.8088,-3.8377,-3.7618,-3.8113,-3.8838,-3.9526,-4.102,-4.2553,-4.3753,-4.4754,-4.5544,-4.6282,-4.501,-4.3717,-4.2767,-4.1481,-4.0396,-3.973,-3.8849,-3.8078,-3.7419,-3.6901,-3.6228,-3.5504,-3.5504,-3.5504,-3.5504,-3.5504,-3.5504,-3.5504,-3.5504,-3.5504,-3.5504,-3.5504,-3.5504,-3.5504,-3.5489,-3.5489,-3.5355,-3.4008,-3.3484,-3.323,-3.124,-3.0507,-3.0417,-2.9843,-2.9292,-2.8636,-2.6728,-2.555,-2.458,-2.3482,-2.3933,-2.423,-2.145,-2.0636,-2.0605,-2.0603,-2.0591,-1.9519,-1.5168,-1.4138,-1.4166,-1.4083,-1.4958,-1.5814,-1.5821,-1.5471,-1.4694,-1.3001,-1.2916,-1.2558,-1.1263,-1.1986,-1.2633,-1.2633,-1.4557,-1.6,-1.6,-1.7197,-1.8008,-1.8008,-1.753,-1.7444,-1.7959,-1.7139,-1.6816,-1.7393,-1.6533,-1.6125,-1.6115,-1.5635,-1.5748,-1.6492,-1.5748,-1.6036,-1.7193,-1.7775,-1.8908,-4.0631,-4.0471,-4.0039,-3.8971,-3.6113,-3.3844,-3.5114,-3.4071,-3.3388,-3.5317,-3.652,-3.7418,-3.8129,-3.8434,-3.8504,-3.8278,-3.837,-3.8132,-3.7273,-3.8571,-4.0144,-4.1626,-4.3892,-4.5032,-4.4328,-4.347,-4.2434,-4.1185,-4.0716,-4.0187,-3.9521,-3.8337,-3.7434,-3.6791,-3.6607,-3.6185,-3.5504,-3.5504,-3.5504,-3.5504,-3.5504,-3.5504,-3.5504,-3.5504,-3.5504,-3.5504,-3.5504,-3.5235,-3.4801,-3.4801,-3.4277,-3.3455,-3.3484,-3.3215,-3.2751,-3.2108,-3.122,-3.0236,-2.9609,-2.8627,-2.7621,-2.7704,-2.6519,-2.4812,-2.3683,-2.3046,-2.2514,-2.1041,-2.0631,-2.0584,-2.0582,-1.8397,-1.5807,-1.4447,-1.4137,-1.4139,-1.4064,-1.4375,-1.4877,-1.5694,-1.4278,-1.2974,-1.3008,-1.2569,-1.1772,-1.0396,-1.1773,-1.2473,-1.1499,-1.3503,-1.5327,-1.5924,-1.6606,-1.7285,-1.794,-1.785,-1.7801,-1.8018,-1.7716,-1.7533,-1.7402,-1.7119,-1.7133,-1.741,-1.7265,-1.7603,-1.843,-1.8067,-1.8246,-1.8895,-1.8029,-1.8356,-4.0915,-4.0975,-4.0759,-3.9716,-3.732,-3.5421,-3.6259,-3.5526,-3.5054,-3.6488,-3.7349,-3.805,-3.8636,-3.8506,-3.8204,-3.7949,-3.778,-3.7364,-3.6437,-3.7358,-3.8818,-4.0795,-4.3101,-4.4227,-4.3404,-4.2521,-4.1654,-4.0831,-4.0307,-3.9843,-3.9439,-3.8138,-3.724,-3.6851,-3.6372,-3.5923,-3.5504,-3.5504,-3.5504,-3.5504,-3.5504,-3.5504,-3.5504,-3.5504,-3.5504,-3.5489,-3.5235,-3.4876,0.0,-3.4203,-3.3619,-3.2931,-3.3335,-3.3047,-3.2355,-3.2355,-3.1424,-3.0049,-2.9605,-2.8596,-2.7473,-2.7575,-2.5897,-2.3704,-2.2695,-2.2173,-2.1722,-2.0821,-2.0575,-2.0207,-1.8576,-1.6126,-1.4096,-1.4074,-1.4082,-1.4104,-1.4089,-1.4078,-1.3817,-1.3055,-1.2352,-1.1758,-1.1274,-1.123,-1.0733,-0.9356,-1.0976,-1.2054,-1.1005,-1.3489,-1.5467,-1.5932,-1.6678,-1.7354,-1.794,-1.8311,-1.835,-1.8037,-1.8311,-1.8301,-1.7871,-1.8095,-1.8312,-1.8522,-1.8695,-1.9121,-1.9714,-1.9471,-1.9293,-1.928,-1.8167,-1.8078,0.0,-4.1819,-4.206,-4.094,-3.954,-3.8405,-3.8415,-3.7399,0.0,-3.8382,-3.8282,-3.8162,-3.8841,-3.8318,-3.7524,-3.6813,-3.6604,-3.6561,-3.6605,-3.7234,-3.8725,-4.1263,-4.2681,-4.3434,-4.3344,-4.2192,-4.1429,-4.1384,-4.0202,-3.9454,-3.9349,-3.8108,-3.7389,-3.7345,-3.6148,-3.5504,-3.5504,-3.5504,-3.5504,-3.5504,-3.5504,-3.5504,-3.5504,-3.5504,-3.5504,-3.5474,-3.4771,-3.4442,-3.4352,-3.3694,-3.3395,-3.3365,-3.3455,-3.2945,-3.2091,-3.2134,-3.1152,-2.9759,-2.9717,-2.9013,-2.7804,-2.6379,-2.4092,-2.1707,-2.0866,-2.1195,-2.1734,-2.0844,-2.0585,-1.9635,-1.5256,-1.4138,-1.4061,-1.4082,-1.4137,-1.4148,-1.418,-1.4198,-1.2995,-0.8812,-0.9914,-1.0844,-0.8448,-0.9076,-0.9509,-0.8333,-1.0018,-1.1422,-1.1385,-1.4321,-1.6398,-1.6117,-1.7268,-1.8008,-1.8008,-1.874,-1.8857,-1.8057,-1.885,-1.9125,-1.8723,-1.9354,-1.9669,-1.9713,-2.0272,-2.0591,-2.0637,-2.0144,-1.9482,-1.8659,-1.8272,-1.8076,-4.0386,0.0,-4.0594,-4.0306,-3.8906,-3.7893,0.0,-3.8229,-3.7655,-3.9205,-3.9549,-3.9411,-3.9013,-3.817,-3.7377,-3.6729,-3.6215,-3.5767,-3.5509,-3.8184,-4.0858,-4.2725,-4.4019,-4.4436,-4.3434,-4.2596,-4.1923,-4.1414,-4.0621,-3.9723,-3.8691,-3.7853,-3.7195,-3.6716,-3.5923,-3.5504,-3.5504,-3.5504,-3.5504,-3.5504,-3.5504,-3.5504,-3.5504,-3.5504,-3.5504,-3.5459,-3.4618,-3.405,-3.3679,-3.3021,-3.2452,-3.2093,-3.3095,-3.2945,-3.2134,-3.2651,-3.1467,-2.952,-2.8985,-2.7985,-2.6601,-2.4719,-2.3167,-2.1823,-2.0849,-2.1199,-2.1739,-2.0861,-2.0622,-1.9597,-1.5212,-1.4062,-1.4108,-1.4082,-1.4112,-1.435,-1.5174,-1.5438,-1.3926,-0.8981,-0.8483,-0.8747,-0.8153,-0.8294,-0.8726,-0.941,-1.0692,-1.2066,-1.3543,-1.5347,-1.6718,-1.7203,-1.7722,-1.8008,-1.8008,-1.8193,-1.8223,-1.8018,-1.917,-1.9831,-1.9717,-2.0899,-2.2214,-2.3466,-2.428,-2.4198,-2.3117,-2.2375,-2.1039,-1.9141,-1.9058,-1.8664,-4.0061,-4.0463,-4.0843,-4.0692,-3.9792,-3.9127,-3.9822,-3.9157,-3.8611,-3.9433,-3.958,-3.9437,-3.8962,-3.8164,-3.7277,-3.6471,-3.6163,-3.601,-3.5616,-3.818,-4.0608,-4.203,-4.3504,-4.4122,-4.3404,-4.2476,-4.1639,-4.098,-4.0038,-3.9155,-3.8422,-3.7494,-3.6836,-3.6492,-3.5848,-3.5504,-3.5504,-3.5504,-3.5504,-3.5504,-3.5504,-3.5668,-3.6006,-3.5668,-3.5668,-3.5946,-3.4493,-3.3707,-3.3425,-3.2452,-3.1854,-3.1571,-3.2647,-3.224,-3.1166,-3.2083,-3.0746,-2.8453,-2.8389,-2.7334,-2.5672,-2.3344,-2.2193,-2.1463,-1.9879,-1.9757,-2.0185,-2.0493,-2.0632,-1.9598,-1.5234,-1.4105,-1.413,-1.4063,-1.2658,-1.1425,-1.209,-1.2247,-1.1409,-0.8575,-0.868,-0.8981,-0.8089,-0.8506,-0.9118,-0.9903,-1.0885,-1.2248,-1.4353,-1.5688,-1.6796,-1.7596,-1.7873,-1.8134,-1.8596,-1.8846,-1.8957,-1.8957,-2.0798,-2.1969,-2.1969,-2.3788,-2.5401,-2.6744,-2.6701,-2.6102,-2.4978,-2.3854,-2.246,-2.085,-1.979,-1.9044,-4.0032,-4.096,-4.1759,-4.138,-4.1063,-4.0835,-4.0784,-4.0073,-3.95,-3.9729,-3.9392,-3.9032,-3.8799,-3.7931,-3.7021,-3.6193,-3.6417,-3.6724,-3.6737,-3.8165,-3.9712,-4.0907,-4.2388,-4.321,-4.291,-4.1878,-4.0995,-4.0442,-3.9155,-3.8347,-3.8242,-3.7135,-3.6432,-3.6342,-3.5804,-3.5554,-3.5668,-3.5668,-3.5668,-3.5668,-3.5782,-3.618,-3.6722,-3.59,-3.5854,-3.6322,-3.4121,-3.3229,-3.3245,-3.2033,-3.1482,-3.1541,-3.2258,-3.1467,-3.0104,-3.1089,-2.9771,-2.7531,-2.7792,-2.6866,-2.5157,-2.2686,-2.1731,-2.1141,-1.8725,-1.8029,-1.818,-1.9099,-1.9432,-1.8778,-1.509,-1.4071,-1.4128,-1.4103,-1.0987,-0.7956,-0.7984,-0.8035,-0.7967,-0.7967,-0.9193,-0.9727,-0.8237,-0.9118,-1.0096,-1.0293,-1.1384,-1.2839,-1.489,-1.6194,-1.7234,-1.783,-1.8132,-1.859,-1.941,-2.0288,-2.0893,-2.1151,-2.322,-2.4675,-2.5105,-2.7223,-2.8748,-2.9401,-2.8312,-2.7299,-2.6302,-2.4939,-2.3742,-2.265,-2.0697,-1.9669,-4.0072,-4.1136,-4.1939,-4.1431,-4.1016,-4.1009,-4.2166,-4.0977,-4.0018,-4.1188,-4.0625,-3.9506,-3.8206,-3.694,-3.6139,-3.6387,-3.6639,-3.7428,-3.9147,-4.0005,-4.0956,-4.1989,-4.2808,-4.2671,-4.101,-4.0666,-4.0502,-4.0412,-3.9155,-3.8138,-3.7584,-3.6881,-3.6237,-3.5669,-3.5549,-3.5782,-3.6446,-3.6446,-3.6446,-3.6446,-3.71,-3.7531,-3.7557,-3.6238,-3.5674,-3.5595,-3.2961,-3.2124,-3.2602,-3.1795,-3.1482,-3.1541,-3.2258,-3.1865,-3.0899,-3.0954,-2.9821,-2.8173,-2.7094,-2.6214,-2.5428,-2.4266,-2.3159,-2.1776,-1.8869,-1.8018,-1.7406,-1.4419,-1.4301,-1.4955,-1.4234,-1.413,-1.4116,-1.4141,-1.0937,-0.7969,-0.8041,-0.8004,-0.8024,-0.8024,-0.823,-0.8336,-0.8038,-0.9118,-1.0386,-1.1463,-1.3611,-1.5643,-1.743,-1.8406,-1.8948,-1.9027,-1.9374,-1.9744,-2.018,-2.2603,-2.4593,-2.5781,-2.607,-2.7359,-2.9807,-3.0431,-3.074,-3.0879,-3.019,-2.8944,-2.7092,-2.6243,-2.4721,-2.2714,-2.2309,-2.1416,-3.9509,-4.0598,-4.153,-4.1487,-4.1415,-4.1552,-4.2221,-4.0999,-3.9881,-4.0542,-4.001,-3.9218,-3.8476,-3.8091,-3.7856,-3.78,-3.7204,-3.7124,-3.8344,-3.949,-4.0453,-4.0964,-4.1763,-4.1639,-4.0023,-3.9873,-3.9574,-3.8841,-3.7898,-3.7225,-3.6926,-3.6312,-3.5818,-3.5519,-3.5504,-3.5831,-3.66,-3.7024,-3.7279,-3.7263,-3.7632,-3.7822,-3.7748,-3.6667,-3.5949,-3.5471,-3.3472,-3.2557,-3.2467,-3.1809,-3.1482,-3.1497,-3.1869,-3.1411,-3.0544,-2.9525,-2.8609,-2.7703,-2.6835,-2.6289,-2.5797,-2.4071,-2.3328,-2.2456,-1.9032,-1.7976,-1.7198,-1.3407,-1.3196,-1.4114,-1.4079,-1.2237,-1.094,-1.3472,-1.1006,-0.8028,-0.8021,-0.8038,-0.8031,-0.7997,-0.878,-0.9079,-0.8192,-1.0258,-1.2037,-1.1945,-1.3357,-1.5344,-1.7866,-1.8179,-1.8593,-1.9875,-1.9916,-2.0575,-2.2214,-2.4215,-2.6438,-2.908,-2.9476,-3.0214,-3.1579,-3.1381,-3.0974,-3.0595,-3.0387,-2.9252,-2.7053,-2.6864,-2.5616,-2.3389,-2.263,-2.1585,-3.9184,-3.9946,-4.0785,-4.1329,-4.1843,-4.226,-4.2546,-4.1556,-4.0498,-4.0429,-4.0172,-3.9676,-3.8695,-3.8947,-3.9107,-3.8573,-3.7874,-3.7502,-3.7698,-3.8797,-3.9519,-3.9326,-4.0088,-4.0159,-3.908,-3.8945,-3.8527,-3.7494,-3.6836,-3.6492,-3.6492,-3.5863,-3.5504,-3.5504,-3.5668,-3.6041,-3.6609,-3.7594,-3.8035,-3.8035,-3.8262,-3.8262,-3.8019,-3.6916,-3.602,-3.5329,-3.3713,-3.2751,-3.2243,-3.1676,-3.1377,-3.13,-3.13,-3.0793,-2.9872,-2.8502,-2.7758,-2.7297,-2.6741,-2.6533,-2.6183,-2.4343,-2.3665,-2.3156,-2.0709,-1.9049,-1.7234,-1.3353,-1.3144,-1.4109,-1.4122,-1.0661,-0.8063,-1.1801,-1.0267,-0.7997,-0.8031,-0.8028,-0.8007,-0.7963,-0.9531,-1.0422,-0.8856,-1.1094,-1.2866,-1.2037,-1.3317,-1.5297,-1.7858,-1.7936,-1.8532,-2.0566,-2.0834,-2.2134,-2.5218,-2.681,-2.8752,-3.1458,-3.2097,-3.2443,-3.2652,-3.1682,-3.0935,-3.0499,-3.0192,-2.9106,-2.7269,-2.7129,-2.6088,-2.4215,-2.2761,-2.1602,-3.9619,-3.9549,-3.953,-4.0826,-4.1903,-4.2992,-4.4217,-4.3697,-4.2881,-4.2639,-4.286,-4.1959,-3.8324,-3.8111,-3.8222,-3.739,-3.8929,-4.0006,-3.9031,-3.8989,-3.8767,-3.8021,-3.8048,-3.7929,-3.7605,-3.7554,-3.7509,-3.7419,-3.6836,-3.6492,-3.6492,-3.5863,-3.5504,-3.5504,-3.6165,-3.6607,-3.6717,-3.8127,-3.8799,-3.8854,-3.9558,-3.9558,-3.875,-3.6744,-3.5435,-3.4632,-3.2549,-3.1644,-3.1541,-3.1497,-3.115,-3.0567,-3.0567,-3.01,-2.9344,-2.9045,-2.839,-2.7536,-2.6794,-2.6533,-2.6433,-2.6313,-2.4969,-2.3779,-2.5419,-2.2226,-1.7197,-1.3376,-1.3153,-1.4118,-1.4071,-1.0602,-0.7292,-0.821,-0.8207,-0.7969,-0.8011,-0.7997,-0.796,-0.7953,-1.004,-1.1463,-1.0605,-1.0678,-1.1106,-1.1828,-1.4988,-1.7591,-1.8159,-1.9135,-2.0223,-2.1229,-2.2736,-2.5423,-2.959,-3.1809,-3.2961,-3.297,-3.3033,-3.3307,-3.3869,-3.1893,-3.1194,-3.194,-3.0251,-2.9015,-2.8283,-2.7044,-2.599,-2.497,-2.3378,-2.2203,-3.8993,-3.9735,-4.0474,-4.0954,-4.1886,-4.2727,-4.2821,-4.2679,-4.2386,-4.1902,-4.1923,-4.1362,-3.928,-3.8702,-3.8576,-3.8644,-3.9753,-4.0228,-3.9116,-3.9634,-3.9368,-3.7183,-3.7434,-3.7329,-3.6003,-3.6452,-3.6671,-3.6252,-3.6013,-3.5878,-3.5878,-3.5639,-3.5504,-3.5504,-3.5782,-3.6415,-3.7348,-3.7496,-3.7818,-3.8335,-3.8631,-3.8157,-3.6847,-3.5673,-3.4441,-3.3317,-3.2465,-3.1674,-3.0926,-3.1302,-3.0896,-2.9968,-3.0357,-2.9667,-2.854,-2.8907,-2.8117,-2.6905,-2.6589,-2.6464,-2.6383,-2.5541,-2.5336,-2.5025,-2.3323,-2.0545,-1.7322,-1.4282,-1.3743,-1.4069,-1.4064,-1.0644,-0.7175,-0.7396,-0.7682,-0.7955,-0.8007,-0.9327,-1.04,-1.0453,-1.2543,-1.3556,-1.1044,-1.0646,-1.0904,-1.1731,-1.3866,-1.5744,-1.7022,-1.8148,-1.9661,-2.1718,-2.5181,-2.8344,-3.0807,-3.1664,-3.2382,-3.3048,-3.348,-3.3053,-3.1801,-3.1117,-3.0471,-2.9886,-2.9888,-2.9154,-2.765,-2.7583,-2.6685,-2.5043,-2.3683,-2.2585,-3.8318,-3.9152,-3.9977,-4.0333,-4.1071,-4.1707,-4.1763,-4.2094,-4.2278,-4.1901,-4.1054,-4.0293,-3.9807,-3.9092,-3.8772,-3.9426,-4.0319,-4.0291,-3.8658,-3.914,-3.8611,-3.5644,-3.5814,-3.578,-3.4764,-3.5336,-3.5674,-3.5534,-3.5504,-3.5504,-3.5504,-3.5504,-3.5504,-3.5504,-3.5522,-3.6045,-3.7081,-3.6653,-3.6593,-3.6918,-3.6706,-3.6184,-3.5379,-3.441,-3.3258,-3.2093,-3.1584,-3.0925,-3.0184,-3.06,-3.0208,-2.931,-2.9744,-2.9144,-2.814,-2.8553,-2.7748,-2.6414,-2.6151,-2.5942,-2.5685,-2.4584,-2.5207,-2.5789,-2.1838,-1.9798,-1.8158,-1.4977,-1.4106,-1.4069,-1.4068,-1.0646,-0.7111,-0.7073,-0.7533,-0.849,-1.0126,-1.0555,-1.0909,-1.176,-1.3996,-1.4503,-1.0422,-0.9753,-1.0132,-1.1146,-1.2425,-1.3956,-1.5761,-1.7139,-1.9562,-2.3491,-2.7556,-3.044,-3.1672,-3.1603,-3.1797,-3.2336,-3.2506,-3.2027,-3.0685,-3.0481,-2.9998,-2.9173,-2.9715,-2.9416,-2.8251,-2.8005,-2.7146,-2.5715,-2.3798,-2.2593,-3.7755,-3.7542,-3.7481,-3.869,-3.9256,-3.9964,-4.1596,-4.2501,-4.2989,-4.3061,-4.0767,-3.8927,-3.961,-3.8971,-3.8616,-3.9305,-4.0516,-4.04,-3.7557,-3.7151,-3.606,-3.3106,-3.283,-3.3109,-3.3937,-3.4027,-3.4394,-3.5424,-3.5504,-3.5504,-3.5504,-3.5504,-3.5504,-3.5504,-3.5569,-3.5548,-3.5504,-3.5696,-3.538,-3.4585,-3.3952,-3.4048,-3.4585,-3.3059,-3.1915,-3.1089,-2.9617,-2.9077,-2.9245,-2.9245,-2.8995,-2.8607,-2.8607,-2.8468,-2.8283,-2.8052,-2.7271,-2.614,-2.5322,-2.4776,-2.4379,-2.3727,-2.4872,-2.5692,-2.1753,-2.0559,-1.9716,-1.5326,-1.4079,-1.4117,-1.4126,-1.067,-0.7159,-0.7142,-0.7553,-0.9432,-1.4655,-1.1663,-0.8845,-1.1444,-1.3957,-1.4096,-0.8958,-0.8004,-0.8488,-0.978,-1.1072,-1.2533,-1.4385,-1.6481,-2.025,-2.6837,-2.9797,-3.1644,-3.2437,-3.2362,-3.1845,-3.0809,-2.9981,-2.9966,-3.1114,-3.0058,-2.9787,-3.0596,-2.9794,-2.9697,-3.0507,-2.8266,-2.7207,-2.7134,-2.3658,-2.1978,-3.739,-3.7731,-3.8259,-3.9139,-3.9905,-4.0582,-4.1111,-4.1389,-4.1527,-4.1606,-4.0071,-3.8982,-3.9582,-3.9431,-3.9284,-3.9376,-3.9489,-3.8981,-3.7421,-3.6579,-3.5027,-3.212,-3.2369,-3.2588,-3.2069,-3.3241,-3.4095,-3.4394,-3.5133,-3.5504,-3.5504,-3.5504,-3.5504,-3.5504,-3.5537,-3.5536,-3.5548,-3.5127,-3.4281,-3.3027,-3.2357,-3.191,-3.1708,-3.076,-2.9608,-2.8422,-2.8015,-2.7611,-2.727,-2.7297,-2.7837,-2.8607,-2.8607,-2.785,-2.6801,-2.6613,-2.5614,-2.4304,-2.408,-2.3921,-2.4033,-2.5206,-2.4157,-2.1913,-1.9485,-1.9593,-1.9684,-1.534,-1.4068,-1.407,-1.4099,-1.2287,-0.9875,-0.761,-0.7559,-0.8818,-1.1869,-1.302,-1.3284,-1.2634,-1.2294,-1.1579,-0.9768,-0.8648,-0.8441,-0.9788,-1.0293,-1.2104,-1.6206,-1.9396,-2.3072,-2.7739,-3.0187,-3.1524,-3.1659,-3.0638,-2.9728,-2.9241,-2.8443,-2.8239,-2.8979,-2.9904,-3.0528,-3.073,-3.1286,-3.1456,-3.1168,-2.9359,-2.8243,-2.7721,-2.453,-2.3077,-3.73,-3.7672,-3.8286,-3.9298,-4.0,-4.0289,-3.975,-4.0134,-4.0503,-4.0084,-3.9155,-3.8466,-3.8749,-3.8565,-3.8515,-3.8927,-3.8458,-3.7691,-3.6896,-3.5898,-3.4306,-3.1726,-3.1915,-3.2006,-3.1299,-3.2522,-3.3602,-3.3959,-3.492,-3.5504,-3.5504,-3.5504,-3.5504,-3.5504,-3.5235,-3.513,-3.5156,-3.3864,-3.2781,-3.193,-3.0675,-2.9624,-2.8713,-2.8542,-2.7806,-2.6794,-2.6562,-2.6217,-2.5908,-2.6323,-2.7006,-2.7727,-2.7513,-2.6931,-2.6065,-2.509,-2.4216,-2.3435,-2.296,-2.2666,-2.2546,-2.3738,-2.2064,-1.9482,-1.9126,-1.9781,-2.0033,-1.7405,-1.6702,-1.6241,-1.4539,-1.3387,-1.1963,-0.9143,-0.8543,-0.9315,-1.1967,-1.3031,-1.3174,-1.2404,-1.0805,-0.9534,-0.9205,-0.8513,-0.8308,-0.9034,-0.9685,-1.1822,-1.68,-2.0609,-2.4348,-2.8343,-3.0408,-3.1452,-3.1392,-3.0129,-2.8848,-2.768,-2.722,-2.6939,-2.6832,-2.9048,-3.0392,-3.0798,-3.1521,-3.193,-3.1855,-2.9941,-2.8809,-2.8339,-2.5011,-2.3514,-3.7421,-3.7456,-3.7757,-3.9204,-3.9508,-3.9236,-3.8221,-3.8926,-3.9543,-3.8572,-3.7977,-3.7523,-3.7391,-3.6963,-3.6933,-3.8023,-3.7346,-3.65,-3.6046,-3.5116,-3.3697,-3.1675,-3.1348,-3.1284,-3.1075,-3.2033,-3.2961,-3.3808,-3.4905,-3.5504,-3.5504,-3.5504,-3.5504,-3.5504,-3.4827,-3.4375,-3.4319,-3.2232,-3.1051,-3.0859,-2.9016,-2.7359,-2.5972,-2.6433,-2.6264,-2.555,-2.5053,-2.4831,-2.4958,-2.5841,-2.625,-2.6246,-2.5638,-2.5582,-2.5575,-2.3577,-2.2926,-2.288,-2.175,-2.0923,-2.0349,-2.0349,-1.931,-1.8318,-1.9871,-2.0484,-2.0579,-2.0635,-2.0572,-1.9592,-1.5397,-1.4164,-1.351,-1.1451,-1.0274,-1.0543,-1.3681,-1.2086,-1.0301,-1.1239,-0.9702,-0.816,-0.8045,-0.7972,-0.7969,-0.7762,-0.92,-1.1953,-1.655,-2.0567,-2.4602,-2.8652,-3.051,-3.1439,-3.1353,-3.0192,-2.84,-2.5978,-2.6058,-2.5836,-2.4933,-2.7723,-2.9707,-3.0581,-3.097,-3.1529,-3.2378,-3.0125,-2.9002,-2.8925,-2.5238,-2.3514,-3.7929,-3.736,-3.707,-3.7968,-3.8233,-3.846,-3.9394,-3.8418,-3.7264,-3.7036,-3.6917,-3.6969,-3.7316,-3.7355,-3.7192,-3.6641,-3.6003,-3.5292,-3.4473,-3.3407,-3.2377,-3.1474,-3.1035,-3.0586,-3.0138,-3.1623,-3.2664,-3.289,-3.4491,-3.5504,-3.5504,-3.5504,-3.5504,-3.5504,-3.4611,-3.363,-3.2693,-3.1471,-3.0055,-2.8408,-2.7581,-2.6448,-2.5039,-2.4746,-2.3567,-2.1835,-2.238,-2.2935,-2.3509,-2.3891,-2.4382,-2.4864,-2.4301,-2.3662,-2.2821,-2.1748,-2.1019,-2.0366,-1.9165,-1.8685,-1.8557,-1.8557,-1.8279,-1.8043,-1.8475,-1.9521,-2.0597,-2.0594,-2.0635,-1.9878,-1.6566,-1.5523,-1.4949,-1.3678,-1.202,-1.1059,-1.1753,-1.1613,-1.1274,-1.0881,-1.0072,-0.9115,-0.8141,-0.7972,-0.7521,-0.5912,-0.9055,-1.3133,-1.7435,-2.2082,-2.6244,-2.9681,-3.0793,-3.0999,-3.0202,-2.8249,-2.5797,-2.2854,-2.3587,-2.4024,-2.3818,-2.7037,-2.8983,-2.9174,-3.0459,-3.13,-3.1486,-2.9785,-2.9002,-2.8925,-2.5238,-2.3514,-3.8531,-3.7853,-3.7301,-3.7698,-3.8019,-3.8392,-3.8869,-3.7753,-3.66,-3.656,-3.6298,-3.6155,-3.6424,-3.6133,-3.5778,-3.5549,-3.471,-3.3909,-3.3437,-3.2744,-3.1913,-3.111,-3.0783,-3.0539,-3.047,-3.1756,-3.282,-3.3241,-3.4639,-3.5504,-3.5504,-3.5052,-3.4758,-3.4758,-3.3604,-3.2489,-3.1556,-3.0388,-2.9067,-2.7657,-2.6505,-2.4822,-2.2815,-2.2933,-2.213,-2.0655,-2.1112,-2.1575,-2.2065,-2.2585,-2.3115,-2.3553,-2.3207,-2.2978,-2.2483,-2.0228,-1.9733,-1.9912,-1.8152,-1.7762,-1.7939,-1.7529,-1.7649,-1.7985,-1.7985,-1.8936,-2.0083,-2.047,-2.0575,-1.9995,-1.7392,-1.6624,-1.5996,-1.431,-1.276,-1.1778,-1.2481,-1.1516,-1.0487,-1.0259,-0.9426,-0.8645,-0.8137,-0.5847,-0.4585,-0.5795,-1.1431,-1.639,-1.9183,-2.3765,-2.7795,-3.0483,-3.1556,-3.1353,-2.9586,-2.7026,-2.4306,-2.1381,-2.2067,-2.2699,-2.2765,-2.5278,-2.7107,-2.7954,-2.9649,-3.0595,-3.0658,-2.9547,-2.8529,-2.7644,-2.5016,-2.3574,-3.9008,-3.8314,-3.7572,-3.7604,-3.79,-3.8109,-3.77,-3.698,-3.6384,-3.6384,-3.5943,-3.5504,-3.5504,-3.4839,-3.4336,-3.4565,-3.3628,-3.2828,-3.2646,-3.2196,-3.1682,-3.0934,-3.0745,-3.0933,-3.1368,-3.2321,-3.3171,-3.3945,-3.492,-3.5504,-3.5504,-3.4543,-3.4027,-3.4027,-3.2472,-3.1309,-3.0609,-2.9251,-2.8219,-2.7471,-2.5507,-2.3159,-2.059,-2.1175,-2.0974,-2.0139,-2.0333,-2.0437,-2.0624,-2.1421,-2.1875,-2.2046,-2.2008,-2.2207,-2.2206,-1.8874,-1.8567,-1.9574,-1.7714,-1.7416,-1.7696,-1.709,-1.7298,-1.7823,-1.793,-1.8613,-1.9458,-2.0322,-2.0639,-2.0203,-1.801,-1.7441,-1.678,-1.4076,-1.2616,-1.2028,-1.2971,-1.0958,-0.9125,-0.9296,-0.8442,-0.7733,-0.7595,-0.371,-0.2273,-0.7001,-1.452,-2.0049,-2.1158,-2.5589,-2.943,-3.1531,-3.2291,-3.1768,-2.9586,-2.5973,-2.2583,-1.9809,-2.0533,-2.1084,-2.1316,-2.3067,-2.4685,-2.6247,-2.8198,-2.9299,-2.9453,-2.8753,-2.7616,-2.6138,-2.4515,-2.3329,-3.9113,-3.7858,-3.6779,-3.6767,-3.6367,-3.6064,-3.6646,-3.6165,-3.5668,-3.5668,-3.5554,-3.5504,-3.5504,-3.5359,-3.4802,-3.3213,-3.3156,-3.2751,-3.1159,-3.0863,-3.1064,-3.1694,-3.1389,-3.1482,-3.2321,-3.3241,-3.3876,-3.4027,-3.492,-3.5504,-3.5504,-3.4543,-3.4027,-3.4027,-3.2239,-3.0751,-2.9661,-2.8705,-2.7683,-2.6645,-2.4633,-2.2615,-2.059,-1.9944,-1.9177,-1.8395,-1.9177,-1.9286,-1.8996,-2.0016,-2.0241,-2.0013,-2.0085,-1.9678,-1.884,-1.7478,-1.6979,-1.6914,-1.708,-1.6977,-1.6996,-1.7599,-1.7359,-1.702,-1.7745,-1.8613,-1.9492,-2.0346,-2.0948,-2.0771,-1.8619,-1.8012,-1.7028,-1.3739,-1.1759,-1.0413,-0.9497,-0.8888,-0.8291,-0.7562,-0.7712,-0.7453,-0.5979,-0.4315,-0.4825,-0.9786,-1.64,-2.1432,-2.3168,-2.7537,-3.1242,-3.3302,-3.2285,-3.1358,-3.1208,-2.4096,-1.8625,-1.6083,-1.7476,-1.8434,-1.8453,-2.0762,-2.2176,-2.2444,-2.5413,-2.7079,-2.7282,-2.6492,-2.5879,-2.5469,-2.3313,-2.185,-3.8596,-3.771,-3.7063,-3.6682,-3.6618,-3.6779,-3.7063,-3.6598,-3.6117,-3.6117,-3.5782,-3.5504,-3.5504,-3.5052,-3.4394,-3.3518,-3.3392,-3.3028,-3.1915,-3.2004,-3.2222,-3.232,-3.2123,-3.2321,-3.331,-3.3739,-3.4245,-3.4773,-3.5279,-3.5279,-3.4691,-3.3739,-3.2961,-3.2464,-3.0474,-2.9211,-2.8723,-2.7157,-2.5672,-2.4331,-2.3224,-2.1812,-2.0202,-1.9547,-1.8854,-1.8008,-1.8395,-1.8379,-1.8197,-1.8966,-1.9171,-1.9,-1.955,-1.9552,-1.9018,-1.8089,-1.7474,-1.7093,-1.6838,-1.6894,-1.7041,-1.6963,-1.7015,-1.7092,-1.7212,-1.7891,-1.8803,-1.9819,-2.0482,-2.0423,-1.802,-1.7826,-1.7305,-1.3723,-1.1855,-1.0549,-0.9461,-0.8303,-0.6557,-0.3721,-0.566,-0.7551,-0.6756,-0.733,-0.8995,-1.2667,-1.9598,-2.4589,-2.5062,-2.7764,-3.0612,-3.3095,-3.0596,-2.8039,-2.6294,-1.9103,-1.4816,-1.5137,-1.599,-1.6905,-1.7809,-1.9487,-2.039,-2.039,-2.3302,-2.4946,-2.5029,-2.4612,-2.3665,-2.2275,-2.1694,-2.0716,-3.779,-3.7294,-3.696,-3.6616,-3.6879,-3.7336,-3.7336,-3.6952,-3.6552,-3.6368,-3.5894,-3.5504,-3.5504,-3.4905,-3.4312,-3.4027,-3.3776,-3.3334,-3.2662,-3.2908,-3.3104,-3.2932,-3.2961,-3.331,-3.4327,-3.4394,-3.4691,-3.5424,-3.5504,-3.5067,-3.4027,-3.3101,-3.2177,-3.1254,-2.9295,-2.8247,-2.8109,-2.6045,-2.4436,-2.3262,-2.2332,-2.1144,-1.9891,-1.9365,-1.8697,-1.8008,-1.8008,-1.784,-1.7554,-1.8337,-1.8497,-1.8312,-1.9399,-1.9716,-1.9417,-1.8412,-1.7801,-1.7371,-1.6524,-1.6486,-1.6766,-1.6114,-1.6284,-1.6703,-1.6579,-1.7044,-1.7833,-1.8924,-2.0018,-2.0184,-1.7482,-1.7624,-1.7572,-1.3635,-1.1871,-1.0756,-0.9396,-0.7856,-0.5643,-0.1722,-0.3996,-0.682,-0.7396,-0.9007,-1.1066,-1.3581,-1.9811,-2.4061,-2.3475,-2.6297,-2.9066,-3.0855,-2.9195,-2.5241,-1.8514,-1.3562,-1.1605,-1.3248,-1.392,-1.4839,-1.6346,-1.7575,-1.8045,-1.7487,-1.9123,-2.078,-2.2365,-2.2094,-2.1016,-1.9182,-1.9376,-1.8719,-3.6661,-3.6148,-3.5764,-3.6327,-3.6558,-3.6543,-3.6543,-3.6514,-3.6319,-3.5689,-3.5504,-3.5504,-3.5504,-3.5439,-3.5133,-3.4177,-3.3973,-3.363,-3.2749,-3.2621,-3.2989,-3.3808,-3.3945,-3.4312,-3.5344,-3.5424,-3.5424,-3.5504,-3.5504,-3.5067,-3.4027,-3.3101,-3.2177,-3.1254,-2.9678,-2.8637,-2.8109,-2.6045,-2.4992,-2.4815,-2.2556,-2.0923,-1.9833,-1.9014,-1.8379,-1.8008,-1.8008,-1.7529,-1.6845,-1.8319,-1.8391,-1.7786,-1.9254,-1.9371,-1.8608,-1.741,-1.6815,-1.6477,-1.57,-1.5421,-1.5413,-1.5368,-1.5103,-1.4985,-1.589,-1.6278,-1.6719,-1.7791,-1.9639,-2.0614,-1.7416,-1.78,-1.7827,-1.2978,-1.1446,-1.0361,-0.7827,-0.718,-0.6364,-0.3933,-0.3636,-0.4522,-0.6759,-0.7397,-0.8516,-1.1144,-1.4446,-1.6456,-1.6092,-2.2587,-2.6828,-2.5942,-2.91,-2.4705,-0.8458,-0.8538,-0.919,-0.8718,-1.0124,-1.144,-1.2466,-1.4344,-1.4486,-1.2535,-1.087,-1.3035,-1.9142,-1.8126,-1.7622,-1.7593,-1.6333,-1.5375,-3.6369,-3.6054,-3.5669,-3.6327,-3.6178,-3.5968,-3.6387,-3.6163,-3.5789,-3.5549,-3.5504,-3.5504,-3.5504,-3.5504,-3.5359,-3.4986,-3.4986,-3.4839,-3.4491,-3.4476,-3.4558,-3.4905,-3.4986,-3.5133,-3.5439,-3.5504,-3.5325,-3.4876,-3.4669,-3.3936,-3.2526,-3.1959,-3.1069,-2.9792,-2.8823,-2.7654,-2.6093,-2.4993,-2.3988,-2.3073,-2.159,-2.0537,-1.9853,-1.9019,-1.8484,-1.8398,-1.8125,-1.7519,-1.6782,-1.7806,-1.8151,-1.823,-1.9368,-1.9282,-1.8484,-1.8151,-1.7423,-1.6368,-1.5583,-1.5204,-1.4853,-1.3876,-1.341,-1.3254,-1.3739,-1.3826,-1.4195,-1.6206,-1.7442,-1.8029,-1.7375,-1.6972,-1.565,-1.1492,-0.9614,-0.8387,-0.7353,-0.7078,-0.5925,-0.206,-0.126,-0.2531,-0.6457,-0.7141,-0.748,-0.8329,-1.2685,-1.5487,-1.4319,-1.8358,-2.0184,-1.7252,-1.827,-1.4554,-0.3201,-0.5397,-0.7656,-0.8263,-0.904,-0.9553,-0.9707,-1.0812,-1.0456,-0.8445,-0.7737,-0.9726,-1.4624,-1.4196,-1.4184,-1.455,-1.3641,-1.2966,-3.5583,-3.5546,-3.537,-3.6267,-3.6163,-3.5953,-3.6387,-3.6148,-3.5774,-3.5549,-3.5504,-3.5504,-3.5504,-3.5504,-3.5504,-3.5504,-3.5504,-3.5504,-3.5504,-3.5504,-3.5504,-3.5504,-3.5504,-3.5504,-3.5504,-3.5504,-3.522,-3.4532,-3.4025,-3.3104,-3.1654,-3.0985,-2.9913,-2.8386,-2.8021,-2.717,-2.579,-2.4912,-2.4078,-2.3293,-2.1818,-2.0847,-2.0396,-1.9462,-1.8984,-1.8838,-1.8555,-1.7871,-1.6988,-1.7574,-1.7852,-1.8081,-1.878,-1.8679,-1.8097,-1.7675,-1.6925,-1.5891,-1.4616,-1.3898,-1.3389,-1.2062,-1.1444,-1.1162,-1.1263,-1.1535,-1.1992,-1.3155,-1.4314,-1.5211,-1.5643,-1.4658,-1.2892,-1.0387,-0.8642,-0.747,-0.7165,-0.5822,-0.3757,-0.0628,-0.0,-0.0984,-0.4129,-0.5588,-0.637,-0.6711,-1.0456,-1.253,-1.034,-1.1929,-1.1313,-0.622,-0.589,-0.4686,-0.1222,-0.3571,-0.5865,-0.7434,-0.7834,-0.7855,-0.7664,-0.8071,-0.7702,-0.6398,-0.6353,-0.7884,-1.0964,-1.1141,-1.1578,-1.2277,-1.1431,-1.0726,0.0,0.0,0.0,-3.6103,-3.6447,-3.6462,-3.6462,-3.6462,-3.6282,-3.5639,-3.5504,-3.5504,-3.5504,-3.5504,-3.5504,-3.5504,-3.5504,-3.5504,-3.5504,-3.5504,-3.5504,-3.5504,-3.5504,-3.5504,-3.5504,-3.5489,-3.519,-3.4502,-3.3615,-3.2634,-3.1571,-3.0207,-2.8768,-2.7364,-2.7268,-2.7256,-2.7256,-2.579,-2.5266,-2.5791,-2.3229,-2.1838,-2.1397,-2.0372,-1.9707,-1.9326,-1.9297,-1.8574,-1.7448,-1.7728,-1.7612,-1.7259,-1.7511,-1.7589,-1.7413,-1.5898,-1.5245,-1.4866,-1.2617,-1.1546,-1.0934,-1.003,-0.9303,-0.8789,-0.8753,-0.9462,-0.995,-0.8492,-1.0132,-1.2232,-1.1853,-1.0871,-0.9849,-0.9769,-0.8653,-0.7577,-0.7171,-0.3445,-0.0179,-0.0,-0.0,-0.0,-0.0,-0.2454,-0.493,-0.6327,-0.7623,-0.7178,-0.3876,-0.3447,-0.0818,0.6192,0.6361,0.3576,-0.2181,-0.2994,-0.4013,-0.5888,-0.6169,-0.6254,-0.6338,-0.6338,-0.6404,-0.6628,-0.6421,-0.6976,-0.8448,-0.9105,-1.0038,-1.1147,-0.9673,-0.8592,-3.3589,0.0,0.0,0.0,0.0,0.0,-3.5774,-3.5774,-3.5729,-3.5549,-3.5504,-3.5504,-3.5504,-3.5504,-3.5504,-3.5504,-3.5504,-3.5504,-3.5504,-3.5504,-3.5504,-3.5504,-3.5504,-3.5504,-3.5504,-3.5055,-3.4487,-3.3814,-3.2335,-3.1121,-3.0358,-2.8786,-2.7703,-2.7281,-2.6892,-2.6691,-2.6691,-2.5888,-2.536,-2.5218,-2.3678,-2.2715,-2.2265,-2.0971,-2.0322,-2.0176,-1.9551,-1.8906,-1.8321,-1.8583,-1.8124,-1.7231,-1.7884,-1.7663,-1.7066,-1.6587,-1.4514,-1.1722,-1.1219,-1.087,-1.0374,-0.8781,-0.8278,-0.8087,-0.7211,-0.4985,-0.2561,-0.1729,-0.3392,-0.5743,-0.6719,-0.7067,-0.735,-0.828,-0.8077,-0.7647,-0.752,-0.6247,-0.4112,-0.0631,-0.0,-0.0,-0.0,-0.1934,-0.4091,-0.5798,-0.7224,-0.6817,-0.3343,-0.3084,-0.1752,0.1963,-0.0314,-0.2315,-0.2643,-0.4135,-0.53,-0.5962,-0.6074,-0.6142,-0.6254,-0.6338,-0.6362,-0.641,-0.6295,-0.5772,-0.4599,-0.6552,-0.8397,-1.0013,-0.6697,-0.5494,-3.2841,-3.3365,-3.3784,-3.4337,0.0,0.0,-3.5444,-3.5504,-3.5504,-3.5504,-3.5504,-3.5504,-3.5504,-3.5504,-3.5504,-3.5504,-3.5504,-3.5504,-3.5504,-3.5504,-3.5504,-3.5504,-3.5504,-3.5504,-3.5504,-3.5145,-3.4517,-3.3559,-3.1882,-3.0158,-2.8532,-2.7677,-2.718,-2.6942,-2.6697,-2.6533,-2.6533,-2.6181,-2.5995,-2.5934,-2.4399,-2.3638,-2.363,-2.1918,-2.1113,-2.1074,-2.04,-1.9844,-1.9404,-1.9444,-1.8583,-1.7246,-1.6999,-1.6526,-1.5999,-1.5207,-1.3342,-1.1072,-0.9965,-0.957,-0.9168,-0.6633,-0.5868,-0.5619,-0.3999,-0.1179,0.1698,0.3194,0.2187,0.0336,-0.0916,-0.2404,-0.3954,-0.5454,-0.6869,-0.7828,-0.7792,-0.7416,-0.5726,-0.0902,-0.0,-0.0637,-0.2611,-0.3057,-0.3871,-0.6201,-0.7262,-0.7175,-0.5657,-0.5196,-0.4319,-0.2473,-0.4134,-0.497,-0.3904,-0.5803,-0.6933,-0.6722,-0.6716,-0.684,-0.6942,-0.649,-0.6373,-0.6452,-0.5433,-0.4327,-0.3109,-0.4479,-0.6398,-0.8547,-0.6386,-0.5841,-3.1916,-3.2452,-3.2901,-3.4068,-3.4487,0.0,-3.537,-3.5444,-3.5385,-3.5385,-3.5325,-3.528,-3.528,-3.534,-3.537,-3.5295,-3.5415,-3.5504,-3.5504,-3.5504,-3.5504,-3.5504,-3.5504,-3.5504,-3.5504,-3.5365,-3.4763,-3.357,-3.1846,-2.9578,-2.6741,-2.6947,-2.6947,-2.6546,-2.6383,-2.6421,-2.6622,-2.6622,-2.6829,-2.7226,-2.5228,-2.458,-2.4848,-2.29,-2.1953,-2.1934,-2.1494,-2.1025,-2.0537,-2.0146,-1.8913,-1.7166,-1.5623,-1.4747,-1.4257,-1.2806,-1.1904,-1.1049,-0.8093,-0.7543,-0.7584,-0.4473,-0.2843,-0.1703,0.0444,0.2102,0.3938,0.6855,0.7019,0.6077,0.4924,0.2594,-0.0,-0.1943,-0.5291,-0.8008,-0.7966,-0.7554,-0.5818,-0.1529,-0.0719,-0.207,-0.6296,-0.5188,-0.4608,-0.7297,-0.7688,-0.8019,-0.9127,-0.8597,-0.7685,-0.6565,-0.6061,-0.5776,-0.5809,-0.7526,-0.8356,-0.7817,-0.7816,-0.7821,-0.7778,-0.6872,-0.641,-0.6561,-0.452,-0.3212,-0.2772,-0.2775,-0.3959,-0.6303,-0.737,-0.7921,-3.0669,-3.1972,-3.3365,-3.3619,-3.4502,0.0,-3.5474,-3.507,-3.4681,-3.4681,-3.4262,-3.3888,-3.3888,-3.4322,-3.4502,-3.3978,-3.4801,-3.5504,-3.5504,-3.5504,-3.5504,-3.5504,-3.5504,-3.5504,-3.5504,-3.4317,-3.3485,-3.3173,-3.102,-2.8952,-2.7226,-2.6455,-2.6188,-2.6477,-2.5734,-2.5871,-2.7118,-2.7118,-2.6952,-2.6668,-2.5721,-2.4938,-2.4164,-2.2962,-2.2393,-2.2363,-2.1943,-2.1309,-2.0557,-2.0469,-1.9036,-1.6688,-1.6127,-1.3974,-1.1439,-1.2467,-1.0269,-0.6245,-0.276,-0.352,-0.595,-0.5761,-0.1092,0.4555,0.4985,0.5378,0.662,1.1027,1.1935,1.1091,0.934,0.6526,0.3378,-0.0,-0.4486,-0.803,-0.7969,-0.7561,-0.6731,-0.5305,-0.5415,-0.5852,-0.6367,-0.7013,-0.7531,-0.7438,-0.8778,-0.9439,-0.8575,-0.9639,-0.9593,-0.7418,-0.7754,-0.811,-0.8135,-0.771,-0.7721,-0.8383,-0.8165,-0.7932,-0.777,-0.6872,-0.6285,-0.6335,-0.5876,-0.398,-0.0572,-0.0594,-0.0887,-0.1489,-0.5418,-0.7557,-3.0208,-3.138,-3.2781,-3.3847,-3.4287,0.0,0.0,-3.551,-3.4996,-3.4996,-3.411,-3.3495,-3.3916,-3.3636,-3.3406,-3.3483,-3.4053,-3.4502,-3.4502,-3.5085,-3.5279,-3.4839,-3.4758,-3.4543,-3.4124,-3.3331,-3.2554,-3.1834,-3.0274,-2.8924,-2.778,-2.6699,-2.6272,-2.6468,-2.5471,-2.5515,-2.6858,-2.6306,-2.6344,-2.6866,-2.5449,-2.4655,-2.4378,-2.3318,-2.2822,-2.2803,-2.2383,-2.1943,-2.1504,-2.0486,-1.8893,-1.698,-1.6087,-1.4182,-1.1878,-1.0876,-0.9468,-0.724,-0.1889,-0.1199,-0.2396,-0.0313,0.3247,0.6665,0.6417,0.6346,0.7414,1.221,1.3598,1.3331,1.1918,0.9561,0.6632,0.2713,-0.1216,-0.4009,-0.3984,-0.541,-0.7252,-0.8948,-0.8484,-0.7726,-0.7466,-0.8036,-0.8695,-0.9327,-1.0201,-1.0692,-1.0588,-1.1467,-1.1467,-0.9983,-1.0675,-1.134,-1.1524,-1.0918,-1.0749,-1.1338,-0.9967,-0.897,-0.8533,-0.7107,-0.6285,-0.6312,-0.6317,-0.525,-0.3177,-0.0999,-0.0,-0.0091,-0.3682,-0.612,-2.9889,-3.0969,-3.2291,-3.3894,-3.4059,-3.4227,0.0,0.0,0.0,-3.4809,-3.3543,-3.2796,-3.3676,-3.284,-3.2256,-3.3004,-3.3335,-3.344,-3.332,-3.4211,-3.4596,-3.3907,-3.3854,-3.3474,-3.2664,-3.2354,-3.1663,-3.0341,-2.9693,-2.9008,-2.826,-2.7031,-2.6376,-2.651,-2.5226,-2.5116,-2.6323,-2.5451,-2.5599,-2.6813,-2.4984,-2.4294,-2.4457,-2.328,-2.2765,-2.2755,-2.2149,-2.1873,-2.1646,-2.0032,-1.8555,-1.7138,-1.5823,-1.4387,-1.2625,-0.9634,-0.8934,-0.8694,-0.2242,-0.0,0.0628,0.4499,0.6351,0.7013,0.6534,0.6763,0.7939,1.1672,1.3266,1.3567,1.2503,1.1266,0.9366,0.5458,0.2265,-0.018,-0.1045,-0.4499,-0.8203,-1.0909,-1.0156,-0.9152,-0.9152,-0.9002,-0.955,-1.1211,-1.1553,-1.1883,-1.2838,-1.3114,-1.308,-1.2816,-1.3545,-1.4223,-1.4613,-1.4414,-1.4189,-1.4041,-1.1644,-1.0005,-0.9291,-0.6942,-0.5655,-0.568,-0.5283,-0.5501,-0.628,-0.2841,-0.0754,-0.0089,-0.1986,-0.4424,-2.9129,-3.1144,-3.3218,-3.2853,-3.3999,-3.4942,-3.3768,0.0,-3.3102,-3.2234,0.0,-3.0434,-3.1358,0.0,0.0,-3.1663,-3.2736,-3.329,-3.2706,-3.2585,-3.2717,-3.3163,-3.3168,-3.3018,-3.2623,-3.1442,-3.0433,-2.9884,-2.9303,-2.89,-2.8837,-2.6929,-2.6094,-2.6522,-2.4513,-2.4153,-2.5711,-2.5552,-2.5392,-2.5041,-2.4798,-2.4245,-2.3212,-2.2022,-2.148,-2.1471,-2.0352,-1.9608,-1.9184,-1.8687,-1.7641,-1.6265,-1.5482,-1.3431,-1.092,-1.0481,-0.8484,-0.5439,-0.1429,-0.0,0.0079,0.0628,0.3671,0.7016,0.6715,0.7804,0.9269,0.9832,1.0722,1.1113,0.9628,1.0289,1.0587,0.7495,0.3316,-0.1019,-0.4744,-0.8769,-1.098,-0.8631,-0.9734,-1.1017,-1.1017,-1.1228,-1.1473,-1.1772,-1.2554,-1.3131,-1.2997,-1.3554,-1.4232,-1.4877,-1.5013,-1.5264,-1.5836,-1.5534,-1.4766,-1.3515,-1.1385,-0.9918,-0.9362,-0.552,-0.3437,-0.3439,-0.1643,-0.2592,-0.6277,-0.5833,-0.3637,-0.0,-0.0259,-0.2828,-2.9002,-3.0655,-3.2494,-3.3062,-3.3125,-3.3134,-3.3623,-3.3033,-3.2302,-3.2221,0.0,0.0,0.0,0.0,0.0,0.0,-3.2003,-3.1931,-3.0867,-3.0628,-3.0864,-3.165,-3.1334,-3.088,-3.048,-2.9908,-2.9604,-2.9831,-2.9252,-2.8748,-2.848,-2.7047,-2.5987,-2.5532,-2.3971,-2.3466,-2.4084,-2.3418,-2.2975,-2.2679,-2.2026,-2.1453,-2.0944,-2.0486,-2.0305,-2.0215,-1.9761,-1.9406,-1.9142,-1.816,-1.7422,-1.6924,-1.5183,-1.3312,-1.1569,-1.1591,-0.9163,-0.5331,-0.1383,-0.0,0.0236,0.1432,0.419,0.7038,0.6841,0.7427,0.83,0.9061,0.9691,1.0048,0.9361,0.9952,0.9561,0.462,0.1215,-0.1838,-0.5064,-0.8238,-1.0461,-1.0603,-1.0963,-1.164,-1.3044,-1.2647,-1.247,-1.3395,-1.3899,-1.4338,-1.4951,-1.5284,-1.5793,-1.6522,-1.6914,-1.7101,-1.7073,-1.6052,-1.4924,-1.383,-1.0657,-0.8435,-0.7573,-0.3498,-0.0156,0.2268,0.164,0.0546,-0.0859,-0.2051,-0.1115,0.1776,0.0593,-0.1045,-2.8795,-3.011,-3.1642,-3.254,-3.1961,-3.1305,-3.2062,-3.1699,-3.1155,-3.098,-3.0564,0.0,0.0,0.0,-3.0584,-3.1351,0.0,-3.0572,-2.9522,-2.8981,-2.9002,-2.9857,-2.9227,-2.8609,-2.8325,-2.8164,-2.845,-2.9503,-2.9026,-2.8521,-2.8128,-2.7035,-2.5975,-2.4872,-2.3347,-2.2551,-2.2562,-2.1364,-2.0604,-2.0133,-1.9315,-1.88,-1.8409,-1.8049,-1.7957,-1.7964,-1.7602,-1.7609,-1.7872,-1.6634,-1.6584,-1.7009,-1.4933,-1.2784,-1.0886,-1.0869,-0.8946,-0.5861,-0.2758,-0.0943,0.0471,0.3112,0.5361,0.6941,0.6847,0.6922,0.7325,0.8304,0.8284,0.7905,0.7935,0.7458,0.5962,0.1331,-0.1614,-0.3997,-0.5952,-0.8098,-1.011,-1.16,-1.1661,-1.2013,-1.3885,-1.358,-1.3429,-1.4691,-1.4891,-1.5185,-1.611,-1.6553,-1.7079,-1.7763,-1.8429,-1.8666,-1.8116,-1.6641,-1.495,-1.3273,-0.9782,-0.7338,-0.6369,-0.2257,0.2493,0.7852,0.5401,0.4281,0.4828,0.2716,0.2485,0.3904,0.1821,0.0512,-2.8346,-2.9707,-3.1172,-3.0569,-3.069,-3.0383,-2.7928,-2.8529,-2.9041,-2.715,-2.7713,-2.8852,-2.9717,-3.0128,-3.0584,-3.1351,-3.0353,0.0,0.0,-2.8016,-2.7154,-2.771,-2.713,-2.6677,-2.6701,-2.6234,-2.676,-2.88,-2.8448,-2.8126,-2.8116,-2.7035,-2.5975,-2.4872,-2.26,-2.1382,-2.1373,-2.0124,-1.8891,-1.7612,-1.7612,-1.6936,-1.5678,-1.4514,-1.3969,-1.388,-1.2689,-1.2909,-1.4046,-1.3684,-1.4457,-1.5722,-1.4519,-1.131,-0.7295,-0.7236,-0.6867,-0.6267,-0.6183,-0.3438,0.0706,0.4873,0.6421,0.6739,0.6795,0.6905,0.7105,0.6966,0.5521,0.3984,0.381,0.1549,-0.0838,-0.1233,-0.4671,-0.8042,-0.8781,-1.0084,-1.0779,-0.9787,-1.0962,-1.236,-1.296,-1.3942,-1.4814,-1.5312,-1.5371,-1.5409,-1.5432,-1.6671,-1.7763,-1.8289,-1.9171,-1.9526,-1.8937,-1.7506,-1.501,-1.1064,-0.8888,-0.7338,-0.6369,-0.2257,0.3818,1.1964,1.0143,0.9096,0.9113,0.7076,0.6146,0.6153,0.4002,0.1887,-2.6835,-2.7728,-2.8519,-2.8023,-2.7601,-2.7091,-2.6279,-2.6069,-2.6137,-2.6518,-2.754,-2.8651,-2.9611,-3.0502,-3.0881,-3.0236,-2.9726,-2.874,0.0,-2.5419,-2.4523,-2.442,-2.4769,-2.5107,-2.5107,-2.4946,-2.5292,-2.6382,-2.6188,-2.5911,-2.5529,-2.5456,-2.4511,-2.2522,-2.1728,-2.0567,-1.8948,-1.8503,-1.726,-1.5164,-1.5164,-1.4386,-1.3137,-1.2775,-1.2496,-1.2496,-1.2129,-1.2139,-1.2619,-1.2437,-1.372,-1.5572,-1.3318,-1.0178,-0.7071,-0.7132,-0.6975,-0.6374,-0.3204,-0.1184,0.0471,0.3287,0.5347,0.6709,0.6478,0.6753,0.7071,0.6742,0.4964,0.2613,0.0625,-0.2762,-0.5759,-0.6186,-0.8035,-0.962,-0.9302,-1.003,-1.079,-1.1008,-1.1551,-1.2329,-1.3563,-1.4081,-1.4607,-1.5313,-1.5816,-1.6208,-1.6343,-1.7879,-1.9054,-1.9321,-2.0082,-2.011,-1.8978,-1.4923,-1.1631,-0.9857,-0.7936,-0.6631,-0.6278,-0.2277,0.2686,0.8449,0.8582,0.8838,0.9329,0.8796,0.8789,0.9155,0.7111,0.5515,-2.5866,-2.6174,-2.6569,-2.6321,-2.5469,-2.4668,-2.4388,-2.4152,-2.4299,-2.5292,-2.6851,-2.8292,-2.9361,-3.0219,-3.0469,-2.9537,-2.8537,-2.7134,0.0,-2.3724,-2.2913,-2.2473,-2.3075,-2.3459,-2.3459,-2.3459,-2.3895,-2.4779,-2.4812,-2.4557,-2.4249,-2.4022,-2.313,-2.1382,-2.0486,-1.9314,-1.7692,-1.7225,-1.5697,-1.3199,-1.3109,-1.2245,-1.0485,-1.0506,-1.0515,-1.0485,-1.0485,-1.0779,-1.1268,-1.1268,-1.2247,-1.3725,-1.2085,-0.9717,-0.7112,-0.7142,-0.6028,-0.4161,-0.1035,0.102,0.2359,0.3081,0.4885,0.6702,0.6481,0.6719,0.6976,0.6711,0.4062,0.0862,-0.1576,-0.5386,-0.8628,-0.892,-0.9788,-1.045,-0.9868,-1.0174,-1.0744,-1.1288,-1.1586,-1.2197,-1.3545,-1.4025,-1.4451,-1.5294,-1.6036,-1.6684,-1.7108,-1.8586,-1.9975,-2.0902,-2.084,-1.9778,-1.7431,-1.3623,-1.0833,-0.9362,-0.7863,-0.6064,-0.4046,-0.1361,0.2417,0.7316,0.8277,0.9211,1.0046,1.0162,1.0231,1.0273,0.8722,0.6972]},{"header":{"parameterUnit":"m.s-1","parameterCategory":1,"la1":30.6,"la2":29.2853,"lo1":-89.7004,"lo2":-87.6739,"dy":0.0162,"dx":0.0183,"nx":112,"ny":82,"refTime":"2023-07-04T06:00:00:Z","depth":0,"parameterNumber":3,"parameterNumberName":"V-component_of_WINDS"},"data":[0.0,0.0,0.0,0.0,0.0,0.0,0.0,0.0,0.0,0.0,0.0,0.0,0.0,0.0,0.0,0.0,0.0,0.0,0.0,0.0,0.0,0.0,0.0,0.0,0.0,0.0,0.0,0.0,0.0,0.0,0.0,0.0,0.0,0.0,0.0,0.0,0.0,0.0,0.0,0.0,0.0,0.0,0.0,0.0,0.0,0.0,0.0,0.0,0.0,0.0,0.0,0.0,0.0,0.0,0.0,0.0,0.0,0.0,0.0,0.0,0.0,0.0,0.0,0.0,0.0,0.0,0.0,0.0,0.0,0.0,0.0,0.0,0.0,0.0,0.0,0.0,0.0,0.0,0.0,0.0,0.0,0.0,0.0,0.0,0.0,0.0,0.0,0.0,0.0,0.0,-0.3671,-0.4043,-0.6523,-0.906,-1.1562,-1.2026,-1.3582,-1.6738,0.0,0.0,0.0,0.0,0.0,0.0,0.0,0.0,0.0,0.0,0.0,0.0,0.0,0.0,0.0,0.0,0.0,0.0,0.0,0.0,0.0,0.0,0.0,0.0,0.0,0.0,0.0,0.0,0.0,0.0,0.0,0.0,0.0,0.0,0.0,0.0,0.0,0.0,0.0,0.0,0.0,0.0,0.0,0.0,0.0,0.0,0.0,0.0,0.0,0.0,0.0,0.0,0.0,0.0,0.0,0.0,0.0,0.0,0.0,0.0,0.0,0.0,0.0,0.0,0.0,0.0,0.0,0.0,0.0,0.0,0.0,0.0,0.0,0.0,0.0,0.0,0.0,0.0,0.0,0.0,0.0,0.0,0.0,0.0,0.0,0.0,0.0,0.0,0.0,0.0,0.0,0.0,0.0,0.0,0.0,0.0,0.0,0.0,0.0,0.0,0.0,0.0,0.0,0.0,-0.4837,-0.5415,-0.7861,-1.0162,-1.1686,-1.2887,-1.4517,-1.6738,0.0,0.0,0.0,0.0,0.0,0.0,0.0,0.0,0.0,0.0,0.0,0.0,0.0,0.0,0.0,0.0,0.0,0.0,0.0,0.0,0.0,0.0,0.0,0.0,0.0,0.0,0.0,0.0,0.0,0.0,0.0,0.0,0.0,0.0,0.0,0.0,0.0,0.0,0.0,0.0,0.0,0.0,0.0,0.0,0.0,0.0,0.0,0.0,0.0,0.0,0.0,0.0,0.0,0.0,0.0,0.0,0.0,0.0,0.0,0.0,0.0,0.0,0.0,0.0,0.0,0.0,0.0,0.0,0.0,0.0,0.0,0.0,0.0,0.0,0.0,0.0,0.0,0.0,0.0,0.0,0.0,0.0,0.0,0.0,0.0,0.0,0.0,0.0,0.0,0.0,0.0,0.0,0.0,0.0,0.0,0.0,0.0,0.0,0.0,0.0,0.0,0.0,0.0,-0.6292,-0.5793,-0.5663,-0.8045,-1.0198,-1.1647,-1.3121,-1.4864,-1.7115,-1.7016,0.0,0.0,0.0,0.0,0.0,0.0,0.0,0.0,0.0,0.0,0.0,0.0,0.0,0.0,0.0,0.0,0.0,0.0,0.0,0.0,0.0,0.0,0.0,0.0,0.0,0.0,0.0,0.0,0.0,0.0,0.0,0.0,0.0,0.0,0.0,0.0,0.0,0.0,0.0,0.0,0.0,0.0,0.0,0.0,0.0,0.0,0.0,0.0,0.0,0.0,0.0,0.0,0.0,0.0,0.0,0.0,0.0,0.0,0.0,0.0,0.0,0.0,0.0,0.0,0.0,0.0,0.0,0.0,0.0,0.0,0.0,0.0,0.0,0.0,0.0,0.0,0.0,0.0,0.0,0.0,0.0,0.0,0.0,0.0,0.0,0.0,0.0,0.0,0.0,0.0,0.0,0.0,0.0,0.0,0.0,0.0,0.0,0.0,0.0,0.0,0.0,0.0,-0.6915,-0.6734,-0.6548,-0.8637,-1.0599,-1.2047,-1.3423,-1.5232,-1.7447,-1.7195,0.0,0.0,0.0,0.0,0.0,0.0,0.0,0.0,0.0,0.0,0.0,0.0,0.0,0.0,0.0,0.0,0.0,0.0,0.0,0.0,0.0,0.0,0.0,0.0,0.0,0.0,0.0,0.0,0.0,0.0,0.0,0.0,0.0,0.0,0.0,0.0,0.0,0.0,0.0,0.0,0.0,0.0,0.0,0.0,0.0,0.0,0.0,0.0,0.0,0.0,0.0,0.0,0.0,0.0,0.0,0.0,0.0,0.0,0.0,0.0,0.0,0.0,0.0,0.0,0.0,0.0,0.0,0.0,0.0,0.0,0.0,0.0,0.0,0.0,0.0,0.0,0.0,0.0,0.0,0.0,0.0,0.0,0.0,0.0,0.0,0.0,0.0,0.0,0.0,0.0,0.0,0.0,0.0,0.0,0.0,0.0,0.0,0.0,0.0,0.0,0.0,0.0,-0.7563,-0.7807,-0.9103,-1.0604,-1.2147,-1.3634,-1.4703,-1.5958,-1.7516,-1.7294,0.0,0.0,0.0,0.0,0.0,0.0,0.0,0.0,0.0,0.0,0.0,0.0,0.0,0.0,0.0,0.0,0.0,0.0,0.0,0.0,0.0,0.0,0.0,0.0,0.0,0.0,0.0,0.0,0.0,0.0,0.0,0.0,0.0,0.0,0.0,0.0,0.0,0.0,0.0,0.0,0.0,0.0,0.0,0.0,0.0,0.0,0.0,0.0,0.0,0.0,0.0,0.0,0.0,0.0,0.0,0.0,0.0,0.0,0.0,0.0,0.0,0.0,0.0,0.0,0.0,0.0,0.0,0.0,0.0,0.0,0.0,0.0,0.0,0.0,0.0,0.0,0.0,0.0,0.0,0.0,0.0,0.0,0.0,0.0,0.0,0.0,0.0,0.0,0.0,0.0,0.0,0.0,0.0,0.0,0.0,0.0,0.0,0.0,0.0,0.0,0.0,0.0,-1.0469,-1.0543,-1.0865,-1.2125,-1.3225,-1.3855,-1.5691,-1.713,-1.7924,0.0,0.0,0.0,0.0,0.0,0.0,0.0,0.0,0.0,0.0,0.0,0.0,0.0,0.0,0.0,0.0,0.0,0.0,0.0,0.0,0.0,0.0,0.0,0.0,0.0,0.0,0.0,0.0,0.0,0.0,0.0,0.0,0.0,0.0,0.0,0.0,0.0,0.0,0.0,0.0,0.0,0.0,0.0,0.0,0.0,0.0,0.0,0.0,0.0,0.0,0.0,0.0,0.0,0.0,0.0,0.0,0.0,0.0,0.0,0.0,0.0,0.0,0.0,0.0,0.0,0.0,0.0,0.0,0.0,0.0,0.0,0.0,0.0,0.0,0.0,0.0,0.0,0.0,0.0,0.0,0.0,0.0,0.0,0.0,0.0,0.0,0.0,0.0,0.0,0.0,0.0,0.0,0.0,0.0,0.0,0.0,0.0,0.0,0.0,0.0,0.0,0.0,-1.2619,-1.2546,-1.254,-1.2318,-1.3561,-1.4528,-1.5095,-1.7001,-1.8229,-1.8548,0.0,0.0,0.0,0.0,0.0,0.0,0.0,0.0,0.0,0.0,0.0,0.0,0.0,0.0,0.0,0.0,0.0,0.0,0.0,0.0,0.0,0.0,0.0,0.0,0.0,0.0,0.0,0.0,0.0,0.0,0.0,0.0,0.0,0.0,0.0,0.0,0.0,0.0,0.0,0.0,0.0,0.0,0.0,0.0,0.0,0.0,0.0,0.0,0.0,0.0,0.0,0.0,0.0,0.0,0.0,0.0,0.0,0.0,0.0,0.0,0.0,0.0,0.0,0.0,0.0,0.0,0.0,0.0,0.0,0.0,0.0,0.0,0.0,0.0,0.0,0.0,0.0,0.0,0.0,0.0,0.0,0.0,0.0,0.0,0.0,0.0,0.0,0.0,0.0,0.0,0.0,0.0,0.0,0.0,0.0,0.0,0.0,0.0,0.0,0.0,0.0,0.0,-1.3635,-1.3364,-1.3496,-1.3701,-1.4922,-1.6216,-1.7591,-1.8544,-1.9177,0.0,0.0,0.0,0.0,0.0,0.0,0.0,0.0,0.0,0.0,0.0,0.0,0.0,0.0,0.0,0.0,0.0,0.0,0.0,0.0,0.0,0.0,0.0,0.0,0.0,0.0,0.0,0.0,0.0,0.0,0.0,0.0,0.0,0.0,0.0,0.0,0.0,0.0,0.0,0.0,0.0,0.0,0.0,0.0,0.0,0.0,0.0,0.0,0.0,0.0,0.0,0.0,0.0,0.0,0.0,0.0,0.0,0.0,0.0,0.0,0.0,0.0,0.0,0.0,0.0,0.0,0.0,0.0,0.0,0.0,0.0,0.0,0.0,0.0,0.0,0.0,0.0,0.0,0.0,0.0,0.0,0.0,0.0,0.0,0.0,0.0,0.0,0.0,0.0,0.0,0.0,0.0,0.0,0.0,0.0,0.0,0.0,0.0,0.0,0.0,0.0,0.0,0.0,-1.5482,-1.5736,-1.6148,-1.6486,-1.6858,-1.7654,-1.8856,-1.9703,-1.9945,-1.9424,0.0,0.0,0.0,0.0,0.0,0.0,0.0,0.0,0.0,0.0,0.0,0.0,0.0,0.0,0.0,0.0,0.0,0.0,0.0,0.0,0.0,0.0,0.0,0.0,0.0,0.0,0.0,0.0,0.0,0.0,0.0,0.0,0.0,0.0,0.0,0.0,0.0,0.0,0.0,0.0,0.0,0.0,0.0,0.0,0.0,0.0,0.0,0.0,0.0,0.0,0.0,0.0,0.0,0.0,0.0,0.0,0.0,0.0,0.0,0.0,0.0,0.0,0.0,0.0,0.0,0.0,0.0,0.0,0.0,0.0,0.0,0.0,0.0,0.0,0.0,0.0,0.0,0.0,0.0,0.0,0.0,0.0,0.0,0.0,0.0,0.0,0.0,0.0,0.0,0.0,0.0,0.0,0.0,0.0,0.0,0.0,0.0,0.0,0.0,0.0,0.0,0.0,-1.7538,-1.7834,-1.8185,-1.8381,-1.8719,-1.9155,-1.9945,-2.0713,-2.0765,-1.9678,0.0,0.0,0.0,0.0,0.0,0.0,0.0,0.0,0.0,0.0,0.0,0.0,0.0,0.0,0.0,0.0,0.0,0.0,0.0,0.0,0.0,0.0,0.0,0.0,0.0,0.0,0.0,0.0,0.0,0.0,0.0,0.0,0.0,0.0,0.0,0.0,0.0,0.0,0.0,0.0,0.0,0.0,0.0,0.0,0.0,0.0,0.0,0.0,0.0,0.0,0.0,0.0,0.0,0.0,0.0,0.0,0.0,0.0,0.0,0.0,0.0,0.0,0.0,0.0,0.0,0.0,0.0,0.0,0.0,0.0,0.0,0.0,0.0,0.0,0.0,0.0,0.0,0.0,0.0,0.0,0.0,0.0,0.0,0.0,0.0,0.0,0.0,0.0,0.0,0.0,0.0,0.0,0.0,0.0,0.0,0.0,0.0,0.0,0.0,0.0,0.0,0.0,-1.937,-1.9538,-1.9637,-1.9686,-2.03,-2.0718,-2.0867,-2.1459,-2.1247,-1.998,0.0,0.0,0.0,0.0,0.0,0.0,0.0,0.0,0.0,0.0,0.0,0.0,0.0,0.0,0.0,0.0,0.0,0.0,0.0,0.0,0.0,0.0,0.0,0.0,0.0,0.0,0.0,0.0,0.0,0.0,0.0,0.0,0.0,0.0,0.0,0.0,0.0,0.0,0.0,0.0,0.0,0.0,0.0,0.0,0.0,0.0,0.0,0.0,0.0,0.0,0.0,0.0,0.0,0.0,0.0,0.0,0.0,0.0,0.0,0.0,-2.0783,-2.0783,0.0,0.0,0.0,0.0,0.0,0.0,0.0,0.0,0.0,0.0,0.0,0.0,0.0,0.0,0.0,0.0,0.0,0.0,0.0,0.0,0.0,0.0,0.0,0.0,0.0,0.0,0.0,0.0,0.0,0.0,0.0,0.0,0.0,0.0,0.0,0.0,0.0,0.0,0.0,0.0,-1.9949,-2.049,-2.0944,-2.0889,-2.0773,-2.1105,-2.2003,-2.1617,-2.0968,-1.9952,-1.9813,0.0,0.0,0.0,0.0,0.0,0.0,0.0,0.0,0.0,0.0,0.0,0.0,0.0,0.0,0.0,0.0,0.0,0.0,0.0,0.0,0.0,0.0,0.0,0.0,0.0,0.0,0.0,0.0,0.0,0.0,0.0,0.0,0.0,0.0,0.0,0.0,0.0,0.0,0.0,0.0,0.0,0.0,0.0,0.0,0.0,0.0,0.0,0.0,0.0,0.0,0.0,0.0,0.0,0.0,0.0,0.0,0.0,0.0,0.0,-2.2602,-2.2336,0.0,0.0,0.0,0.0,0.0,0.0,0.0,0.0,0.0,0.0,0.0,0.0,0.0,0.0,0.0,0.0,0.0,0.0,0.0,0.0,0.0,0.0,0.0,0.0,0.0,0.0,0.0,0.0,0.0,0.0,0.0,0.0,0.0,0.0,0.0,0.0,0.0,0.0,0.0,0.0,-2.1919,-2.2064,-2.2577,-2.3644,-2.2283,-2.1783,-2.2885,-2.1715,-2.0713,-2.0278,-2.0212,0.0,0.0,0.0,0.0,0.0,0.0,0.0,0.0,0.0,0.0,0.0,0.0,0.0,0.0,0.0,0.0,0.0,0.0,0.0,0.0,0.0,0.0,0.0,0.0,0.0,0.0,0.0,0.0,0.0,0.0,0.0,0.0,0.0,0.0,0.0,0.0,0.0,0.0,0.0,0.0,0.0,0.0,0.0,0.0,0.0,0.0,0.0,0.0,0.0,0.0,0.0,0.0,0.0,-2.361,-2.4583,-2.4618,-2.5551,-2.6035,-2.582,-2.4284,-2.3937,-2.4521,-2.4443,0.0,0.0,0.0,0.0,0.0,0.0,0.0,0.0,0.0,0.0,0.0,0.0,0.0,0.0,0.0,0.0,0.0,0.0,0.0,0.0,0.0,0.0,-2.7128,-2.8712,-2.8843,-2.8093,-2.6152,0.0,0.0,0.0,0.0,0.0,0.0,0.0,0.0,0.0,0.0,0.0,-2.4021,-2.3859,-2.4446,-2.6259,-2.4125,-2.2869,-2.3652,-2.222,-2.1171,-2.0868,-2.0878,-2.074,0.0,0.0,0.0,0.0,0.0,0.0,0.0,0.0,0.0,0.0,0.0,0.0,0.0,0.0,0.0,0.0,0.0,0.0,0.0,0.0,0.0,0.0,0.0,0.0,0.0,0.0,0.0,0.0,0.0,0.0,0.0,0.0,-1.375,-1.6239,0.0,0.0,0.0,0.0,0.0,0.0,0.0,0.0,0.0,0.0,0.0,0.0,0.0,-1.7018,-1.7439,-2.0783,-2.2501,-2.2678,-2.6129,-2.7544,-2.7195,-2.7412,-2.7207,-2.6865,-2.7017,0.0,-2.4951,-2.457,0.0,0.0,0.0,0.0,0.0,0.0,0.0,0.0,0.0,0.0,0.0,0.0,0.0,0.0,0.0,0.0,0.0,0.0,0.0,0.0,0.0,0.0,-2.9822,-2.9706,-3.0348,-3.0891,-3.0593,-2.8386,-2.6749,-2.7525,-2.6378,-2.5126,0.0,0.0,0.0,0.0,0.0,0.0,-2.4187,-2.5265,-2.6179,-2.6499,-2.5768,-2.5125,-2.4867,-2.4207,-2.3235,-2.1916,-2.2116,-2.2286,-2.2325,-2.2165,0.0,0.0,0.0,0.0,0.0,0.0,0.0,0.0,0.0,0.0,0.0,0.0,0.0,0.0,0.0,0.0,0.0,0.0,0.0,0.0,0.0,0.0,0.0,0.0,0.0,0.0,0.0,0.0,0.0,-1.2346,-1.5287,-1.7943,-1.8059,-1.8248,0.0,0.0,0.0,0.0,0.0,0.0,0.0,0.0,0.0,-1.7689,-1.7836,-1.8961,-2.1046,-2.265,-2.4222,-2.5977,-2.7554,-2.8193,-2.8018,-2.8018,-2.791,-2.7744,-2.7939,-2.7314,-2.6123,-2.5703,-2.5127,-2.4463,0.0,0.0,0.0,0.0,-2.3857,-2.3977,-2.4746,-2.5007,-2.5206,-2.6691,0.0,0.0,0.0,0.0,0.0,0.0,0.0,-2.7209,-2.813,-2.9413,-3.0615,-3.1071,-3.1296,-3.1448,-3.1769,-3.0274,-2.901,-2.951,-2.9065,-2.8279,-2.7041,-2.6221,0.0,0.0,0.0,-2.5418,-2.6253,-2.6501,-2.7021,-2.8217,-2.656,-2.5459,-2.5902,-2.4384,-2.322,-2.2786,-2.2582,-2.2468,-2.2468,-2.265,-2.2777,0.0,0.0,0.0,0.0,0.0,0.0,0.0,0.0,0.0,0.0,0.0,0.0,0.0,0.0,0.0,0.0,0.0,0.0,0.0,0.0,0.0,0.0,0.0,0.0,0.0,0.0,0.0,0.0,-1.4574,-1.7424,-1.9711,-2.0313,-2.0818,0.0,0.0,0.0,0.0,0.0,0.0,-1.8297,-1.819,-1.825,-1.8698,-1.8784,-2.0202,-2.3263,-2.3599,-2.5212,-2.7898,-2.8125,-2.835,-2.8447,-2.834,-2.8232,-2.8135,-2.8135,-2.7646,-2.6836,-2.6514,-2.5869,-2.5029,-2.459,-2.4414,-2.4414,-2.4414,-2.4414,-2.4463,-2.5149,-2.5361,-2.5531,-2.6987,-2.7514,-2.7611,-2.7454,0.0,0.0,0.0,0.0,-2.8595,-2.9726,-3.0425,-3.0981,-3.185,-3.1711,-3.1509,-3.1907,-3.1385,-3.0803,-3.0648,-3.0833,-3.0468,-2.8821,-2.8023,0.0,-2.6989,-2.6645,-2.6771,-2.7956,-2.7626,-2.7912,-2.9387,-2.7422,-2.6234,-2.6709,-2.4988,-2.384,-2.3704,-2.3286,-2.2942,-2.254,-2.287,-2.2774,-2.2135,0.0,0.0,0.0,0.0,0.0,0.0,0.0,0.0,0.0,0.0,0.0,0.0,0.0,0.0,0.0,0.0,0.0,0.0,0.0,0.0,0.0,0.0,0.0,0.0,0.0,0.0,0.0,0.0,0.0,-2.1139,-2.4078,0.0,0.0,0.0,0.0,-2.2072,-2.0885,-2.0536,-2.1186,-1.9997,-1.9292,-1.9325,-1.9593,-2.0405,-2.1699,-2.3151,-2.4787,-2.6743,-2.7819,-2.8506,-2.8877,-2.8476,-2.8076,-2.7695,-2.7695,-2.7217,-2.6416,-2.6396,-2.5869,-2.5029,-2.459,-2.4414,-2.4414,-2.4414,-2.4414,-2.4598,-2.5694,-2.6055,-2.6298,-2.8121,-2.916,-2.9687,-2.9621,-2.8852,0.0,0.0,-2.9246,-2.9141,-3.0227,-3.0963,-3.1373,-3.1448,-3.1378,-3.1449,-3.1409,-3.1378,-3.1229,-3.0726,-3.0226,-2.9854,-2.9714,0.0,-2.806,-2.8004,-2.7992,-2.798,-2.8084,-2.9028,-2.9464,-2.8975,-2.8795,-2.8337,-2.7367,-2.7118,-2.6398,-2.4801,-2.4719,-2.4197,-2.3078,-2.3065,-2.3334,-2.3885,-2.285,0.0,0.0,0.0,0.0,0.0,0.0,0.0,0.0,0.0,0.0,0.0,0.0,0.0,0.0,0.0,0.0,0.0,0.0,0.0,0.0,0.0,0.0,0.0,0.0,0.0,0.0,0.0,0.0,-2.4551,-2.6655,0.0,-2.7259,-2.7103,-2.6461,-2.4863,-2.449,-2.3706,-2.2048,-2.1494,-2.1104,-2.1111,-2.1219,-2.2465,-2.5087,-2.5432,-2.6403,-2.8129,-2.8271,-2.8232,-2.8105,-2.7959,-2.7656,-2.7246,-2.7246,-2.6924,-2.6387,-2.6387,-2.6035,-2.5488,-2.5322,-2.5264,-2.5264,-2.5264,-2.5264,-2.5264,-2.5729,-2.5625,-2.5675,-2.7184,-2.8654,-2.9757,-2.9774,-2.9524,-2.9372,-3.0072,-2.9924,-2.9628,-3.0425,-3.0487,-3.0375,-3.0379,-3.0378,-3.0375,-3.0379,-3.0378,-3.0337,-3.011,-3.0209,-3.0218,-2.9854,-2.9456,-2.9197,-2.9197,-2.8876,-2.8778,-2.9147,-2.8911,-2.875,-2.8863,-2.8263,-2.7754,-2.7339,-2.6312,-2.5597,-2.5358,-2.4313,-2.372,-2.369,-2.3339,-2.2896,-2.2394,-2.197,-2.1784,0.0,0.0,0.0,0.0,0.0,0.0,0.0,0.0,0.0,0.0,0.0,0.0,0.0,0.0,0.0,0.0,0.0,0.0,0.0,0.0,0.0,0.0,0.0,0.0,0.0,-2.1788,-2.5236,-2.6261,-2.8624,-2.9828,-2.9246,-2.9711,-2.9227,-2.721,-2.6847,-2.5796,-2.3956,-2.3386,-2.2991,-2.2759,-2.2296,-2.3491,-2.6718,-2.5887,-2.6482,-2.8496,-2.8066,-2.7715,-2.7441,-2.7441,-2.7217,-2.6807,-2.6807,-2.6562,-2.6172,-2.6172,-2.5996,-2.5742,-2.5742,-2.5742,-2.5742,-2.5742,-2.5644,-2.5488,-2.5342,-2.5273,-2.5442,-2.6683,-2.8057,-2.9303,-2.9661,-2.9792,-2.9894,-3.02,-2.9792,-2.9324,-2.9661,-2.9523,-2.9245,-2.9245,-2.9524,-2.9792,-2.9792,-2.9792,-2.9792,-2.9792,-3.0093,-3.0218,-2.9854,-2.9792,-2.9792,-2.9792,-2.9302,-2.9063,-2.9453,-2.8687,-2.8172,-2.8348,-2.7717,-2.7234,-2.7072,-2.6038,-2.541,-2.5564,-2.4368,-2.3791,-2.3991,-2.3439,-2.2786,-2.2058,-2.1949,-2.2098,-2.2499,0.0,0.0,0.0,0.0,0.0,0.0,0.0,0.0,0.0,0.0,0.0,0.0,0.0,0.0,0.0,0.0,0.0,0.0,0.0,0.0,0.0,0.0,0.0,-1.9069,-2.4162,-2.7409,-2.6267,-3.0278,-3.2035,-2.9462,-2.9937,-3.0034,-2.9015,-2.7475,-2.6727,-2.7086,-2.5591,-2.4606,-2.4252,-2.2859,-2.3366,-2.6027,-2.4233,-2.4817,-2.7637,-2.7217,-2.7012,-2.6992,-2.6992,-2.6768,-2.6367,-2.6367,-2.6123,-2.5713,-2.5713,-2.5713,-2.5693,-2.5723,-2.5742,-2.5742,-2.5723,-2.543,-2.498,-2.4551,-2.4826,-2.5553,-2.6715,-2.7527,-2.8339,-2.9477,-2.9779,-2.9767,-2.9767,-2.8926,-2.8077,-2.8077,-2.8065,-2.8053,-2.813,-2.8926,-2.9792,-2.9792,-2.9792,-2.9792,-2.9792,-2.9792,-2.9792,-2.9792,-2.9792,-2.9779,-2.9767,-2.9277,0.0,-2.89,-2.8411,-2.7858,-2.7344,-2.7269,-2.7024,-2.6527,-2.6508,-2.6269,-2.5715,-2.5161,-2.462,-2.4104,-2.3513,-2.3173,-2.3148,-2.2841,-2.3232,-2.447,0.0,0.0,0.0,0.0,0.0,0.0,0.0,0.0,0.0,0.0,0.0,0.0,0.0,0.0,0.0,0.0,0.0,0.0,0.0,0.0,0.0,-2.1293,-2.2909,-2.337,-2.6982,-2.9963,-3.1034,-3.3481,-3.4394,-3.2635,-3.2729,-3.1891,-2.9597,-2.9041,-2.8164,-2.683,-2.6362,-2.5492,-2.3987,-2.4633,-2.5125,-2.5613,-2.618,-2.6741,-2.7197,-2.707,-2.6855,-2.6562,-2.6562,-2.6328,-2.5918,-2.5918,-2.5664,-2.5254,-2.5254,-2.5059,-2.4844,-2.5488,-2.5742,-2.5693,-2.5371,-2.4971,-2.4531,-2.4111,-2.4555,-2.5546,-2.6431,-2.7275,-2.83,-2.9484,-2.9245,-2.8598,-2.8598,-2.7812,-2.6941,-2.6941,-2.6936,-2.7149,-2.7947,-2.8347,-2.8767,-2.9624,-2.9792,-2.9792,-2.9792,-2.9792,-2.9792,-2.9792,-2.9792,-2.9654,-2.9227,-2.8687,-2.8335,-2.8335,-2.7507,-2.7005,-2.7256,-2.6934,-2.6659,-2.6477,-2.667,-2.6896,-2.709,-2.6401,-2.6094,-2.629,-2.532,-2.4377,-2.3474,-2.3797,-2.3928,0.0,0.0,0.0,0.0,0.0,0.0,0.0,0.0,0.0,0.0,0.0,0.0,0.0,0.0,0.0,0.0,0.0,0.0,0.0,0.0,0.0,0.0,-2.3709,-2.5766,-2.7632,-2.9712,-3.1742,-3.3467,-3.5087,-3.5565,-3.4141,-3.3514,-3.2256,-3.0083,-2.9352,-2.8588,-2.7444,-2.7315,-2.6527,-2.4829,-2.5439,-2.5676,-2.5441,-2.5888,-2.6349,-2.6748,-2.6377,-2.6074,-2.583,-2.5644,-2.542,-2.5185,-2.5185,-2.5039,-2.4795,-2.4795,-2.4648,-2.4473,0.0,0.0,0.0,0.0,-2.4375,-2.4092,-2.3672,-2.424,-2.5219,-2.5637,-2.6535,-2.7591,-2.8232,-2.798,-2.7442,-2.7429,-2.6617,-2.5791,-2.5791,-2.6173,-2.6651,-2.7279,-2.8164,-2.9015,-2.9624,-2.9603,-2.9428,-2.9428,-2.9428,0.0,-2.9428,-2.9628,-2.9591,-2.9013,-2.8461,-2.8154,-2.8234,-2.7511,-2.7101,-2.7421,-2.7528,-2.7387,-2.6998,-2.7497,0.0,0.0,0.0,-2.7045,-2.6893,-2.5909,0.0,0.0,0.0,-2.5173,-2.4836,-2.609,0.0,0.0,-2.8939,-2.9551,0.0,0.0,0.0,0.0,0.0,0.0,0.0,0.0,0.0,0.0,0.0,0.0,0.0,0.0,0.0,0.0,-2.5959,-2.7997,-3.1172,-3.2092,-3.2796,-3.4181,-3.5473,-3.5771,-3.4388,-3.3063,-3.1669,-3.0411,-2.9112,-2.8291,-2.8291,-2.8291,0.0,0.0,0.0,-2.553,-2.5378,-2.4648,-2.4987,-2.6309,-2.5469,-2.5068,-2.5049,-2.4619,-2.4414,-2.4414,-2.4414,-2.4385,-2.4346,-2.4346,-2.4316,-2.4277,-2.4385,-2.4385,-2.4307,-2.3926,-2.376,-2.3662,-2.3271,0.0,0.0,-2.4753,-2.5449,-2.6299,-2.6424,-2.6413,-2.6325,-2.6292,-2.5532,-2.4682,-2.48,-2.5562,-2.6405,-2.6621,-2.8215,-2.9624,-2.9792,-2.939,-2.9001,-2.8938,-2.8925,-2.8925,-2.9076,-2.9542,-2.9706,-2.9076,-2.8619,-2.8408,-2.8541,-2.816,-2.7855,-2.7855,-2.8516,0.0,-2.7934,-2.8643,-2.915,-2.9129,-2.8675,-2.7841,-2.6693,-2.5994,-2.5631,-2.5521,-2.6183,-2.6471,-2.6399,-2.7639,-2.8023,-2.7604,-2.8217,-2.9459,0.0,0.0,0.0,0.0,0.0,0.0,0.0,0.0,0.0,0.0,0.0,0.0,0.0,0.0,0.0,-2.5675,-2.7468,-2.9575,-3.2112,-3.2547,-3.2865,-3.3576,-3.4813,-3.512,-3.3827,-3.2437,-3.1317,-3.039,-2.9112,-2.8291,-2.8291,-2.8291,-2.7618,-2.6155,-2.688,-2.6503,-2.4981,-2.5571,-2.5894,-2.5859,-2.5322,0.0,-2.5049,-2.4619,-2.4414,-2.4414,-2.4414,-2.4228,-2.3906,-2.3906,-2.3701,-2.3457,-2.415,-2.4209,-2.3906,-2.3818,-2.3564,-2.3252,-2.3164,-2.3202,-2.358,-2.4523,-2.4937,-2.5327,-2.6205,-2.584,0.0,-2.5093,-2.4328,-2.3622,-2.4574,-2.4922,-2.5543,-2.7406,-2.8143,-2.8676,-2.9624,-2.9704,-2.949,-2.9013,-2.8925,-2.9138,-2.9999,-3.0529,-3.0555,-2.9438,-2.9867,-2.9929,-2.9049,-2.8817,-2.8748,-2.8748,-2.8906,-2.8932,-2.8753,-2.9515,-3.0028,-3.0058,-2.9623,-2.9005,-2.8222,-2.7543,-2.6937,-2.6371,-2.652,-2.6302,-2.5782,-2.6075,-2.6662,-2.7655,-2.883,-2.9307,0.0,0.0,0.0,0.0,0.0,0.0,0.0,0.0,0.0,0.0,0.0,-2.173,-2.3387,0.0,-2.5915,-2.7386,-2.9075,-3.0851,-3.2694,-3.332,-3.3759,-3.4027,-3.4656,-3.484,-3.4157,-3.2306,-3.1151,-3.0936,-2.9082,-2.7978,-2.7978,-2.7978,-2.7218,-2.5459,-2.6484,-2.617,-2.4463,-2.5534,-2.5947,-2.5732,-2.5059,-2.4746,-2.4717,-2.4072,-2.3779,-2.3779,-2.3779,-2.3662,-2.3467,-2.3467,-2.333,-2.3184,-2.3613,-2.3652,-2.3467,-2.3467,-2.333,-2.3135,-2.3135,-2.3135,-2.3164,-2.374,-2.3964,-2.42,-2.5305,-2.482,-2.4092,-2.4682,-2.4348,-2.4092,-2.4682,-2.5644,-2.6771,-2.7869,-2.8534,-2.9106,-2.9702,-2.9566,-2.9189,-2.8624,-2.8511,-2.8705,-2.9363,-3.0338,-3.0807,-3.0213,-3.0528,-3.0502,-2.9721,-2.9628,-2.9656,-2.9665,-2.9989,-3.0059,-2.9707,-3.0424,-3.0776,-3.0397,-2.9882,-2.928,-2.8622,-2.7619,-2.6916,-2.6602,-2.6273,-2.5929,-2.5615,-2.5615,-2.6123,-2.7096,-2.744,-2.8128,0.0,0.0,0.0,0.0,0.0,0.0,0.0,-1.9996,-2.1292,-2.199,-2.316,-2.4581,-2.6268,-2.6864,-2.7627,-2.8961,-3.029,-3.144,-3.2632,-3.377,-3.4477,-3.4236,-3.4437,-3.4562,-3.4562,-3.2265,-3.0975,-3.1459,-2.9147,-2.7666,-2.7666,-2.7666,-2.6921,-2.5307,-2.5977,-2.5758,-2.4583,-2.5242,-2.5605,-2.5596,-2.4717,-2.4297,-2.4268,-2.3496,-2.3135,-2.3135,-2.3299,-2.3474,-2.3474,-2.3474,-2.3299,-2.3135,-2.3135,-2.3135,-2.3135,-2.3135,-2.3135,-2.3135,-2.3135,-2.3135,-2.3135,-2.3135,-2.3135,-2.3281,-2.4456,-2.4191,-2.3639,-2.4825,-2.5165,-2.5201,-2.5423,-2.6769,-2.8149,-2.8395,-2.9028,-2.9731,-2.9973,-2.9618,-2.9048,-2.8694,-2.8651,-2.8731,-2.8972,-3.017,-3.1024,-3.0912,-3.103,-3.0962,-3.0609,-3.0524,-3.051,-3.036,-3.0896,-3.0982,-3.0203,-3.0762,-3.0911,-3.0357,-2.9744,-2.9146,-2.8622,-2.7305,-2.6587,-2.6587,-2.5809,-2.542,-2.542,-2.5285,-2.5555,-2.6198,-2.5674,-2.6767,-1.1998,-1.4182,-1.6851,-1.807,-1.8468,-1.8955,0.0,-2.1693,-2.2645,-2.395,-2.601,-2.7937,-2.9164,-2.9419,-2.9642,-3.0269,-3.0518,-3.0873,-3.1512,-3.2959,-3.3593,-3.2563,-3.3382,-3.3985,-3.3985,-3.1621,-3.0499,-3.1437,-2.9147,-2.7666,-2.7666,-2.7666,-2.7357,-2.6807,-2.6501,-2.6287,-2.6168,-2.546,-2.5137,-2.5137,-2.4268,-2.3857,-2.3848,-2.3359,-2.3135,-2.3135,-2.4211,-2.4617,-2.4617,-2.4617,-2.4049,-2.3135,-2.3135,-2.3135,-2.3135,-2.3135,-2.3135,-2.3135,-2.3135,-2.3135,-2.3135,-2.3135,-2.3135,-2.3281,-2.4456,-2.4691,-2.4818,-2.6023,-2.6301,-2.6508,-2.745,-2.7933,-2.8382,-2.9381,-2.9326,-2.9365,-3.0716,-3.0611,-3.0249,-3.0446,-3.0528,-3.0591,-3.087,-3.1503,-3.1825,-3.1203,-3.1769,-3.2094,-3.144,-3.1351,-3.1127,-3.0517,-3.0567,-3.0378,-2.9717,-2.9753,-2.9759,-2.9684,-2.9071,-2.8682,-2.8607,-2.7305,-2.6587,-2.6587,-2.5375,-2.4686,-2.4686,-2.4118,-2.4178,-2.4806,-2.4731,-2.5839,-1.3456,-1.5335,-1.7407,-1.906,-1.9655,-2.0332,-2.2298,-2.3579,-2.4662,-2.5539,-2.7487,-2.9197,-2.9702,-2.9792,-2.9867,-3.0093,-3.0828,-3.159,-3.2238,-3.3648,-3.4459,-3.3706,-3.3639,-3.3419,-3.2755,-3.0249,-2.8998,-2.9837,-2.8026,-2.6924,-2.6924,-2.6924,-2.6719,-2.6289,-2.6103,-2.5889,-2.5625,-2.5254,-2.4941,-2.4687,-2.4082,-2.3789,-2.3779,-2.4002,-2.4467,-2.5147,-2.5557,-2.5797,-2.5797,-2.5797,-2.5136,-2.4125,-2.4125,-2.3714,-2.3135,-2.3135,-2.3135,-2.3135,-2.3135,-2.3135,-2.3164,-2.3857,-2.3622,-2.3398,-2.5197,-2.4877,-2.4226,-2.5968,-2.6467,-2.6713,-2.7477,-2.8133,-2.8575,-2.88,-2.9043,-2.9398,-2.9981,-3.0334,-3.0473,-3.0264,-3.0207,-3.0341,-3.0621,-3.0935,-3.1159,-3.1276,-3.2332,-3.2706,-3.1616,-3.1482,-3.1267,-3.0579,-3.0187,-2.984,-2.963,-2.9582,-2.9561,-2.9556,-2.9266,-2.8897,-2.8451,-2.7211,-2.6352,-2.5925,-2.4671,-2.4029,-2.4029,-2.3744,-2.3954,-2.4612,-2.4544,-2.5345,-1.5119,-1.7011,-1.8546,-2.0096,-2.0944,-2.183,-2.3703,-2.5041,-2.6197,-2.6803,-2.8462,-2.9792,-2.9792,-2.9792,-2.9907,-3.0355,-3.1213,-3.214,-3.3282,-3.4358,-3.4757,-3.4048,-3.3404,-3.2454,-3.1159,-2.9067,-2.8156,-2.8959,-2.7352,-2.6435,-2.6553,-2.6455,-2.6182,-2.5752,-2.5615,-2.54,-2.5068,-2.4834,-2.456,-2.4238,-2.3818,-2.3782,-2.4107,-2.4869,-2.588,-2.6964,-2.6964,-2.6964,-2.6964,-2.6964,-2.613,-2.4787,-2.4787,-2.4053,-2.2969,-2.2969,-2.294,-2.2902,-2.2959,-2.2911,-2.3047,-2.3867,-2.3644,-2.3438,-2.5396,-2.4903,-2.4009,-2.6317,-2.6853,-2.6877,-2.7591,-2.8213,-2.8613,-2.816,-2.8666,-2.9254,-2.9691,-3.0323,-3.0755,-3.0544,-3.0524,-3.0622,-3.0906,-3.1071,-3.1397,-3.1985,-3.3063,-3.3259,-3.1689,-3.1213,-3.0717,-3.0075,-2.9426,-2.913,-2.927,-2.9303,-2.9358,-2.9465,-2.9482,-2.9124,-2.8339,-2.7277,-2.6385,-2.5628,-2.4368,-2.3849,-2.4032,-2.3849,-2.4082,-2.478,-2.4678,-2.5233,-1.6133,-1.8758,-2.0727,-2.1328,-2.2236,-2.3367,-2.4467,-2.5641,-2.6778,-2.7844,-2.8937,-2.9792,-2.9792,-2.9792,-3.033,-3.1896,-3.1651,-3.1963,-3.4203,-3.4519,-3.3833,-3.2282,-3.1867,-3.0893,-2.9046,-2.8502,-2.8519,-2.944,-2.7533,-2.6562,-2.6973,-2.6611,-2.6182,-2.5752,-2.5312,-2.5078,-2.5068,-2.4238,-2.3828,-2.3799,-2.3369,-2.3734,-2.4808,-2.5975,-2.7046,-2.8016,-2.8016,-2.8016,-2.8016,-2.8016,-2.6767,-2.4787,-2.4787,-2.387,-2.2529,-2.2529,-2.2562,-2.2495,-2.251,-2.2551,-2.2562,-2.2572,-2.2782,-2.3298,-2.4488,-2.4779,-2.5188,-2.7399,-2.7717,-2.7502,-2.8598,-2.8505,-2.8144,-2.8075,-2.8294,-2.893,-3.0391,-3.0983,-3.142,-3.2256,-3.2406,-3.2422,-3.2506,-3.3038,-3.3456,-3.3502,-3.41,-3.3836,-3.1775,-3.0428,-2.9377,-2.8742,-2.809,-2.7905,-2.8477,-2.8525,-2.8795,-2.9348,-2.9393,-2.9058,-2.8323,-2.762,-2.6933,-2.6206,-2.478,-2.4451,-2.5144,-2.4435,-2.4467,-2.5176,-2.5182,-2.5543,-1.6745,-1.9773,-2.2273,-2.364,-2.4105,-2.4625,-2.6021,-2.6457,-2.6801,-2.7855,-2.8785,-2.9343,-2.9214,-2.9336,-2.9878,-3.1325,-3.2287,-3.3555,-3.5861,-3.7083,-3.7,-3.5021,-3.4119,-3.2766,-3.0273,-2.8421,-2.7622,-2.8211,-2.7159,-2.6455,-2.6592,-2.6191,-2.5889,-2.5742,-2.5303,-2.4932,-2.4639,-2.4072,-2.3643,-2.3359,-2.3213,-2.4049,-2.5964,-2.6307,-2.7464,-2.9197,-2.9197,-2.9197,-2.9197,-2.9197,-2.7947,-2.5942,-2.5612,-2.4252,-2.248,-2.2197,-2.1928,-2.1655,-2.1991,-2.2306,-2.2637,-2.3377,-2.3428,-2.3287,-2.4487,-2.4545,-2.4559,-2.6008,-2.6586,-2.693,-2.7676,-2.7717,-2.749,-2.713,-2.793,-2.8982,-2.9467,-3.053,-3.1471,-3.1781,-3.2197,-3.2538,-3.2607,-3.3129,-3.3571,-3.3587,-3.377,-3.3334,-3.1754,-3.1158,-3.0262,-2.8758,-2.8259,-2.7983,-2.7783,-2.8136,-2.8614,-2.9219,-2.9717,-2.9625,-2.8799,-2.8211,-2.7081,-2.5326,-2.4494,-2.3973,-2.375,-2.349,-2.3765,-2.4473,-2.4774,-2.5346,-1.7896,-2.093,-2.3459,-2.4763,-2.5073,-2.5362,-2.6429,-2.6673,-2.7162,-2.8582,-2.8962,-2.9057,-2.9091,-2.9121,-2.9665,-3.1535,-3.265,-3.4351,-3.7448,-3.8046,-3.7692,-3.6346,-3.4791,-3.2947,-3.0547,-2.8564,-2.7588,-2.7871,-2.71,-2.6611,-2.6611,-2.6201,-2.583,-2.5508,-2.5068,-2.4629,-2.4199,-2.3769,-2.3418,-2.3135,-2.3551,-2.4723,-2.6472,-2.6883,-2.8039,-2.9792,-2.9792,-2.9792,-2.9792,-2.9792,-2.8433,-2.6181,-2.5936,-2.4243,-2.2021,-2.1758,-2.1335,-2.1033,-2.1509,-2.1843,-2.2163,-2.2883,-2.291,-2.2911,-2.3964,-2.4019,-2.4055,-2.5506,-2.6035,-2.6371,-2.7127,-2.7163,-2.7003,-2.6953,-2.8013,-2.909,-2.938,-3.0553,-3.1584,-3.185,-3.2279,-3.2756,-3.3253,-3.3882,-3.4301,-3.4301,-3.4315,-3.3655,-3.1789,-3.1548,-3.0831,-2.9055,-2.876,-2.8535,-2.8104,-2.8661,-2.9179,-2.9497,-3.0202,-3.0129,-2.9042,-2.8682,-2.7411,-2.5129,-2.4541,-2.4156,-2.3925,-2.3665,-2.4058,-2.504,-2.5357,-2.5761,-1.9324,-2.2386,-2.4365,-2.4745,-2.5185,-2.5596,-2.5734,-2.6537,-2.7803,-2.9688,-2.9394,-2.8933,-2.9235,-2.9061,-2.9786,-3.2437,-3.2816,-3.4355,-3.8837,-3.755,-3.6203,-3.6249,-3.399,-3.1708,-2.9955,-2.884,-2.8291,-2.8291,-2.7519,-2.7041,-2.7012,-2.6621,-2.5977,-2.5098,-2.4639,-2.4219,-2.3799,-2.3359,-2.3135,-2.3135,-2.4296,-2.5378,-2.6565,-2.7602,-2.8688,-2.9792,-2.9792,-2.9792,-2.9792,-2.9792,-2.824,-2.5846,-2.579,-2.3951,-2.126,-2.1221,-2.0937,-2.0625,-2.1055,-2.1199,-2.1173,-2.1192,-2.1523,-2.2089,-2.3047,-2.3317,-2.375,-2.5925,-2.6078,-2.5925,-2.6936,-2.6907,-2.6693,-2.752,-2.8373,-2.921,-3.0083,-3.0969,-3.1747,-3.2443,-3.2661,-3.3115,-3.448,-3.5243,-3.5627,-3.5633,-3.5616,-3.4606,-3.1888,-3.1553,-3.1043,-2.9563,-2.9419,-2.9378,-2.9165,-2.9873,-3.0211,-3.0053,-3.0768,-3.0531,-2.9042,-2.9011,-2.7892,-2.5592,-2.4847,-2.4797,-2.5439,-2.4763,-2.52,-2.6573,-2.6623,-2.6657,-1.9584,-2.2939,-2.5416,-2.5655,-2.5381,-2.5317,-2.5866,-2.6316,-2.7067,-2.8359,-2.8261,-2.7898,-2.7844,-2.8543,-3.0079,-3.3107,-3.4655,-3.6717,-4.0397,-4.0022,-3.8757,-3.7181,-3.5019,-3.2812,-3.0612,-2.9147,-2.8291,-2.8291,-2.7803,-2.7363,-2.7031,-2.6621,-2.5977,-2.5098,-2.4639,-2.4219,-2.3799,-2.3359,-2.3135,-2.3135,-2.4296,-2.5378,-2.6565,-2.7602,-2.8688,-2.9792,-2.9792,-2.9792,-2.9792,-2.9792,-2.8469,-2.6296,-2.5645,-2.3876,-2.1641,-2.0977,-2.0664,-2.0576,-2.0693,-2.0963,-2.1226,-2.1193,-2.1486,-2.2121,-2.3514,-2.3952,-2.434,-2.6052,-2.6363,-2.6311,-2.6621,-2.6614,-2.6696,-2.7517,-2.8369,-2.9214,-3.0122,-3.1335,-3.2397,-3.2561,-3.3393,-3.4488,-3.574,-3.6075,-3.6203,-3.6203,-3.574,-3.4631,-3.2519,-3.2657,-3.1994,-2.9624,-2.969,-2.952,-2.8481,-2.9482,-2.9888,-2.9313,-3.048,-3.0531,-2.9042,-2.9011,-2.7655,-2.4831,-2.4608,-2.4036,-2.3156,-2.3494,-2.4154,-2.505,-2.5625,-2.6167,-1.9152,-2.2759,-2.5079,-2.4746,-2.4885,-2.5106,-2.5147,-2.6022,-2.7126,-2.8187,-2.7919,-2.7344,-2.6968,-2.8066,-2.9736,-3.175,-3.423,-3.6836,-3.9499,-3.9542,-3.8615,-3.6668,-3.4392,-3.2309,-3.0417,-2.8931,-2.8096,-2.8281,-2.8076,-2.7666,-2.7051,-2.6797,-2.6084,-2.4824,-2.4551,-2.4121,-2.3516,-2.3262,-2.3387,-2.3887,-2.4457,-2.5619,-2.7209,-2.7855,-2.8688,-2.9792,-2.9792,-2.9792,-2.9779,-2.9515,-2.8281,-2.6461,-2.5292,-2.363,-2.1849,-2.0899,-2.0566,-2.0566,-2.0566,-2.0771,-2.0912,-2.0928,-2.142,-2.2172,-2.3466,-2.4175,-2.4795,-2.6127,-2.65,-2.6559,-2.6917,-2.7023,-2.7357,-2.8589,-2.9236,-2.9902,-3.1046,-3.1976,-3.2782,-3.3372,-3.4527,-3.561,-3.63,-3.6608,-3.6748,-3.6728,-3.6208,-3.5157,-3.3465,-3.3026,-3.2236,-3.0382,-3.0145,-2.9808,-2.9048,-2.9383,-2.9661,-2.9725,-3.0054,-2.9949,-2.928,-2.8727,-2.7368,-2.5017,-2.4983,-2.4408,-2.3274,-2.4002,-2.4577,-2.5,-2.5744,-2.6302,-1.8299,-2.208,-2.3891,-2.3067,-2.3874,-2.4789,-2.4238,-2.5714,-2.7493,-2.843,-2.7782,-2.6851,-2.6264,-2.7431,-2.876,-2.9489,-3.262,-3.5653,-3.7564,-3.7518,-3.6811,-3.557,-3.3039,-3.0941,-2.9669,-2.8478,-2.79,-2.8262,-2.8445,-2.8062,-2.706,-2.7012,-2.6221,-2.4473,-2.4307,-2.3887,-2.3144,-2.3212,-2.38,-2.4787,-2.5115,-2.6273,-2.8096,-2.8255,-2.8858,-2.9792,-2.9792,-2.9792,-2.9741,-2.9164,-2.8,-2.6562,-2.5073,-2.3534,-2.197,-2.1098,-2.0712,-2.0566,-2.0566,-2.0557,-2.0547,-2.0557,-2.1268,-2.2201,-2.3274,-2.428,-2.5228,-2.6402,-2.6678,-2.6878,-2.7636,-2.7845,-2.8264,-2.9916,-3.0336,-3.0834,-3.2302,-3.2756,-3.3262,-3.4705,-3.5837,-3.6594,-3.6747,-3.7238,-3.7594,-3.7452,-3.697,-3.6023,-3.4393,-3.3163,-3.2121,-3.1275,-3.0632,-3.0226,-3.0125,-2.96,-2.9668,-3.063,-2.9778,-2.9313,-2.9589,-2.8494,-2.7148,-2.5642,-2.5609,-2.5236,-2.4506,-2.5236,-2.5609,-2.5625,-2.6353,-2.6691,-1.7173,-2.1293,-2.3103,-2.2788,-2.3028,-2.3549,-2.4439,-2.5711,-2.6896,-2.7749,-2.6577,-2.5325,-2.5217,-2.5803,-2.6941,-2.8851,-3.1039,-3.3671,-3.687,-3.58,-3.473,-3.474,-3.2213,-3.0083,-2.9011,-2.8465,-2.8213,-2.8281,-2.8968,-2.8625,-2.7041,-2.7012,-2.6221,-2.4473,-2.373,-2.3291,-2.3135,-2.4049,-2.4628,-2.4787,-2.6685,-2.7763,-2.8096,-2.9106,-2.9624,-2.9792,-2.9792,-2.9792,-2.9741,-2.9164,-2.8221,-2.7073,-2.5961,-2.4337,-2.2485,-2.1956,-2.1298,-2.0566,-2.0566,-2.0353,-2.0052,-2.0459,-2.1268,-2.2297,-2.3701,-2.4578,-2.5444,-2.7543,-2.7846,-2.7717,-2.8589,-2.8794,-2.9004,-3.0026,-3.0702,-3.1412,-3.2415,-3.345,-3.4792,-3.6633,-3.721,-3.7636,-3.8482,-3.9243,-3.9524,-3.8885,-3.8168,-3.6863,-3.4492,-3.3624,-3.2696,-3.1326,-3.1089,-3.0768,-3.0159,-3.0531,-3.0776,-3.0699,-3.0455,-3.011,-2.9624,-2.8746,-2.7465,-2.5642,-2.5609,-2.5236,-2.4506,-2.5236,-2.5609,-2.5625,-2.6353,-2.6691,-1.4981,-1.9746,-2.2128,-2.205,-2.2987,-2.4038,-2.4541,-2.5945,-2.7139,-2.7144,-2.6027,-2.4696,-2.3593,-2.4161,-2.5104,-2.5975,-2.8557,-3.1496,-3.465,-3.3863,-3.3017,-3.3054,-3.0997,-2.9226,-2.834,-2.8123,-2.8265,-2.8864,-2.958,-2.9382,-2.8006,-2.7655,-2.6827,-2.5412,-2.4517,-2.3963,-2.3963,-2.4542,-2.5368,-2.6521,-2.7591,-2.8426,-2.9028,-2.9534,-2.9792,-2.9792,-2.9792,-2.9792,-2.9729,-2.8863,-2.8176,-2.7592,-2.5996,-2.4757,-2.3776,-2.2488,-2.1735,-2.1191,-2.0523,-2.0371,-2.0585,-2.0556,-2.1431,-2.2796,-2.479,-2.5847,-2.676,-2.8346,-2.8607,-2.8551,-2.9435,-2.9961,-3.0454,-3.1289,-3.23,-3.3259,-3.406,-3.5218,-3.6446,-3.7337,-3.8294,-3.8885,-3.8556,-3.9369,-3.9827,-3.9006,-3.8334,-3.7376,-3.5759,-3.4544,-3.314,-3.1382,-3.0852,-3.0632,-3.0666,-3.0469,-3.0749,-3.1583,-3.0298,-2.9654,-2.9948,-2.8399,-2.7078,-2.6184,-2.6167,-2.5812,-2.5067,-2.5812,-2.5981,-2.5642,-2.6759,-2.7093,-1.281,-1.8266,-2.1464,-2.1901,-2.3556,-2.5165,-2.5229,-2.6557,-2.7459,-2.6778,-2.5561,-2.4002,-2.1966,-2.2385,-2.3021,-2.2992,-2.5448,-2.8689,-3.2052,-3.1681,-3.1304,-3.1746,-3.0034,-2.8594,-2.7878,-2.8097,-2.8455,-2.9044,-2.9782,-2.9998,-2.9261,-2.8174,-2.7316,-2.6697,-2.5443,-2.4957,-2.5126,-2.5368,-2.6356,-2.8096,-2.8347,-2.8937,-2.9792,-2.9792,-2.9792,-2.9792,-2.9792,-2.9792,-2.9716,-2.8699,-2.8285,-2.8099,-2.6249,-2.5397,-2.492,-2.3143,-2.2328,-2.1966,-2.0714,-2.0692,-2.1187,-2.1209,-2.2029,-2.3359,-2.5332,-2.6684,-2.7762,-2.8972,-2.94,-2.9711,-3.0746,-3.1422,-3.2007,-3.2832,-3.3906,-3.5004,-3.5887,-3.6825,-3.7577,-3.7802,-3.9004,-3.9662,-3.8523,-3.9355,-3.9882,-3.9074,-3.8587,-3.7975,-3.6931,-3.5368,-3.3665,-3.182,-3.0845,-3.0581,-3.114,-3.052,-3.0715,-3.2262,-3.0149,-2.9271,-3.0119,-2.8004,-2.6791,-2.6691,-2.6691,-2.6404,-2.5845,-2.642,-2.6404,-2.5862,-2.7044,-2.7344,-1.1725,-1.7866,-2.1657,-2.3479,-2.5098,-2.6477,-2.7209,-2.7591,-2.7432,-2.6498,-2.4874,-2.2966,-2.0881,-2.0235,-2.0292,-2.0979,-2.2073,-2.4641,-2.9889,-2.9183,-2.9096,-3.1895,-3.0275,-2.8711,-2.8271,-2.9347,-2.9486,-2.7989,-2.9176,-3.0197,-3.0671,-2.8001,-2.6875,-2.7754,-2.5862,-2.5294,-2.6307,-2.7279,-2.7924,-2.8084,-2.9118,-2.9714,-2.9792,-2.9792,-2.9792,-2.9792,-2.9792,-2.9792,-2.9741,-2.9114,-2.885,-2.8737,-2.756,-2.6515,-2.5563,-2.4425,-2.3431,-2.2573,-2.1945,-2.1489,-2.1386,-2.2632,-2.3133,-2.3445,-2.4324,-2.5666,-2.7429,-2.9564,-3.0616,-3.1437,-3.2889,-3.3337,-3.3541,-3.4233,-3.4885,-3.569,-3.7024,-3.7291,-3.7544,-3.8658,-3.9067,-3.9315,-3.9671,-4.0419,-4.0726,-3.99,-3.974,-3.9026,-3.7054,-3.5665,-3.4358,-3.306,-3.1807,-3.1123,-3.119,-3.1445,-3.1669,-3.1844,-3.0738,-2.9941,-2.9671,-2.81,-2.7083,-2.6691,-2.6691,-2.6657,-2.659,-2.6657,-2.6657,-2.6623,-2.6853,-2.6939,-1.0541,-1.6596,-2.0931,-2.3599,-2.5465,-2.6828,-2.7374,-2.6883,-2.6168,-2.5656,-2.3929,-2.1985,-1.9839,-1.8967,-1.8716,-1.9411,-2.0508,-2.3075,-2.8277,-2.8577,-2.9406,-3.2621,-3.1561,-3.0618,-3.123,-3.1138,-3.0898,-3.0722,-3.1472,-3.2142,-3.2683,-3.0925,-2.9479,-2.8521,-2.7676,-2.7321,-2.7441,-2.7936,-2.8426,-2.9106,-2.9611,-2.9792,-2.9792,-2.9792,-2.9792,-2.9792,-2.9792,-2.9792,-2.9741,-2.9164,-2.8737,-2.8348,-2.7582,-2.6856,-2.6131,-2.5061,-2.4214,-2.3433,-2.2353,-2.1978,-2.2184,-2.3333,-2.3825,-2.4208,-2.5649,-2.7429,-2.9232,-3.0696,-3.1867,-3.2814,-3.3432,-3.4151,-3.4857,-3.5542,-3.6084,-3.6878,-3.8358,-3.8888,-3.9344,-4.0281,-4.114,-4.1507,-4.0763,-4.128,-4.1434,-4.03,-4.0001,-3.9473,-3.8343,-3.6495,-3.5023,-3.4252,-3.238,-3.119,-3.119,-3.1565,-3.1789,-3.1789,-3.0976,-3.0225,-2.9606,-2.832,-2.7317,-2.6708,-2.6691,-2.6691,-2.6691,-2.6401,-2.6436,-2.6725,-2.7016,-2.7322,-0.9119,-1.4986,-1.9654,-2.2909,-2.4844,-2.6083,-2.6516,-2.5767,-2.4871,-2.4394,-2.3218,-2.1594,-1.9417,-1.8737,-1.8701,-1.9449,-2.0525,-2.3031,-2.8155,-2.8756,-2.9931,-3.3042,-3.2288,-3.1839,-3.279,-3.1972,-3.1729,-3.2734,-3.2573,-3.2611,-3.2834,-3.2459,-3.1431,-2.9719,-2.8973,-2.8626,-2.8597,-2.8597,-2.9028,-2.9792,-2.9792,-2.9792,-2.9792,-2.9792,-2.9792,-2.9792,-2.9792,-2.9792,-2.9767,-2.9352,-2.895,-2.8536,-2.7808,-2.7293,-2.6809,-2.5591,-2.4957,-2.4422,-2.3264,-2.2968,-2.332,-2.4104,-2.459,-2.5135,-2.6538,-2.8418,-3.0283,-3.1298,-3.2834,-3.4236,-3.4399,-3.5082,-3.5851,-3.6485,-3.7045,-3.7676,-3.878,-3.9656,-4.0359,-4.0848,-4.1934,-4.2451,-4.1446,-4.1709,-4.1798,-4.096,-4.0391,-3.9912,-3.9518,-3.7089,-3.5283,-3.4941,-3.2686,-3.119,-3.119,-3.1788,-3.2012,-3.164,-3.1251,-3.0647,-2.9782,-2.8492,-2.7571,-2.7046,-2.681,-2.6624,-2.647,-2.6297,-2.6414,-2.684,-2.731,-2.7867,-0.7499,-1.2975,-1.7777,-2.141,-2.3071,-2.4011,-2.4814,-2.4557,-2.3828,-2.2883,-2.272,-2.2084,-2.0005,-1.9933,-2.0513,-2.1719,-2.2227,-2.4386,-2.9785,-2.9802,-3.0213,-3.297,-3.207,-3.1595,-3.2107,-3.137,-3.1472,-3.2816,-3.1829,-3.0997,-3.0486,-3.16,-3.1951,-3.1399,-2.9221,-2.8688,-2.9792,-2.9792,-2.9792,-2.9792,-2.9792,-2.9792,-2.9792,-2.9792,-2.9792,-2.9792,-2.9792,-2.9792,-2.9792,-2.9779,-2.9779,-2.9666,-2.8536,-2.8097,-2.7883,-2.6214,-2.5598,-2.5523,-2.4931,-2.4797,-2.4783,-2.5034,-2.555,-2.6244,-2.6426,-2.7899,-2.9788,-3.121,-3.3511,-3.569,-3.6231,-3.6395,-3.6517,-3.7076,-3.7564,-3.7888,-3.7918,-3.8966,-3.989,-3.9908,-4.0568,-4.1209,-4.1549,-4.1595,-4.1725,-4.2033,-4.1121,-4.0374,-4.0374,-3.7194,-3.4906,-3.4906,-3.2686,-3.119,-3.119,-3.2286,-3.2466,-3.1263,-3.1565,-3.1296,-3.0125,-2.8636,-2.7789,-2.7772,-2.708,-2.647,-2.6013,-2.647,-2.6821,-2.7118,-2.7767,-2.8567,-0.689,-1.1701,-1.6177,-1.9007,-2.085,-2.2295,-2.3242,-2.2765,-2.2204,-2.2608,-2.238,-2.1712,-2.0273,-2.0114,-2.0689,-2.21,-2.3398,-2.5721,-2.9915,-3.2365,-3.4286,-3.5709,-3.5861,-3.566,-3.5102,-3.4423,-3.3905,-3.3649,-3.3266,-3.2834,-3.229,-3.1884,-3.1411,-3.0871,-3.0176,-2.9829,-2.9792,-2.9792,-2.9792,-2.9792,-2.9792,-2.9792,-2.9792,-2.9792,-2.9792,-2.9792,-2.9792,-2.9566,-2.9202,-2.9202,-2.8762,-2.8072,-2.8097,-2.7871,-2.7482,-2.6942,-2.6901,-2.6986,-2.6427,-2.6347,-2.6674,-2.7704,-2.7581,-2.7436,-2.9377,-3.0444,-3.1418,-3.3673,-3.52,-3.6197,-3.6378,-3.6898,-3.7466,-3.7635,-3.8065,-3.8585,-3.9173,-4.0037,-4.0873,-4.1423,-4.2366,-4.3109,-4.3222,-4.3473,-4.3554,-4.3301,-4.2096,-4.1118,-4.0773,-3.761,-3.5249,-3.4941,-3.2946,-3.1507,-3.123,-3.155,-3.1623,-3.1207,-3.1312,-3.0989,-3.0142,-2.9651,-2.8942,-2.7997,-2.7765,-2.7367,-2.6816,-2.7039,-2.7436,-2.8012,-2.8992,-2.9663,-0.6847,-1.0121,-1.3539,-1.6451,-1.7801,-1.8834,-2.0514,-2.0615,-2.0648,-2.16,-2.2331,-2.2413,-2.1306,-2.1897,-2.2842,-2.3598,-2.5124,-2.7522,-3.1258,-3.3933,-3.604,-3.7382,-3.7467,-3.7111,-3.642,-3.568,-3.4951,-3.4261,-3.3822,-3.3432,-3.3093,-3.2001,-3.1248,-3.0922,-3.052,-3.0143,-2.9792,-2.9792,-2.9792,-2.9792,-2.9792,-2.9792,-2.9792,-2.9792,-2.9792,-2.9779,-2.9566,-2.9264,0.0,-2.8699,-2.821,-2.7632,-2.7971,-2.81,-2.8126,-2.8126,-2.8294,-2.8516,-2.8217,-2.7857,-2.7714,-2.8679,-2.851,-2.8374,-3.1094,-3.2112,-3.2818,-3.4997,-3.6,-3.6454,-3.6655,-3.7309,-3.7955,-3.8151,-3.8689,-3.9283,-3.9786,-4.0886,-4.1902,-4.237,-4.3434,-4.4266,-4.4391,-4.4624,-4.4706,-4.4496,-4.3218,-4.2036,-4.1434,-3.8092,-3.5572,-3.4959,-3.291,-3.147,-3.123,-3.1715,-3.1782,-3.1241,-3.1715,-3.1698,-3.0954,-3.0415,-2.9736,-2.8935,-2.838,-2.7692,-2.6887,-2.7423,-2.8072,-2.8718,-2.9939,-3.0538,0.0,-0.8508,-1.0292,-1.3798,-1.4196,-1.4455,-1.7104,-1.8443,0.0,-2.0087,-2.2325,-2.3846,-2.2879,-2.4766,-2.6397,-2.6017,-2.7334,-2.9739,-3.3542,-3.4874,-3.6111,-3.8143,-3.7266,-3.6445,-3.637,-3.5403,-3.4763,-3.4726,-3.3734,-3.3106,-3.3018,-3.1976,-3.1373,-3.1336,-3.0331,-2.9792,-2.9792,-2.9792,-2.9792,-2.9792,-2.9792,-2.9792,-2.9792,-2.9792,-2.9792,-2.9767,-2.9176,-2.89,-2.8825,-2.8273,-2.8021,-2.7996,-2.8072,-2.8638,-2.9535,-2.9574,-2.9821,-3.0151,-3.0109,-2.9267,-2.8293,-2.8412,-2.8584,-2.9202,-3.1675,-3.2952,-3.3789,-3.5211,-3.6017,-3.6543,-3.7061,-3.7564,-3.8114,-3.8689,-3.9375,-3.9952,-4.0044,-4.1527,-4.2838,-4.2833,-4.3814,-4.474,-4.5035,-4.5112,-4.5222,-4.5513,-4.4271,-4.3001,-4.2121,-3.8559,-3.5776,-3.496,-3.2648,-3.119,-3.119,-3.2459,-3.2662,-3.1275,-3.2486,-3.2959,-3.2266,-3.0974,-3.0287,-3.0211,-2.8818,-2.7574,-2.6533,-2.7854,-2.8747,-2.9288,-3.056,-3.1151,-0.8492,0.0,-0.9279,-1.0143,-1.1895,-1.3698,0.0,-1.7422,-1.9706,-2.0409,-2.2035,-2.3564,-2.4142,-2.5384,-2.6538,-2.7427,-2.9853,-3.2489,-3.4895,-3.7523,-3.9284,-3.9495,-3.8434,-3.7287,-3.6445,-3.5742,-3.5177,-3.4751,-3.4085,-3.3332,-3.2466,-3.1763,-3.121,-3.0809,-3.0143,-2.9792,-2.9792,-2.9792,-2.9792,-2.9792,-2.9792,-2.9792,-2.9792,-2.9792,-2.9792,-2.9754,-2.9177,-2.8698,-2.826,-2.7708,-2.7231,-2.6929,-2.777,-2.8638,-2.9574,-3.0051,-3.0788,-3.1518,-3.1082,-3.0809,-3.0601,-3.012,-3.0328,-3.0879,-3.1499,-3.218,-3.3157,-3.5064,-3.6265,-3.7051,-3.7184,-3.7863,-3.8762,-3.9768,-4.013,-4.0522,-4.1409,-4.2415,-4.3181,-4.3177,-4.4153,-4.4998,-4.5089,-4.5302,-4.5419,-4.5243,-4.4113,-4.2784,-4.1375,-3.8225,-3.5649,-3.4504,-3.2471,-3.119,-3.119,-3.1512,-3.1562,-3.1207,-3.1592,-3.1735,-3.1553,-3.1277,-3.0575,-2.9501,-2.8681,-2.8083,-2.7795,-2.8768,-2.9496,-3.0046,-3.0352,-3.0757,-0.9065,-0.8601,-0.831,-0.8835,-1.0569,-1.2431,-1.3324,-1.642,-1.9251,-1.9661,-2.1939,-2.4049,-2.4702,-2.6229,-2.7836,-2.901,-3.1575,-3.4322,-3.7204,-3.8853,-3.9905,-4.0235,-3.8489,-3.7023,-3.642,-3.5642,-3.4939,-3.4387,-3.3596,-3.2855,-3.224,-3.1461,-3.0909,-3.062,-3.008,-2.9792,-2.9792,-2.9792,-2.9792,-2.9792,-2.9792,-2.9534,-2.9028,-2.9534,-2.9534,-2.8978,-2.8687,-2.8409,-2.8047,-2.7231,-2.6728,-2.6609,-2.7394,-2.8524,-2.9835,-3.0713,-3.1562,-3.2302,-3.2229,-3.1723,-3.1005,-3.0561,-3.0687,-3.1083,-3.1659,-3.224,-3.31,-3.4964,-3.6282,-3.7249,-3.7471,-3.8493,-3.9626,-4.0271,-4.1082,-4.1908,-4.2513,-4.3423,-4.4115,-4.4116,-4.4652,-4.515,-4.5299,-4.5342,-4.5322,-4.5137,-4.4066,-4.2712,-4.1101,-3.8108,-3.5613,-3.4349,-3.241,-3.1095,-3.0797,-3.1057,-3.1241,-3.1241,-3.1274,-3.123,-3.123,-3.0861,-3.0138,-2.9058,-2.8137,-2.7869,-2.8232,-2.8681,-2.927,-2.9916,-3.0185,-3.0477,-0.9703,-0.88,-0.8212,-0.8984,-1.0333,-1.1709,-1.2566,-1.5987,-1.8946,-1.8737,-2.1835,-2.4628,-2.4957,-2.7307,-2.9448,-3.0369,-3.279,-3.5775,-3.9396,-3.9521,-3.9367,-3.985,-3.7833,-3.6257,-3.6006,-3.514,-3.4399,-3.3935,-3.2855,-3.2177,-3.2089,-3.116,-3.057,-3.0495,-3.0043,-2.9702,-2.9534,-2.9534,-2.9534,-2.9534,-2.9365,-2.8779,-2.7924,-2.8942,-2.8905,-2.7997,-2.8002,-2.8006,-2.7896,-2.6879,-2.6533,-2.6584,-2.7067,-2.8333,-2.9973,-3.1225,-3.1925,-3.2377,-3.2975,-3.2018,-3.0518,-3.0519,-3.0466,-3.0617,-3.1789,-3.2525,-3.3311,-3.4812,-3.6165,-3.7254,-3.7824,-3.9191,-4.0456,-4.0671,-4.2106,-4.3457,-4.3611,-4.4435,-4.5182,-4.5182,-4.5187,-4.5275,-4.555,-4.5322,-4.5074,-4.503,-4.402,-4.266,-4.091,-3.8151,-3.5729,-3.425,-3.2378,-3.0938,-3.0175,-3.0652,-3.0975,-3.0919,-3.1095,-3.1159,-3.1141,-3.0102,-2.9254,-2.8766,-2.7701,-2.7419,-2.8083,-2.8188,-2.8673,-2.9518,-2.9974,-3.0287,-1.2156,-1.1505,-1.0456,-0.947,-1.1858,-1.4321,-1.3701,-1.7183,-2.028,-1.9535,-2.1487,-2.3973,-2.5891,-2.8345,-3.019,-3.0532,-3.4166,-3.7591,-3.949,-4.018,-3.9379,-3.6662,-3.64,-3.5805,-3.4412,-3.4123,-3.3985,-3.3909,-3.2855,-3.2001,-3.1537,-3.0947,-3.0407,-2.993,-2.9829,-2.9365,-2.8347,-2.8347,-2.8347,-2.8347,-2.7452,-2.6894,-2.6789,-2.7431,-2.7621,-2.7436,-2.7413,-2.7437,-2.7356,-2.6798,-2.6533,-2.6584,-2.7067,-2.7945,-2.9067,-3.0418,-3.1152,-3.1427,-3.1723,-3.124,-3.0573,-3.1059,-3.0873,-3.0529,-3.1249,-3.2173,-3.326,-3.4596,-3.5846,-3.7015,-3.8071,-3.9357,-4.0708,-4.1958,-4.3066,-4.407,-4.503,-4.5393,-4.5509,-4.5509,-4.5512,-4.5532,-4.5586,-4.5322,-4.4988,-4.4726,-4.3834,-4.2402,-4.0085,-3.8373,-3.6399,-3.3802,-3.2244,-3.0843,-2.95,-2.9456,-2.9439,-2.9268,-3.0389,-3.0924,-3.0732,-2.9387,-2.8665,-2.8544,-2.7908,-2.7467,-2.7211,-2.7897,-2.869,-2.9469,-2.9606,-3.0163,-1.2647,-1.2898,-1.2995,-1.1701,-1.3357,-1.5124,-1.4641,-1.7827,-2.0761,-2.0324,-2.2292,-2.4625,-2.6568,-2.8834,-3.1485,-3.4637,-3.7042,-3.895,-4.0054,-3.9147,-3.7723,-3.6083,-3.5669,-3.4939,-3.3583,-3.3458,-3.3206,-3.2591,-3.18,-3.1235,-3.0984,-3.047,-3.0055,-2.9804,-2.9792,-2.9275,-2.8084,-2.7522,-2.7209,-2.7197,-2.6719,-2.6483,-2.6554,-2.738,-2.7584,-2.7341,-2.7592,-2.7561,-2.7243,-2.6691,-2.6533,-2.6546,-2.6741,-2.7426,-2.8359,-2.9914,-3.1085,-3.1869,-3.1559,-3.133,-3.1155,-3.1799,-3.1526,-3.1051,-3.1675,-3.2264,-3.3038,-3.4477,-3.5768,-3.7009,-3.842,-4.0026,-4.1553,-4.2404,-4.3734,-4.4953,-4.549,-4.5586,-4.5547,-4.5355,-4.517,-4.5131,-4.53,-4.4878,-4.4535,-4.458,-4.3687,-4.2158,-3.9893,-3.8329,-3.6296,-3.3242,-3.2027,-3.0648,-2.8819,-2.9245,-2.9363,-2.8702,-2.9605,-3.0083,-2.9968,-2.9008,-2.8758,-2.916,-2.8213,-2.788,-2.826,-2.7818,-2.8078,-2.9012,-2.8965,-2.9438,-1.3016,-1.4047,-1.4945,-1.3929,-1.4715,-1.58,-1.5591,-1.8502,-2.1307,-2.1271,-2.3193,-2.5398,-2.7347,-2.9482,-3.2669,-3.774,-3.8879,-3.9346,-4.0075,-3.8292,-3.6691,-3.6036,-3.5156,-3.4148,-3.2792,-3.2679,-3.2328,-3.1461,-3.0909,-3.062,-3.062,-3.0093,-2.9792,-2.9792,-2.9534,-2.8797,-2.7587,-2.6569,-2.6141,-2.6141,-2.5808,-2.5808,-2.613,-2.6944,-2.7266,-2.7109,-2.7545,-2.7482,-2.7055,-2.6697,-2.6445,-2.6264,-2.6264,-2.6768,-2.7734,-2.9386,-3.0829,-3.1961,-3.1588,-3.1482,-3.1622,-3.2304,-3.2127,-3.1726,-3.2196,-3.2664,-3.3283,-3.4561,-3.5871,-3.7241,-3.8799,-4.0495,-4.1967,-4.2554,-4.4034,-4.5355,-4.5547,-4.5528,-4.5413,-4.5163,-4.4838,-4.4699,-4.5036,-4.4497,-4.414,-4.4535,-4.3557,-4.2029,-3.9875,-3.8465,-3.6371,-3.3072,-3.1929,-3.0464,-2.8254,-2.8624,-2.9004,-2.8953,-2.9412,-2.9729,-2.9789,-2.9286,-2.9228,-2.9711,-2.8278,-2.7863,-2.8485,-2.7367,-2.7371,-2.8352,-2.8614,-2.9061,-1.4322,-1.5182,-1.5871,-1.5061,-1.619,-1.7261,-1.6422,-1.9455,-2.2441,-2.2315,-2.3758,-2.5839,-2.8359,-3.0587,-3.3226,-3.6743,-3.7429,-3.7799,-3.8861,-3.882,-3.7765,-3.5146,-3.4713,-3.3853,-3.1694,-3.1512,-3.1474,-3.1399,-3.0909,-3.062,-3.062,-3.0093,-2.9792,-2.9792,-2.8767,-2.746,-2.5949,-2.5236,-2.4957,-2.4872,-2.3887,-2.3887,-2.4925,-2.5018,-2.5627,-2.6574,-2.6593,-2.6553,-2.6584,-2.6546,-2.6138,-2.5649,-2.5649,-2.6165,-2.7125,-2.8543,-2.9656,-3.0582,-3.1234,-3.1482,-3.1642,-3.2349,-3.254,-3.2431,-3.2388,-3.3421,-3.4681,-3.4845,-3.6138,-3.776,-3.9191,-4.0268,-4.1354,-4.2734,-4.3748,-4.4626,-4.5432,-4.5355,-4.5143,-4.5105,-4.4827,-4.4726,-4.5038,-4.4478,-4.4132,-4.453,-4.3527,-4.1949,-3.9846,-3.9017,-3.7247,-3.3809,-3.2171,-3.0298,-2.7835,-2.6691,-2.7292,-3.0079,-3.027,-3.052,-3.1035,-3.0798,-3.0256,-2.9525,-2.7842,-2.6704,-2.6144,-2.6231,-2.6679,-2.761,-2.887,-2.9734,-1.4385,-1.4856,-1.5334,-1.5109,-1.6394,-1.7807,-1.8287,-2.0357,-2.2418,-2.3107,-2.4572,-2.6605,-2.9332,-3.2331,-3.4887,-3.6511,-3.707,-3.7678,-3.8776,-3.8274,-3.7196,-3.5751,-3.5061,-3.3907,-3.1993,-3.1271,-3.0771,-3.0419,-3.0218,-3.0105,-3.0105,-2.9905,-2.9792,-2.9792,-2.9365,-2.8195,-2.6273,-2.565,-2.5031,-2.4305,-2.3906,-2.4075,-2.4971,-2.5563,-2.6308,-2.698,-2.7001,-2.6578,-2.595,-2.6382,-2.5925,-2.5146,-2.5473,-2.6479,-2.7803,-2.8656,-2.9889,-3.1087,-3.1409,-3.182,-3.2291,-3.2987,-3.3168,-3.3209,-3.362,-3.4024,-3.4554,-3.5349,-3.6273,-3.7381,-3.8903,-4.0075,-4.1216,-4.2486,-4.3566,-4.4549,-4.5413,-4.5339,-4.5045,-4.4832,-4.4476,-4.4341,-4.4711,-4.4345,-4.4142,-4.4556,-4.3979,-4.2677,-4.0345,-3.9593,-3.7568,-3.3125,-3.0143,-2.7975,-2.678,-2.7163,-2.8273,-3.0283,-3.0679,-3.1366,-3.2361,-3.139,-3.0738,-3.0546,-2.8487,-2.7187,-2.6701,-2.7105,-2.7393,-2.757,-2.9377,-3.0521,-1.4901,-1.5127,-1.5647,-1.5483,-1.6698,-1.8352,-2.0144,-2.1796,-2.3195,-2.3948,-2.5778,-2.7822,-2.9997,-3.2657,-3.4757,-3.5344,-3.5986,-3.692,-3.8155,-3.7632,-3.6801,-3.6114,-3.5503,-3.4251,-3.1995,-3.1126,-3.0468,-2.9817,-2.9792,-2.9792,-2.9792,-2.9792,-2.9792,-2.9792,-2.9282,-2.8288,-2.6817,-2.5904,-2.5032,-2.4089,-2.4411,-2.4869,-2.547,-2.6285,-2.7052,-2.7653,-2.7821,-2.7121,-2.6008,-2.6483,-2.58,-2.4594,-2.4958,-2.6127,-2.7653,-2.8429,-2.9886,-3.148,-3.1724,-3.2322,-3.3023,-3.3682,-3.3756,-3.3609,-3.4279,-3.4464,-3.4696,-3.5717,-3.651,-3.7381,-3.8652,-3.9731,-4.085,-4.2264,-4.3275,-4.4192,-4.5208,-4.527,-4.5005,-4.4669,-4.4389,-4.4308,-4.4699,-4.445,-4.4325,-4.4706,-4.4428,-4.3274,-4.0792,-3.9892,-3.7378,-3.2037,-2.8535,-2.6578,-2.6458,-2.7472,-2.8756,-3.0418,-3.1118,-3.2027,-3.3341,-3.198,-3.1199,-3.1147,-2.8695,-2.7192,-2.6693,-2.74,-2.7624,-2.7455,-2.9785,-3.1097,-1.6026,-1.6519,-1.718,-1.6523,-1.7375,-1.9062,-2.1653,-2.368,-2.5071,-2.4987,-2.7368,-2.9735,-3.0257,-3.1418,-3.2403,-3.298,-3.3997,-3.5274,-3.6907,-3.7151,-3.6856,-3.6129,-3.5985,-3.4737,-3.1508,-3.118,-3.0833,-2.9856,-2.9792,-2.9792,-2.9792,-2.9792,-2.9792,-2.9792,-2.8167,-2.74,-2.749,-2.5698,-2.4658,-2.4329,-2.5238,-2.589,-2.6538,-2.6771,-2.75,-2.8488,-2.8852,-2.8203,-2.6916,-2.6916,-2.5766,-2.4004,-2.4004,-2.4857,-2.6259,-2.7687,-2.9502,-3.1429,-3.2266,-3.3029,-3.371,-3.4362,-3.4076,-3.3634,-3.431,-3.4903,-3.5386,-3.5888,-3.6918,-3.801,-3.8548,-3.9138,-4.0088,-4.2113,-4.2835,-4.3441,-4.4772,-4.5098,-4.4978,-4.4651,-4.4606,-4.4705,-4.5036,-4.4818,-4.4709,-4.5044,-4.4825,-4.3707,-4.1193,-3.9788,-3.672,-3.0602,-2.7786,-2.6553,-2.7218,-2.7155,-2.8174,-3.0675,-3.1593,-3.2702,-3.3955,-3.2803,-3.1803,-3.0999,-2.8274,-2.6505,-2.5598,-2.6706,-2.7207,-2.7252,-3.0145,-3.1534,-1.7237,-1.7195,-1.7638,-1.7733,-1.9141,-2.0678,-2.1401,-2.2825,-2.4706,-2.7019,-2.7798,-2.8453,-3.0099,-3.0807,-3.1528,-3.2895,-3.4328,-3.5719,-3.6934,-3.7714,-3.7892,-3.7113,-3.6426,-3.5253,-3.3353,-3.196,-3.1106,-3.0833,-3.0139,-2.9792,-2.9792,-2.9792,-2.9792,-2.9792,-2.9294,-2.8521,-2.74,-2.647,-2.6068,-2.6154,-2.6086,-2.5955,-2.5677,-2.6388,-2.7012,-2.7447,-2.753,-2.7133,-2.6335,-2.5455,-2.4628,-2.4004,-2.4004,-2.4966,-2.6452,-2.768,-2.9207,-3.083,-3.1523,-3.2181,-3.2777,-3.2998,-3.3557,-3.4231,-3.444,-3.4985,-3.5694,-3.6582,-3.7131,-3.7631,-3.8475,-3.8968,-3.9608,-4.1058,-4.1802,-4.2393,-4.3163,-4.3605,-4.3791,-4.3699,-4.3958,-4.4373,-4.4987,-4.5017,-4.4996,-4.5082,-4.503,-4.3646,-4.0111,-3.6671,-3.3104,-2.9359,-2.742,-2.6452,-2.6565,-2.7708,-2.9214,-3.0949,-3.1868,-3.2773,-3.3632,-3.2068,-3.1065,-3.0865,-2.8418,-2.6866,-2.6269,-2.7739,-2.8243,-2.7963,-3.1397,-3.2958,-1.8597,-1.8374,-1.8674,-1.9273,-2.0271,-2.1535,-2.3065,-2.3877,-2.5186,-2.846,-2.8448,-2.8463,-3.0411,-3.0676,-3.105,-3.2519,-3.3875,-3.5301,-3.6576,-3.7664,-3.8101,-3.7476,-3.6876,-3.586,-3.4157,-3.2664,-3.1609,-3.1254,-3.0355,-2.9792,-2.9792,-2.9792,-2.9792,-2.9792,-2.9566,-2.8959,-2.7964,-2.7545,-2.7385,-2.7513,-2.7139,-2.6791,-2.6542,-2.7323,-2.7685,-2.7505,-2.7267,-2.703,-2.6595,-2.498,-2.421,-2.4102,-2.3812,-2.4786,-2.6524,-2.7501,-2.9117,-3.0958,-3.1602,-3.2221,-3.2804,-3.2823,-3.3177,-3.3744,-3.4328,-3.4609,-3.505,-3.6491,-3.6861,-3.7131,-3.8123,-3.8604,-3.913,-4.0404,-4.1074,-4.1587,-4.2081,-4.2623,-4.309,-4.3257,-4.3744,-4.4378,-4.5245,-4.538,-4.5378,-4.5419,-4.4605,-4.2629,-3.8868,-3.4987,-3.1588,-2.8968,-2.7379,-2.6508,-2.6458,-2.7973,-2.9485,-3.0742,-3.159,-3.239,-3.3135,-3.198,-3.1198,-3.0798,-2.8884,-2.7513,-2.6848,-2.8289,-2.8809,-2.8588,-3.2013,-3.3582,-2.0107,-1.9916,-2.0182,-2.0955,-2.1339,-2.2312,-2.5659,-2.601,-2.6422,-2.9331,-2.9272,-2.9316,-3.1098,-3.0879,-3.0854,-3.2047,-3.3187,-3.4486,-3.6046,-3.7167,-3.7754,-3.7416,-3.736,-3.6467,-3.4361,-3.3171,-3.2249,-3.1389,-3.0343,-2.9792,-2.9792,-2.9792,-2.9792,-2.9792,-2.9353,-2.9101,-2.8925,-2.8768,-2.8703,-2.8651,-2.8266,-2.8208,-2.8468,-2.8973,-2.8915,-2.8376,-2.7824,-2.7578,-2.7357,-2.5283,-2.4372,-2.4262,-2.3596,-2.4596,-2.6483,-2.7122,-2.9081,-3.1492,-3.2094,-3.2685,-3.3206,-3.3206,-3.2782,-3.2542,-3.3903,-3.3924,-3.3913,-3.574,-3.6361,-3.6655,-3.7636,-3.8138,-3.8685,-3.9934,-4.0454,-4.0768,-4.1186,-4.1804,-4.25,-4.3069,-4.3762,-4.4572,-4.5624,-4.5796,-4.5776,-4.5772,-4.375,-4.1008,-3.7613,-3.4399,-3.149,-2.9157,-2.7471,-2.6615,-2.6896,-2.8278,-2.9538,-3.0416,-3.1192,-3.1905,-3.2641,-3.2316,-3.1718,-3.0849,-2.9389,-2.8265,-2.741,-2.8463,-2.9002,-2.9052,-3.2158,-3.3582,-2.1569,-2.2006,-2.2828,-2.3381,-2.4357,-2.5335,-2.5583,-2.6652,-2.8081,-2.9991,-2.9234,-2.8883,-3.1035,-3.0249,-2.9984,-3.2275,-3.4017,-3.5446,-3.6486,-3.7594,-3.8076,-3.7509,-3.6985,-3.629,-3.5288,-3.3616,-3.2522,-3.2321,-3.0784,-2.9792,-2.9792,-2.9792,-2.9792,-2.9792,-3.0353,-3.0281,-2.9308,-2.9996,-3.0187,-2.9936,-2.932,-2.9117,-2.9317,-2.8719,-2.8716,-2.9107,-2.8517,-2.7946,-2.7284,-2.5845,-2.4919,-2.4327,-2.3673,-2.461,-2.6485,-2.7098,-2.8667,-3.0624,-3.1275,-3.1564,-3.1662,-3.1662,-3.1981,-3.2383,-3.2655,-3.3474,-3.4449,-3.5313,-3.5921,-3.6612,-3.7649,-3.7943,-3.8194,-3.8895,-3.901,-3.8888,-3.8745,-3.952,-4.0653,-4.2073,-4.3197,-4.4306,-4.5587,-4.5796,-4.5555,-4.4905,-4.3062,-4.042,-3.6758,-3.3048,-3.0057,-2.8166,-2.7005,-2.6947,-2.8411,-2.9898,-3.1155,-3.204,-3.2764,-3.3219,-3.3391,-3.2079,-3.1217,-3.1013,-2.9414,-2.8431,-2.8226,-2.8763,-2.9002,-2.9052,-3.2158,-3.3582,-2.2246,-2.297,-2.4108,-2.507,-2.613,-2.6758,-2.6095,-2.7053,-2.8339,-2.9212,-2.9132,-2.9278,-3.0428,-3.0319,-3.0557,-3.2149,-3.4259,-3.5889,-3.633,-3.7502,-3.8033,-3.7075,-3.6686,-3.6075,-3.4898,-3.3463,-3.2393,-3.196,-3.0646,-2.9792,-2.9792,-3.0203,-3.0482,-3.0482,-3.1063,-3.0966,-3.0077,-3.0654,-3.0764,-3.0315,-2.9697,-2.9451,-2.9465,-2.8702,-2.8711,-2.9361,-2.9058,-2.8373,-2.737,-2.6327,-2.5337,-2.439,-2.3719,-2.4426,-2.5977,-2.6601,-2.8051,-2.98,-3.0062,-3.061,-3.1072,-3.0362,-3.0879,-3.1788,-3.1788,-3.2797,-3.4095,-3.4751,-3.5459,-3.6258,-3.7297,-3.7559,-3.7683,-3.8021,-3.8137,-3.8226,-3.8414,-3.8877,-3.9834,-4.1927,-4.2962,-4.3963,-4.5568,-4.5958,-4.5531,-4.4015,-4.1927,-3.9085,-3.4966,-3.1394,-2.8657,-2.7207,-2.6596,-2.6896,-2.8322,-2.9885,-3.125,-3.2457,-3.287,-3.3338,-3.4071,-3.2647,-3.1738,-3.1596,-3.004,-2.916,-2.9094,-2.9036,-2.9414,-3.0168,-3.2897,-3.4301,-2.2863,-2.3825,-2.5224,-2.6453,-2.7284,-2.7561,-2.6891,-2.7614,-2.8426,-2.8426,-2.9106,-2.9792,-2.9792,-3.0419,-3.1189,-3.1951,-3.4071,-3.5669,-3.5941,-3.7201,-3.759,-3.638,-3.6157,-3.5427,-3.3934,-3.289,-3.2033,-3.1241,-3.0355,-2.9792,-2.9792,-3.0696,-3.118,-3.118,-3.1771,-3.1721,-3.1013,-3.1368,-3.1203,-3.051,-2.9997,-2.9643,-2.9406,-2.9012,-2.9134,-2.9717,-2.9585,-2.8917,-2.7745,-2.681,-2.5726,-2.4592,-2.3808,-2.4341,-2.5545,-2.6097,-2.7527,-2.9156,-2.9048,-2.9863,-3.0806,-2.96,-3.0112,-3.1184,-3.1213,-3.2239,-3.3533,-3.4158,-3.5037,-3.6076,-3.7132,-3.7403,-3.7469,-3.79,-3.7979,-3.8149,-3.8766,-3.8855,-3.9527,-4.1931,-4.2928,-4.3855,-4.5384,-4.5866,-4.5255,-4.2988,-4.0441,-3.7119,-3.258,-2.9437,-2.7205,-2.6108,-2.6383,-2.7132,-2.8322,-2.9879,-3.1369,-3.2644,-3.2701,-3.3255,-3.4446,-3.3251,-3.2462,-3.2125,-3.0773,-2.9945,-2.9711,-2.9387,-2.9875,-3.115,-3.3587,-3.508,-2.4204,-2.6019,-2.7589,-2.7832,-2.8669,-2.9204,-2.8119,-2.8767,-2.9534,-2.9534,-2.9702,-2.9792,-2.9792,-2.9934,-3.052,-3.2214,-3.3301,-3.4512,-3.6162,-3.6619,-3.6372,-3.5354,-3.4708,-3.3908,-3.289,-3.196,-3.1315,-3.118,-3.0355,-2.9792,-2.9792,-3.0696,-3.118,-3.118,-3.2807,-3.3121,-3.1947,-3.2731,-3.2556,-3.1336,-3.0693,-3.0011,-2.9406,-2.9848,-3.0393,-3.0918,-3.0393,-2.9697,-2.8837,-2.7174,-2.6024,-2.516,-2.4043,-2.4628,-2.617,-2.6281,-2.7437,-2.9003,-2.8996,-2.9553,-3.0194,-3.0027,-3.0527,-3.1185,-3.1206,-3.2239,-3.3423,-3.3528,-3.5036,-3.6899,-3.7965,-3.8192,-3.847,-3.9619,-3.907,-3.8196,-3.8092,-3.8499,-3.9431,-4.1306,-4.3184,-4.4537,-4.466,-4.4812,-4.4053,-4.1559,-3.8402,-3.4466,-2.9388,-2.7179,-2.5754,-2.4868,-2.6851,-2.886,-3.0269,-3.2416,-3.3601,-3.353,-3.3751,-3.3951,-3.4163,-3.3065,-3.2418,-3.2352,-3.0966,-2.9942,-2.9385,-2.9813,-3.0167,-3.0488,-3.3294,-3.5309,-2.5305,-2.7147,-2.8698,-2.9309,-2.9389,-2.9124,-2.8698,-2.8723,-2.8858,-2.8858,-2.9365,-2.9792,-2.9792,-3.0203,-3.0833,-3.1669,-3.2814,-3.3756,-3.4225,-3.4622,-3.4554,-3.3762,-3.341,-3.289,-3.1888,-3.1462,-3.097,-3.0495,-2.9998,-2.9998,-3.0558,-3.1462,-3.2249,-3.2749,-3.3402,-3.3456,-3.2897,-3.2945,-3.2711,-3.2142,-3.1385,-3.0863,-3.0521,-3.0389,-3.0617,-3.119,-3.0918,-2.9992,-2.8563,-2.7467,-2.6146,-2.4761,-2.3927,-2.4253,-2.5238,-2.5243,-2.6401,-2.7894,-2.7478,-2.8538,-2.9966,-2.9087,-2.9621,-3.052,-3.0116,-3.0987,-3.2242,-3.266,-3.4427,-3.6468,-3.7994,-3.8667,-3.933,-4.0718,-4.0345,-3.9717,-3.9789,-3.9488,-3.9716,-4.1494,-4.2988,-4.3946,-4.3897,-4.3805,-4.2775,-3.9872,-3.6474,-3.2779,-2.8704,-2.6695,-2.5686,-2.5973,-2.8159,-3.0068,-3.1198,-3.2269,-3.3084,-3.3603,-3.3336,-3.3539,-3.4393,-3.3584,-3.3112,-3.3112,-3.1205,-3.0262,-3.0498,-3.0258,-3.098,-3.2563,-3.4717,-3.6616,-2.6461,-2.7976,-2.9399,-3.0318,-2.9998,-2.9301,-2.9301,-2.9,-2.8686,-2.8542,-2.9197,-2.9792,-2.9792,-3.0343,-3.0895,-3.118,-3.2192,-3.29,-3.2662,-3.3052,-3.3104,-3.2362,-3.2249,-3.1888,-3.0908,-3.0833,-3.0558,-2.9856,-2.9792,-3.0216,-3.118,-3.2105,-3.3031,-3.3959,-3.3849,-3.3664,-3.3499,-3.289,-3.2576,-3.2612,-3.2192,-3.1795,-3.1374,-3.099,-3.0965,-3.119,-3.119,-3.0135,-2.8367,-2.7704,-2.6294,-2.4523,-2.3849,-2.3917,-2.4411,-2.4545,-2.5541,-2.6749,-2.6316,-2.7849,-2.9785,-2.8628,-2.9227,-3.0289,-2.9756,-3.0279,-3.1201,-3.1967,-3.3816,-3.6041,-3.7922,-3.9124,-4.0173,-4.1653,-4.1398,-4.0854,-4.1108,-4.0415,-4.0152,-4.1507,-4.2469,-4.3057,-4.3041,-4.2833,-4.1661,-3.8619,-3.5557,-3.2369,-2.9118,-2.7712,-2.7223,-2.7904,-3.0101,-3.1732,-3.2229,-3.2541,-3.2999,-3.3847,-3.3196,-3.333,-3.4464,-3.3942,-3.3584,-3.3592,-3.1826,-3.1099,-3.15,-3.0974,-3.1903,-3.4252,-3.6061,-3.7959,-2.8004,-2.8882,-2.9877,-3.0482,-3.0541,-3.0528,-3.0528,-3.0503,-3.034,-2.9814,-2.9792,-2.9792,-2.9792,-2.9869,-3.0139,-3.1044,-3.1267,-3.1636,-3.2464,-3.2621,-3.2277,-3.1389,-3.1241,-3.0895,-2.9921,-2.9856,-2.9856,-2.9792,-2.9792,-3.0216,-3.118,-3.2105,-3.3031,-3.3959,-3.4292,-3.4128,-3.3499,-3.289,-3.2571,-3.2633,-3.3128,-3.2685,-3.1434,-3.1959,-3.1833,-3.119,-3.119,-3.0362,-2.8884,-2.7809,-2.6511,-2.5051,-2.3991,-2.3921,-2.4471,-2.4981,-2.5526,-2.6115,-2.6521,-2.7963,-2.9607,-2.9521,-3.0291,-3.124,-3.1185,-3.094,-3.0793,-3.1606,-3.3676,-3.6067,-3.7996,-3.9516,-4.0999,-4.2782,-4.1983,-4.0795,-4.0739,-4.0719,-4.0756,-4.0846,-4.156,-4.2141,-4.2078,-4.195,-4.094,-3.8233,-3.6209,-3.374,-3.0265,-3.0665,-3.0999,-3.0241,-3.2747,-3.4317,-3.3922,-3.4566,-3.4904,-3.4643,-3.4177,-3.3944,-3.4018,-3.3589,-3.3315,-3.3305,-3.3208,-3.2672,-3.17,-3.2202,-3.2969,-3.3977,-3.6471,-3.8782,-2.816,-2.8937,-2.993,-3.0482,-3.0357,-3.0181,-3.0532,-3.0344,-3.003,-2.9829,-2.9792,-2.9792,-2.9792,-2.9792,-2.9934,-3.0279,-3.0279,-3.0419,-3.0784,-3.0771,-3.0709,-3.0343,-3.0279,-3.0139,-2.9869,-2.9792,-2.9641,-2.9264,-3.0138,-3.0961,-3.1548,-3.2807,-3.3758,-3.4271,-3.4047,-3.3548,-3.2951,-3.3623,-3.3942,-3.3887,-3.4551,-3.4348,-3.3369,-3.2613,-3.2178,-3.1867,-3.1393,-3.0345,-2.8921,-2.7816,-2.6534,-2.5092,-2.4024,-2.3918,-2.4418,-2.4642,-2.5233,-2.6068,-2.6455,-2.757,-2.8995,-2.9928,-3.0118,-3.0123,-3.0677,-3.0338,-2.9929,-3.0802,-3.2976,-3.5575,-3.7907,-3.9984,-4.1857,-4.3265,-4.2921,-4.2162,-4.17,-4.1193,-4.0862,-4.1022,-4.125,-4.1387,-4.1354,-4.1024,-3.9871,-3.7184,-3.5331,-3.3594,-3.1787,-3.1958,-3.2459,-3.2965,-3.4725,-3.5575,-3.4834,-3.4562,-3.4533,-3.4754,-3.4035,-3.3874,-3.4419,-3.4293,-3.4199,-3.4187,-3.4194,-3.3642,-3.2464,-3.2845,-3.3826,-3.5345,-3.7477,-3.9611,-2.8431,-2.8913,-2.9679,-3.0432,-3.0344,-3.0168,-3.0532,-3.0331,-3.0018,-2.9829,-2.9792,-2.9792,-2.9792,-2.9792,-2.9792,-2.9792,-2.9792,-2.9792,-2.9792,-2.9792,-2.9792,-2.9792,-2.9792,-2.9792,-2.9792,-2.9792,-2.9553,-2.8976,-3.0103,-3.1141,-3.1792,-3.2794,-3.3514,-3.3829,-3.3395,-3.296,-3.2568,-3.3513,-3.4069,-3.421,-3.4916,-3.4868,-3.4114,-3.3372,-3.2882,-3.2628,-3.2138,-3.0954,-2.9276,-2.8125,-2.6971,-2.5703,-2.4585,-2.4343,-2.4682,-2.501,-2.557,-2.6317,-2.7201,-2.8338,-2.955,-3.062,-3.0814,-3.0668,-3.0736,-3.0447,-3.0249,-3.0805,-3.2921,-3.5618,-3.8,-4.0827,-4.3175,-4.3684,-4.3446,-4.2909,-4.2248,-4.1429,-4.0882,-4.1147,-4.1094,-4.1004,-4.1003,-4.0397,-3.9113,-3.6656,-3.5585,-3.466,-3.356,-3.3921,-3.4563,-3.5276,-3.6164,-3.6202,-3.4998,-3.47,-3.4584,-3.4601,-3.4272,-3.4367,-3.4931,-3.4959,-3.5102,-3.5383,-3.5133,-3.4842,-3.4511,-3.429,-3.5113,-3.696,-3.8902,-4.1104,0.0,0.0,0.0,-3.0294,-3.0583,-3.0595,-3.0595,-3.0595,-3.0444,-2.9905,-2.9792,-2.9792,-2.9792,-2.9792,-2.9792,-2.9792,-2.9792,-2.9792,-2.9792,-2.9792,-2.9792,-2.9792,-2.9792,-2.9792,-2.9792,-2.9779,-2.9528,-2.895,-2.974,-3.0699,-3.1709,-3.1971,-3.2232,-3.2467,-3.2497,-3.2482,-3.2482,-3.2568,-3.2927,-3.346,-3.4277,-3.4279,-3.3587,-3.4242,-3.4134,-3.3474,-3.3423,-3.2171,-3.007,-2.8788,-2.7778,-2.6961,-2.5718,-2.5237,-2.5335,-2.6198,-2.6538,-2.6819,-2.8846,-3.0275,-3.131,-3.157,-3.2443,-3.3091,-3.1563,-3.1439,-3.18,-3.1694,-3.3665,-3.6295,-3.8469,-4.2035,-4.4889,-4.4067,-4.3503,-4.297,-4.2287,-4.1459,-4.0917,-4.1152,-4.1113,-4.1035,-4.1016,-4.012,-3.875,-3.6824,-3.7056,-3.6926,-3.5394,-3.6635,-3.7471,-3.7005,-3.7016,-3.6309,-3.4423,-3.5107,-3.5221,-3.4263,-3.4988,-3.5468,-3.5493,-3.5493,-3.5858,-3.6652,-3.5955,-3.6309,-3.7718,-3.6519,-3.682,-3.8558,-4.0682,-4.3197,-2.8185,0.0,0.0,0.0,0.0,0.0,-3.0018,-3.0018,-2.998,-2.9829,-2.9792,-2.9792,-2.9792,-2.9792,-2.9792,-2.9792,-2.9792,-2.9792,-2.9792,-2.9792,-2.9792,-2.9792,-2.9792,-2.9792,-2.9792,-2.9415,-2.8938,-2.8373,-2.976,-3.0583,-3.0491,-3.1691,-3.2436,-3.2512,-3.2048,-3.1809,-3.1809,-3.2839,-3.32,-3.2865,-3.5104,-3.5828,-3.5119,-3.5249,-3.5199,-3.4945,-3.3863,-3.2747,-3.1573,-3.0325,-2.8725,-2.7048,-2.6267,-2.6063,-2.6155,-2.6416,-2.7012,-2.7954,-2.9418,-3.0276,-3.1006,-3.277,-3.3202,-3.3048,-3.3211,-3.2866,-3.2536,-3.2982,-3.4443,-3.6781,-4.0699,-4.3393,-4.5128,-4.5225,-4.4666,-4.3929,-4.3198,-4.2433,-4.1751,-4.1284,-4.1641,-4.1836,-4.123,-4.0266,-3.8926,-3.7128,-3.6738,-3.6339,-3.5527,-3.6158,-3.6481,-3.5962,-3.5975,-3.5315,-3.3587,-3.3673,-3.3944,-3.425,-3.4449,-3.4834,-3.5468,-3.5493,-3.5628,-3.5897,-3.5699,-3.644,-3.8142,-3.7161,-3.7489,-3.9069,-4.1692,-4.3955,-2.7679,-2.7996,-2.8348,-2.8812,0.0,0.0,-2.9741,-2.9792,-2.9792,-2.9792,-2.9792,-2.9792,-2.9792,-2.9792,-2.9792,-2.9792,-2.9792,-2.9792,-2.9792,-2.9792,-2.9792,-2.9792,-2.9792,-2.9792,-2.9792,-2.949,-2.8963,-2.816,-2.9731,-3.0689,-3.0597,-3.1839,-3.2392,-3.2108,-3.1676,-3.1482,-3.1482,-3.233,-3.268,-3.2604,-3.4846,-3.5883,-3.5701,-3.6298,-3.6569,-3.6502,-3.5334,-3.437,-3.3609,-3.2521,-3.0623,-2.8281,-2.747,-2.7234,-2.7297,-2.7434,-2.8129,-2.9223,-3.0668,-3.1549,-3.2237,-3.3729,-3.4148,-3.4031,-3.3788,-3.3749,-3.3805,-3.3952,-3.5753,-3.8455,-4.1963,-4.4036,-4.5198,-4.5239,-4.4631,-4.3838,-4.309,-4.2601,-4.2073,-4.1338,-4.1582,-4.1733,-4.1206,-3.9961,-3.8438,-3.6568,-3.5694,-3.4875,-3.3807,-3.4257,-3.4555,-3.4286,-3.4283,-3.3757,-3.2383,-3.291,-3.333,-3.3412,-3.4151,-3.4783,-3.53,-3.5446,-3.5685,-3.6128,-3.5821,-3.6561,-3.8429,-3.7841,-3.8753,-4.1093,-4.2728,-4.4363,-2.7379,-2.7352,-2.7607,-2.8586,-2.8938,0.0,-2.9679,-2.9741,-2.9691,-2.9691,-2.9641,-2.9603,-2.9603,-2.9654,-2.9679,-2.9616,-2.9716,-2.9792,-2.9792,-2.9792,-2.9792,-2.9792,-2.9792,-2.9792,-2.9792,-2.9806,-2.9429,-2.8419,-2.9827,-3.1033,-3.1588,-3.2257,-3.2257,-3.1497,-3.1582,-3.1627,-3.1586,-3.1586,-3.1973,-3.2736,-3.425,-3.5268,-3.5985,-3.737,-3.8024,-3.799,-3.7229,-3.6417,-3.5571,-3.4895,-3.2923,-3.0187,-2.9076,-2.8633,-2.8596,-2.8762,-2.9463,-3.0564,-3.2161,-3.3337,-3.4208,-3.4555,-3.5139,-3.5447,-3.3942,-3.4369,-3.5249,-3.486,-3.7414,-4.0662,-4.2391,-4.3986,-4.5019,-4.4508,-4.3881,-4.3209,-4.2462,-4.2299,-4.206,-4.1202,-4.1185,-4.1217,-4.0905,-3.9406,-3.7531,-3.5468,-3.4325,-3.3085,-3.1314,-3.1808,-3.2321,-3.2269,-3.2307,-3.1943,-3.0964,-3.2279,-3.2901,-3.225,-3.3855,-3.4916,-3.5086,-3.5354,-3.5897,-3.6743,-3.6164,-3.6715,-3.8435,-3.8474,-4.0196,-4.3471,-4.3461,-4.4357,-2.7615,-2.7793,-2.7996,-2.821,-2.895,0.0,-2.9767,-2.9428,-2.9101,-2.9101,-2.875,-2.8436,-2.8436,-2.88,-2.895,-2.8511,-2.9202,-2.9792,-2.9792,-2.9792,-2.9792,-2.9792,-2.9792,-2.9792,-2.9792,-3.0095,-3.015,-3.0,-3.1156,-3.2014,-3.2303,-3.2962,-3.2776,-3.1554,-3.2064,-3.2379,-3.2317,-3.2317,-3.2987,-3.4287,-3.5728,-3.6799,-3.7567,-3.8405,-3.8785,-3.8734,-3.8007,-3.6907,-3.5605,-3.5453,-3.3819,-3.1386,-3.049,-2.9968,-2.9605,-2.9017,-2.9824,-3.1397,-3.2363,-3.3487,-3.4629,-3.5374,-3.5725,-3.5805,-3.5472,-3.5454,-3.572,-3.6638,-3.9037,-4.1391,-4.1701,-4.3023,-4.4148,-4.3711,-4.3598,-4.3325,-4.2482,-4.2338,-4.1904,-4.0297,-4.1129,-4.1641,-4.0202,-3.8785,-3.7015,-3.462,-3.3639,-3.2647,-3.1186,-3.1528,-3.1624,-3.0899,-3.1099,-3.0806,-2.9585,-3.0082,-3.0966,-3.2127,-3.2747,-3.3688,-3.5047,-3.5354,-3.5641,-3.593,-3.6582,-3.7092,-3.7476,-3.8902,-4.0635,-4.263,-4.2586,-4.341,-2.7802,-2.752,-2.7264,-2.7287,-2.8139,0.0,0.0,-2.9142,-2.9365,-2.9365,-2.9262,-2.8988,-2.8585,-2.8855,-2.8912,-2.822,-2.8574,-2.895,-2.895,-2.944,-2.9998,-3.0419,-3.0482,-3.0696,-3.1132,-3.1355,-3.1575,-3.1695,-3.2042,-3.2407,-3.296,-3.3717,-3.3779,-3.3127,-3.3802,-3.4013,-3.3615,-3.3975,-3.4488,-3.5171,-3.6685,-3.7785,-3.8451,-3.9194,-3.9529,-3.9495,-3.8768,-3.8007,-3.7246,-3.6768,-3.5721,-3.4244,-3.2267,-3.112,-3.0545,-3.0502,-3.1213,-3.2324,-3.3267,-3.4334,-3.5368,-3.5819,-3.6202,-3.6407,-3.5935,-3.5988,-3.6441,-3.7578,-3.9213,-4.0725,-4.1222,-4.2252,-4.3086,-4.2824,-4.2854,-4.2605,-4.1371,-4.1091,-4.0608,-3.9147,-3.9489,-3.9744,-3.886,-3.7808,-3.6217,-3.3633,-3.2601,-3.1496,-2.9692,-2.9678,-2.9678,-2.92,-2.9329,-2.935,-2.9069,-2.9593,-3.0567,-3.2017,-3.2857,-3.377,-3.487,-3.5327,-3.5641,-3.5795,-3.629,-3.6775,-3.7247,-3.8131,-3.9668,-4.1816,-4.2085,-4.2866,-2.8117,-2.7159,-2.6383,-2.66,-2.7335,-2.8089,0.0,0.0,0.0,-3.0126,-3.0202,-2.9921,-2.9017,-2.9054,-2.8917,-2.794,-2.7971,-2.8059,-2.7959,-2.8962,-3.0074,-3.0935,-3.1022,-3.1489,-3.2522,-3.2638,-3.2931,-3.355,-3.2977,-3.2932,-3.3679,-3.4599,-3.5003,-3.4705,-3.5529,-3.5703,-3.5091,-3.5681,-3.6055,-3.6236,-3.7568,-3.8504,-3.9139,-3.9919,-4.0237,-4.022,-3.9754,-3.946,-3.9251,-3.8278,-3.7627,-3.6962,-3.4127,-3.2505,-3.1847,-3.2264,-3.2769,-3.3318,-3.4204,-3.5156,-3.5991,-3.5989,-3.6483,-3.6938,-3.6133,-3.6488,-3.7349,-3.8177,-3.9079,-3.9967,-4.0578,-4.1324,-4.1815,-4.1459,-4.1481,-4.121,-3.9908,-3.9491,-3.901,-3.7732,-3.7254,-3.705,-3.705,-3.6444,-3.503,-3.233,-3.1316,-3.0166,-2.817,-2.7805,-2.7734,-2.7642,-2.7619,-2.7914,-2.8679,-2.939,-3.0429,-3.1911,-3.311,-3.4049,-3.4675,-3.53,-3.5707,-3.5861,-3.5883,-3.6265,-3.703,-3.7137,-3.841,-4.0703,-4.1339,-4.2092,-2.8876,-2.7433,-2.607,-2.6962,-2.7409,-2.8044,-2.9744,0.0,-3.0599,-3.14,0.0,-2.9777,-2.886,0.0,0.0,-2.6924,-2.7469,-2.7934,-2.7444,-2.8576,-2.9718,-3.0388,-3.0527,-3.1061,-3.2481,-3.2845,-3.3651,-3.5145,-3.4614,-3.4289,-3.4367,-3.5736,-3.5916,-3.4721,-3.6002,-3.6665,-3.655,-3.6662,-3.7293,-3.8559,-3.8739,-3.9179,-4.0003,-4.0559,-4.0827,-4.081,-4.127,-4.111,-4.0447,-3.9623,-3.8709,-3.7631,-3.5821,-3.4761,-3.4115,-3.3496,-3.3714,-3.4338,-3.4462,-3.5156,-3.5996,-3.5991,-3.6456,-3.6957,-3.6675,-3.7517,-3.861,-3.8712,-3.967,-4.0414,-3.9347,-3.9785,-4.0212,-3.9013,-3.8882,-3.8932,-3.8636,-3.8366,-3.7671,-3.5951,-3.5101,-3.4679,-3.4679,-3.4303,-3.3087,-3.0272,-2.9575,-2.898,-2.8032,-2.7484,-2.7051,-2.6702,-2.6536,-2.6842,-2.7708,-2.8169,-2.9455,-3.184,-3.26,-3.3484,-3.4636,-3.5353,-3.5694,-3.5714,-3.5841,-3.5942,-3.6059,-3.6826,-3.7774,-3.8906,-3.9647,-4.0448,-2.9002,-2.7602,-2.6196,-2.6299,-2.7185,-2.8299,-2.9228,-3.027,-3.133,-3.2081,0.0,0.0,0.0,0.0,0.0,0.0,-2.6854,-2.7151,-2.695,-2.7456,-2.8531,-3.0431,-3.1062,-3.1977,-3.3556,-3.3805,-3.4357,-3.5394,-3.4861,-3.4874,-3.5644,-3.6719,-3.7287,-3.715,-3.8176,-3.8671,-3.8543,-3.8974,-3.9396,-3.9881,-4.0357,-4.0775,-4.1105,-4.1313,-4.1402,-4.1446,-4.1664,-4.1616,-4.1286,-4.0788,-4.0068,-3.9155,-3.8543,-3.7077,-3.5342,-3.515,-3.5113,-3.5145,-3.5188,-3.5527,-3.6015,-3.6437,-3.6774,-3.7072,-3.7367,-3.8211,-3.9049,-3.886,-3.9231,-3.9564,-3.899,-3.848,-3.7995,-3.7627,-3.7128,-3.6594,-3.6033,-3.5682,-3.5034,-3.3376,-3.2765,-3.2199,-3.1106,-3.1501,-3.1257,-2.9225,-2.8815,-2.8293,-2.6973,-2.6606,-2.6284,-2.5809,-2.6045,-2.6714,-2.7861,-2.8663,-3.0097,-3.2385,-3.3543,-3.4471,-3.525,-3.5512,-3.5703,-3.5807,-3.5763,-3.5757,-3.5771,-3.6114,-3.6487,-3.6969,-3.8824,-3.9908,-2.8795,-2.7591,-2.6433,-2.6233,-2.7297,-2.8686,-2.9508,-3.0745,-3.1982,-3.2933,-3.1928,0.0,0.0,0.0,-2.7417,-2.6658,0.0,-2.6575,-2.6699,-2.7143,-2.8252,-3.0383,-3.1896,-3.3203,-3.4361,-3.4317,-3.4512,-3.516,-3.4592,-3.4908,-3.6492,-3.7381,-3.8149,-3.8854,-3.9834,-4.0268,-4.0082,-4.0822,-4.1101,-4.1051,-4.1658,-4.1979,-4.2087,-4.2264,-4.2304,-4.2322,-4.2495,-4.2513,-4.2361,-4.196,-4.1307,-4.0562,-4.0478,-3.9055,-3.7047,-3.6991,-3.6558,-3.5991,-3.6047,-3.6003,-3.6012,-3.6489,-3.6977,-3.7448,-3.7862,-3.8762,-3.9522,-3.9069,-3.8973,-3.8852,-3.8148,-3.707,-3.6113,-3.5874,-3.5197,-3.4417,-3.3757,-3.3408,-3.2814,-3.1444,-3.0984,-3.0303,-2.8627,-2.929,-2.9639,-2.8221,-2.8006,-2.7536,-2.616,-2.5859,-2.5561,-2.5019,-2.5599,-2.6534,-2.7896,-2.9115,-3.0823,-3.306,-3.4398,-3.528,-3.5666,-3.5632,-3.5655,-3.5789,-3.5608,-3.5504,-3.5474,-3.5502,-3.5538,-3.5646,-3.7905,-3.9098,-2.8222,-2.7221,-2.6506,-2.7404,-2.7999,-2.8958,-3.1567,-3.2105,-3.2538,-3.4132,-3.2735,-3.094,-3.0109,-2.8716,-2.7417,-2.6658,-2.6618,0.0,0.0,-2.8138,-2.9504,-3.024,-3.2765,-3.4454,-3.4484,-3.3882,-3.3793,-3.4475,-3.3903,-3.4424,-3.6476,-3.7381,-3.8149,-3.8854,-4.015,-4.0856,-4.0839,-4.149,-4.1937,-4.2258,-4.2258,-4.2449,-4.2784,-4.3378,-4.3639,-4.3688,-4.4252,-4.429,-4.3881,-4.3074,-4.2284,-4.1497,-4.1001,-4.044,-3.9845,-3.9042,-3.7978,-3.6953,-3.6947,-3.6538,-3.597,-3.5803,-3.6887,-3.8219,-3.805,-3.9161,-4.0296,-3.9508,-3.9282,-3.8721,-3.6246,-3.5474,-3.4912,-3.3239,-3.2715,-3.2557,-3.2487,-3.2229,-3.1755,-3.0807,-3.0118,-2.9296,-2.8113,-2.8272,-2.8157,-2.6927,-2.6759,-2.6556,-2.6068,-2.555,-2.5019,-2.4491,-2.5098,-2.6029,-2.7297,-2.8992,-3.112,-3.3802,-3.468,-3.528,-3.5666,-3.5632,-3.5577,-3.5499,-3.5371,-3.5171,-3.4924,-3.5174,-3.5309,-3.5347,-3.6539,-3.757,-2.8278,-2.7487,-2.7064,-2.8269,-2.9086,-3.022,-3.2452,-3.3367,-3.3908,-3.4403,-3.2676,-3.0859,-3.0132,-2.8319,-2.6845,-2.6633,-2.6648,-2.68,0.0,-2.8858,-3.0556,-3.1681,-3.3473,-3.4557,-3.4557,-3.4336,-3.4494,-3.5169,-3.507,-3.5663,-3.7318,-3.8098,-3.9036,-4.0217,-4.0651,-4.1251,-4.2062,-4.2302,-4.2719,-4.3424,-4.3424,-4.3627,-4.3998,-4.4186,-4.4307,-4.4307,-4.4489,-4.4527,-4.4373,-4.41,-4.3185,-4.1928,-4.192,-4.1203,-4.0104,-3.9438,-3.8574,-3.7588,-3.6618,-3.6152,-3.5973,-3.5767,-3.688,-3.8046,-3.6738,-3.8296,-4.0104,-3.8238,-3.7702,-3.737,-3.5834,-3.4146,-3.266,-3.1826,-3.1068,-3.0511,-3.0426,-3.0194,-2.9848,-2.9247,-2.8953,-2.8524,-2.7654,-2.7635,-2.7471,-2.6792,-2.6453,-2.6191,-2.6154,-2.5654,-2.5285,-2.518,-2.6171,-2.7177,-2.8003,-3.0598,-3.2845,-3.4376,-3.507,-3.5777,-3.6535,-3.5943,-3.615,-3.7337,-3.6445,-3.578,-3.5433,-3.5609,-3.5249,-3.4469,-3.5346,-3.6361,-2.7982,-2.8068,-2.8368,-2.9232,-3.0488,-3.1859,-3.3414,-3.4017,-3.4224,-3.418,-3.2285,-3.0473,-2.9748,-2.7934,-2.6604,-2.6712,-2.6845,-2.7252,0.0,-3.0094,-3.1829,-3.3161,-3.405,-3.4616,-3.4616,-3.4616,-3.4768,-3.5224,-3.5272,-3.6066,-3.7699,-3.8444,-3.9463,-4.0856,-4.1313,-4.1895,-4.2711,-4.2902,-4.3422,-4.4204,-4.3905,-4.4154,-4.4966,-4.4619,-4.4657,-4.4966,-4.4966,-4.4896,-4.4776,-4.4776,-4.3788,-4.224,-4.2495,-4.1675,-4.0335,-3.9992,-3.9168,-3.7995,-3.647,-3.5942,-3.5997,-3.6119,-3.7102,-3.8007,-3.6757,-3.8104,-3.9565,-3.7113,-3.6356,-3.5908,-3.4378,-3.2625,-3.1111,-3.0602,-2.9903,-2.9306,-2.928,-2.9134,-2.8929,-2.8658,-2.8496,-2.8219,-2.7619,-2.7378,-2.7178,-2.6758,-2.6297,-2.5937,-2.5847,-2.5582,-2.5339,-2.5243,-2.6795,-2.8377,-2.9741,-3.19,-3.3589,-3.4636,-3.5467,-3.6234,-3.6947,-3.6674,-3.6874,-3.7635,-3.6955,-3.627,-3.5622,-3.5732,-3.5387,-3.4682,-3.4984,-3.5454]}]]